[[{"header":{"parameterUnit":"m.s-1","parameterCategory":1,"la1":30.6,"la2":29.2853,"lo1":-89.7004,"lo2":-87.6739,"dy":0.0162,"dx":0.0183,"nx":112,"ny":82,"refTime":"2023-03-26T06:00:00:Z","depth":0,"parameterNumber":2,"parameterNumberName":"U-component_of_WINDS"},"data":[0.0,0.0,0.0,0.0,0.0,0.0,0.0,0.0,0.0,0.0,0.0,0.0,0.0,0.0,0.0,0.0,0.0,0.0,0.0,0.0,0.0,0.0,0.0,0.0,0.0,0.0,0.0,0.0,0.0,0.0,0.0,0.0,0.0,0.0,0.0,0.0,0.0,0.0,0.0,0.0,0.0,0.0,0.0,0.0,0.0,0.0,0.0,0.0,0.0,0.0,0.0,0.0,0.0,0.0,0.0,0.0,0.0,0.0,0.0,0.0,0.0,0.0,0.0,0.0,0.0,0.0,0.0,0.0,0.0,0.0,0.0,0.0,0.0,0.0,0.0,0.0,0.0,0.0,0.0,0.0,0.0,0.0,0.0,0.0,0.0,0.0,0.0,0.0,0.0,0.0,0.0,1.8455,1.8857,1.9121,1.9121,1.9535,1.9798,1.9798,0.0,0.0,0.0,0.0,0.0,0.0,0.0,0.0,0.0,0.0,0.0,0.0,0.0,0.0,0.0,0.0,0.0,0.0,0.0,0.0,0.0,0.0,0.0,0.0,0.0,0.0,0.0,0.0,0.0,0.0,0.0,0.0,0.0,0.0,0.0,0.0,0.0,0.0,0.0,0.0,0.0,0.0,0.0,0.0,0.0,0.0,0.0,0.0,0.0,0.0,0.0,0.0,0.0,0.0,0.0,0.0,0.0,0.0,0.0,0.0,0.0,0.0,0.0,0.0,0.0,0.0,0.0,0.0,0.0,0.0,0.0,0.0,0.0,0.0,0.0,0.0,0.0,0.0,0.0,0.0,0.0,0.0,0.0,0.0,0.0,0.0,0.0,0.0,0.0,0.0,0.0,0.0,0.0,0.0,0.0,0.0,0.0,0.0,0.0,0.0,0.0,0.0,0.0,0.0,1.956,1.956,1.9635,1.9685,1.9685,1.9761,1.9798,1.9798,0.0,0.0,0.0,0.0,0.0,0.0,0.0,0.0,0.0,0.0,0.0,0.0,0.0,0.0,0.0,0.0,0.0,0.0,0.0,0.0,0.0,0.0,0.0,0.0,0.0,0.0,0.0,0.0,0.0,0.0,0.0,0.0,0.0,0.0,0.0,0.0,0.0,0.0,0.0,0.0,0.0,0.0,0.0,0.0,0.0,0.0,0.0,0.0,0.0,0.0,0.0,0.0,0.0,0.0,0.0,0.0,0.0,0.0,0.0,0.0,0.0,0.0,0.0,0.0,0.0,0.0,0.0,0.0,0.0,0.0,0.0,0.0,0.0,0.0,0.0,0.0,0.0,0.0,0.0,0.0,0.0,0.0,0.0,0.0,0.0,0.0,0.0,0.0,0.0,0.0,0.0,0.0,0.0,0.0,0.0,0.0,0.0,0.0,0.0,0.0,0.0,0.0,0.0,1.966,1.9798,1.9798,1.9798,1.9798,1.9798,1.9798,1.9798,1.9798,1.956,0.0,0.0,0.0,0.0,0.0,0.0,0.0,0.0,0.0,0.0,0.0,0.0,0.0,0.0,0.0,0.0,0.0,0.0,0.0,0.0,0.0,0.0,0.0,0.0,0.0,0.0,0.0,0.0,0.0,0.0,0.0,0.0,0.0,0.0,0.0,0.0,0.0,0.0,0.0,0.0,0.0,0.0,0.0,0.0,0.0,0.0,0.0,0.0,0.0,0.0,0.0,0.0,0.0,0.0,0.0,0.0,0.0,0.0,0.0,0.0,0.0,0.0,0.0,0.0,0.0,0.0,0.0,0.0,0.0,0.0,0.0,0.0,0.0,0.0,0.0,0.0,0.0,0.0,0.0,0.0,0.0,0.0,0.0,0.0,0.0,0.0,0.0,0.0,0.0,0.0,0.0,0.0,0.0,0.0,0.0,0.0,0.0,0.0,0.0,0.0,0.0,0.0,1.9798,1.9798,1.9798,1.9798,1.9798,1.9798,1.9798,1.9798,1.9798,1.9798,0.0,0.0,0.0,0.0,0.0,0.0,0.0,0.0,0.0,0.0,0.0,0.0,0.0,0.0,0.0,0.0,0.0,0.0,0.0,0.0,0.0,0.0,0.0,0.0,0.0,0.0,0.0,0.0,0.0,0.0,0.0,0.0,0.0,0.0,0.0,0.0,0.0,0.0,0.0,0.0,0.0,0.0,0.0,0.0,0.0,0.0,0.0,0.0,0.0,0.0,0.0,0.0,0.0,0.0,0.0,0.0,0.0,0.0,0.0,0.0,0.0,0.0,0.0,0.0,0.0,0.0,0.0,0.0,0.0,0.0,0.0,0.0,0.0,0.0,0.0,0.0,0.0,0.0,0.0,0.0,0.0,0.0,0.0,0.0,0.0,0.0,0.0,0.0,0.0,0.0,0.0,0.0,0.0,0.0,0.0,0.0,0.0,0.0,0.0,0.0,0.0,0.0,1.9798,1.9798,1.9798,1.9798,1.9798,1.9798,1.9798,1.9798,1.9798,1.9798,0.0,0.0,0.0,0.0,0.0,0.0,0.0,0.0,0.0,0.0,0.0,0.0,0.0,0.0,0.0,0.0,0.0,0.0,0.0,0.0,0.0,0.0,0.0,0.0,0.0,0.0,0.0,0.0,0.0,0.0,0.0,0.0,0.0,0.0,0.0,0.0,0.0,0.0,0.0,0.0,0.0,0.0,0.0,0.0,0.0,0.0,0.0,0.0,0.0,0.0,0.0,0.0,0.0,0.0,0.0,0.0,0.0,0.0,0.0,0.0,0.0,0.0,0.0,0.0,0.0,0.0,0.0,0.0,0.0,0.0,0.0,0.0,0.0,0.0,0.0,0.0,0.0,0.0,0.0,0.0,0.0,0.0,0.0,0.0,0.0,0.0,0.0,0.0,0.0,0.0,0.0,0.0,0.0,0.0,0.0,0.0,0.0,0.0,0.0,0.0,0.0,0.0,2.0125,2.0365,0.0,2.0665,2.069,2.0278,1.9974,1.9779,1.9737,0.0,0.0,0.0,0.0,0.0,0.0,0.0,0.0,0.0,0.0,0.0,0.0,0.0,0.0,0.0,0.0,0.0,0.0,0.0,0.0,0.0,0.0,0.0,0.0,0.0,0.0,0.0,0.0,0.0,0.0,0.0,0.0,0.0,0.0,0.0,0.0,0.0,0.0,0.0,0.0,0.0,0.0,0.0,0.0,0.0,0.0,0.0,0.0,0.0,0.0,0.0,0.0,0.0,0.0,0.0,0.0,0.0,0.0,0.0,0.0,0.0,0.0,0.0,0.0,0.0,0.0,0.0,0.0,0.0,0.0,0.0,0.0,0.0,0.0,0.0,0.0,0.0,0.0,0.0,0.0,0.0,0.0,0.0,0.0,0.0,0.0,0.0,0.0,0.0,0.0,0.0,0.0,0.0,0.0,0.0,0.0,0.0,0.0,0.0,0.0,0.0,0.0,2.0062,2.0453,2.078,0.0,2.1281,2.1285,2.0775,2.028,2.0075,2.0173,0.0,0.0,0.0,0.0,0.0,0.0,0.0,0.0,0.0,0.0,0.0,0.0,0.0,0.0,0.0,0.0,0.0,0.0,0.0,0.0,0.0,0.0,0.0,0.0,0.0,0.0,0.0,0.0,0.0,0.0,0.0,0.0,0.0,0.0,0.0,0.0,0.0,0.0,0.0,0.0,0.0,0.0,0.0,0.0,0.0,0.0,0.0,0.0,0.0,0.0,0.0,0.0,0.0,0.0,0.0,0.0,0.0,0.0,0.0,0.0,0.0,0.0,0.0,0.0,0.0,0.0,0.0,0.0,0.0,0.0,0.0,0.0,0.0,0.0,0.0,0.0,0.0,0.0,0.0,0.0,0.0,0.0,0.0,0.0,0.0,0.0,0.0,0.0,0.0,0.0,0.0,0.0,0.0,0.0,0.0,0.0,0.0,0.0,0.0,0.0,0.0,0.0,2.0615,2.0691,2.0904,2.1429,2.1479,2.1408,2.1214,2.0772,2.0689,0.0,0.0,0.0,0.0,0.0,0.0,0.0,0.0,0.0,0.0,0.0,0.0,0.0,0.0,0.0,0.0,0.0,0.0,0.0,0.0,0.0,0.0,0.0,0.0,0.0,0.0,0.0,0.0,0.0,0.0,0.0,0.0,0.0,0.0,0.0,0.0,0.0,0.0,0.0,0.0,0.0,0.0,0.0,0.0,0.0,0.0,0.0,0.0,0.0,0.0,0.0,0.0,0.0,0.0,0.0,0.0,0.0,0.0,0.0,0.0,0.0,0.0,0.0,0.0,0.0,0.0,0.0,0.0,0.0,0.0,0.0,0.0,0.0,0.0,0.0,0.0,0.0,0.0,0.0,0.0,0.0,0.0,0.0,0.0,0.0,0.0,0.0,0.0,0.0,0.0,0.0,0.0,0.0,0.0,0.0,0.0,0.0,0.0,0.0,0.0,0.0,0.0,0.0,2.0534,2.0485,2.0479,2.0647,2.0988,2.1,2.0462,1.999,1.9954,2.0524,0.0,0.0,0.0,0.0,0.0,0.0,0.0,0.0,0.0,0.0,0.0,0.0,0.0,0.0,0.0,0.0,0.0,0.0,0.0,0.0,0.0,0.0,0.0,0.0,0.0,0.0,0.0,0.0,0.0,0.0,0.0,0.0,0.0,0.0,0.0,0.0,0.0,0.0,0.0,0.0,0.0,0.0,0.0,0.0,0.0,0.0,0.0,0.0,0.0,0.0,0.0,0.0,0.0,0.0,0.0,0.0,0.0,0.0,0.0,0.0,0.0,0.0,0.0,0.0,0.0,0.0,0.0,0.0,0.0,0.0,0.0,0.0,0.0,0.0,0.0,0.0,0.0,0.0,0.0,0.0,0.0,0.0,0.0,0.0,0.0,0.0,0.0,0.0,0.0,0.0,0.0,0.0,0.0,0.0,0.0,0.0,0.0,0.0,0.0,0.0,0.0,0.0,2.0678,2.0397,2.025,2.0408,2.0719,2.0698,2.0215,1.9791,1.9802,2.0384,0.0,0.0,0.0,0.0,0.0,0.0,0.0,0.0,0.0,0.0,0.0,0.0,0.0,0.0,0.0,0.0,0.0,0.0,0.0,0.0,0.0,0.0,0.0,0.0,0.0,0.0,0.0,0.0,0.0,0.0,0.0,0.0,0.0,0.0,0.0,0.0,0.0,0.0,0.0,0.0,0.0,0.0,0.0,0.0,0.0,0.0,0.0,0.0,0.0,0.0,0.0,0.0,0.0,0.0,0.0,0.0,0.0,0.0,0.0,0.0,0.0,0.0,0.0,0.0,0.0,0.0,0.0,0.0,0.0,0.0,0.0,0.0,0.0,0.0,0.0,0.0,0.0,0.0,0.0,0.0,0.0,0.0,0.0,0.0,0.0,0.0,0.0,0.0,0.0,0.0,0.0,0.0,0.0,0.0,0.0,0.0,0.0,0.0,0.0,0.0,0.0,0.0,2.0976,2.0354,2.0028,2.0401,2.043,2.0349,2.0155,1.9841,1.9917,2.0478,0.0,0.0,0.0,0.0,0.0,0.0,0.0,0.0,0.0,0.0,0.0,0.0,0.0,0.0,0.0,0.0,0.0,0.0,0.0,0.0,0.0,0.0,0.0,0.0,0.0,0.0,0.0,0.0,0.0,0.0,0.0,0.0,0.0,0.0,0.0,0.0,0.0,0.0,0.0,0.0,0.0,0.0,0.0,0.0,0.0,0.0,0.0,0.0,0.0,0.0,0.0,0.0,0.0,0.0,0.0,0.0,0.0,0.0,0.0,0.0,1.6352,0.0,0.0,0.0,0.0,0.0,0.0,0.0,0.0,0.0,0.0,0.0,0.0,0.0,0.0,0.0,0.0,0.0,0.0,0.0,0.0,0.0,0.0,0.0,0.0,0.0,0.0,0.0,0.0,0.0,0.0,0.0,0.0,0.0,0.0,0.0,0.0,0.0,0.0,0.0,0.0,0.0,2.105,1.9884,1.9099,1.9177,1.9171,1.9098,1.8898,1.8825,1.9071,1.9775,0.0,0.0,0.0,0.0,0.0,0.0,0.0,0.0,0.0,0.0,0.0,0.0,0.0,0.0,0.0,0.0,0.0,0.0,0.0,0.0,0.0,0.0,0.0,0.0,0.0,0.0,0.0,0.0,0.0,0.0,0.0,0.0,0.0,0.0,0.0,0.0,0.0,0.0,0.0,0.0,0.0,0.0,0.0,0.0,0.0,0.0,0.0,0.0,0.0,0.0,0.0,0.0,0.0,0.0,0.0,0.0,0.0,0.0,0.0,0.0,0.0,1.6697,0.0,0.0,0.0,0.0,0.0,0.0,0.0,0.0,0.0,0.0,0.0,0.0,0.0,0.0,0.0,0.0,0.0,0.0,0.0,0.0,0.0,0.0,0.0,0.0,0.0,0.0,0.0,0.0,0.0,0.0,0.0,0.0,0.0,0.0,0.0,0.0,0.0,0.0,0.0,0.0,2.0376,1.9309,1.8522,1.8421,1.8431,1.8381,1.8262,1.8347,1.8573,1.8954,1.9375,0.0,0.0,0.0,0.0,0.0,0.0,0.0,0.0,0.0,0.0,0.0,0.0,0.0,0.0,0.0,0.0,0.0,0.0,0.0,0.0,0.0,0.0,0.0,0.0,0.0,0.0,0.0,0.0,0.0,0.0,0.0,0.0,0.0,0.0,0.0,0.0,0.0,0.0,0.0,0.0,0.0,0.0,0.0,0.0,0.0,0.0,0.0,0.0,0.0,0.0,0.0,0.0,0.0,0.0,1.6651,1.7113,1.694,1.7137,1.7582,1.706,1.6851,1.6841,0.0,0.0,0.0,0.0,0.0,0.0,0.0,0.0,0.0,0.0,0.0,0.0,0.0,0.0,0.0,0.0,0.0,0.0,0.0,0.0,0.0,0.0,0.0,0.0,0.0,1.8771,1.8345,0.0,0.0,0.0,0.0,0.0,0.0,0.0,0.0,0.0,0.0,0.0,0.0,1.9612,1.8909,1.8344,1.8167,1.8228,1.822,1.8108,1.8269,1.8315,1.8262,1.8921,1.9381,0.0,0.0,0.0,0.0,0.0,0.0,0.0,0.0,0.0,0.0,0.0,0.0,0.0,0.0,0.0,0.0,0.0,0.0,0.0,0.0,0.0,0.0,0.0,0.0,0.0,0.0,0.0,0.0,0.0,0.0,0.0,0.0,1.3418,1.3418,0.0,0.0,0.0,0.0,0.0,0.0,0.0,0.0,0.0,0.0,0.0,0.0,0.0,0.0,1.7326,1.7326,1.7326,1.7326,1.7154,1.7104,1.7195,1.7151,1.7189,1.727,1.7364,0.0,1.7402,1.7518,0.0,0.0,0.0,0.0,0.0,0.0,0.0,0.0,0.0,0.0,0.0,0.0,0.0,0.0,0.0,0.0,0.0,0.0,0.0,0.0,0.0,0.0,1.8042,1.8178,1.8127,1.8039,0.0,1.8845,1.9553,1.9699,0.0,0.0,0.0,0.0,0.0,0.0,0.0,0.0,1.9595,1.9141,1.8807,1.879,1.9156,1.9146,1.8566,1.8555,1.8416,1.8061,1.8161,1.8546,1.9309,1.9447,0.0,0.0,0.0,0.0,0.0,0.0,0.0,0.0,0.0,0.0,0.0,0.0,0.0,0.0,0.0,0.0,0.0,0.0,0.0,0.0,0.0,0.0,0.0,0.0,0.0,0.0,0.0,0.0,0.0,1.4024,1.409,1.4131,1.4605,1.5091,0.0,0.0,0.0,0.0,0.0,0.0,0.0,0.0,0.0,1.6429,1.711,1.7503,1.7503,1.7727,1.7848,1.7848,1.7749,1.7767,1.7865,1.7758,1.7776,1.7865,1.7839,1.7848,1.7829,1.765,1.763,1.7706,0.0,0.0,0.0,0.0,0.0,1.7991,1.7991,0.0,0.0,0.0,0.0,0.0,0.0,0.0,0.0,0.0,0.0,0.0,0.0,0.0,0.0,1.8672,1.873,1.873,1.873,1.9098,1.9286,0.0,1.8787,1.8961,1.926,0.0,0.0,0.0,0.0,0.0,1.9567,1.9321,1.912,1.912,1.9306,1.9309,1.9014,1.8986,1.8926,1.874,1.8479,1.8505,1.8881,1.9162,1.9661,0.0,0.0,0.0,0.0,0.0,0.0,0.0,0.0,0.0,0.0,0.0,0.0,0.0,0.0,0.0,0.0,0.0,0.0,0.0,0.0,0.0,0.0,0.0,0.0,0.0,0.0,0.0,0.0,1.4288,1.4337,1.4379,1.4609,1.5059,0.0,0.0,0.0,0.0,0.0,0.0,1.5944,1.6341,1.6394,1.6072,1.6665,1.6996,1.6996,1.7297,1.755,1.7765,1.7765,1.797,1.8313,1.8174,1.8174,1.8313,1.8156,1.8119,1.8147,1.7843,1.7791,1.7876,1.7835,1.787,1.7956,1.8008,1.8139,1.8253,1.8313,1.834,1.834,1.834,0.0,1.834,1.834,0.0,0.0,0.0,0.0,1.8391,1.8703,0.0,1.8869,1.9209,1.9305,1.9305,1.9305,1.9305,1.9102,0.0,1.8451,1.8555,1.8555,0.0,0.0,0.0,0.0,1.9193,1.9486,1.9476,1.9443,1.9443,1.9569,1.9589,1.9453,1.9443,1.9404,1.9315,1.8966,1.8781,1.8781,1.9007,1.9226,1.946,0.0,0.0,0.0,0.0,0.0,0.0,0.0,0.0,0.0,0.0,0.0,0.0,0.0,0.0,0.0,0.0,0.0,0.0,0.0,0.0,0.0,0.0,0.0,0.0,0.0,0.0,0.0,0.0,0.0,1.3556,1.3571,0.0,0.0,0.0,0.0,1.4708,1.4984,1.5497,1.6321,1.5863,1.5926,1.6728,1.6,1.5599,1.5599,1.5615,1.606,1.6863,1.6863,1.7306,1.81,1.8109,1.8109,1.81,1.8109,1.8211,1.8378,1.8359,1.8359,1.8378,1.8571,1.8645,1.8663,1.8855,1.8937,1.8983,1.9174,1.9219,1.9219,1.9219,1.9219,1.9219,1.9219,1.9219,0.0,0.0,1.9219,1.9247,1.9248,1.9248,1.9276,1.9296,1.9305,1.9305,1.9305,1.9305,1.9296,0.0,1.9237,1.9237,1.9237,0.0,1.9494,1.933,1.9459,1.9505,1.9342,1.9639,1.9864,1.9864,2.0273,2.0351,1.9912,1.9864,1.9717,1.9325,1.9286,1.9248,1.9248,1.8856,1.9021,1.9853,1.9536,0.0,0.0,0.0,0.0,0.0,0.0,0.0,0.0,0.0,0.0,0.0,0.0,0.0,0.0,0.0,0.0,0.0,0.0,0.0,0.0,0.0,0.0,0.0,0.0,0.0,0.0,0.0,0.0,1.4153,1.3932,0.0,1.4851,1.4602,1.4611,1.5137,1.482,1.471,1.5034,1.5341,1.5412,1.5208,1.5639,1.5964,1.6145,1.6398,1.679,1.7312,1.7312,1.7478,1.7788,1.7788,1.7788,1.7788,1.7788,1.7829,1.7883,1.7883,1.8094,1.8387,1.8351,1.8378,1.8526,1.8591,1.8784,1.8996,1.8931,1.9078,1.9305,1.9305,1.9214,1.9133,1.9251,1.9305,1.9305,1.9305,1.9305,1.9364,1.9619,1.9697,1.9766,2.0058,2.0136,2.0136,2.0136,2.0136,2.0136,2.0136,1.9686,1.9305,1.9305,1.937,1.9476,1.9667,1.9753,1.9879,2.0116,2.0263,2.0351,2.0351,2.0507,2.0537,2.0361,2.0351,2.0293,2.0155,1.9844,1.9697,1.9697,1.9287,1.9196,1.9517,1.9366,1.9872,0.0,0.0,0.0,0.0,0.0,0.0,0.0,0.0,0.0,0.0,0.0,0.0,0.0,0.0,0.0,0.0,0.0,0.0,0.0,0.0,0.0,0.0,0.0,0.0,0.0,0.0,1.3818,1.4304,1.3946,1.3973,1.4755,1.427,1.4148,1.4674,1.4307,1.4237,1.4656,1.4985,1.5096,1.4976,1.547,1.5817,1.5991,1.6264,1.6654,1.715,1.715,1.7325,1.7609,1.7609,1.7609,1.7609,1.7609,1.7609,1.7609,1.7609,1.782,1.8109,1.7981,1.8,1.8129,1.8207,1.8607,1.9168,1.9447,1.9631,1.9734,1.9734,1.96,1.9446,1.9596,1.9679,1.9735,1.9735,1.9735,1.9804,2.0077,2.0137,2.0205,2.0537,2.0605,2.0605,2.0605,2.0605,2.0605,2.0605,2.0126,1.9735,1.9735,1.9735,1.9833,2.0098,2.0137,2.0263,2.0566,2.0605,2.0605,2.0605,2.0605,2.0605,2.0605,2.0605,2.0605,2.0605,2.0312,2.0137,2.0137,1.9727,1.9502,1.9502,1.9365,1.9857,2.0996,0.0,0.0,0.0,0.0,0.0,0.0,0.0,0.0,0.0,0.0,0.0,0.0,0.0,0.0,0.0,0.0,0.0,0.0,0.0,0.0,0.0,0.0,0.0,1.2303,1.3215,1.3877,1.3877,1.3467,1.351,1.4228,1.3662,1.3233,1.3267,1.3507,1.4152,1.5325,1.4841,1.5051,1.6213,1.5442,1.4992,1.4999,1.4999,1.544,1.6271,1.6271,1.6727,1.7553,1.7553,1.7553,1.7553,1.7553,1.7553,1.7553,1.7553,1.7553,1.7545,1.7595,1.7609,1.7622,1.7824,1.851,1.952,2.0698,2.0833,2.0504,2.0525,2.04,2.0224,2.0224,2.0391,2.0566,2.0566,2.0605,2.0625,2.0625,2.0625,2.0644,2.0644,2.0644,2.0644,2.0644,2.0644,2.0644,2.0644,2.0644,2.0644,2.0625,2.0625,2.0615,2.0644,2.0644,0.0,2.0644,2.0644,2.0635,2.0625,2.0625,2.0615,2.0605,2.0605,2.0605,2.0605,2.0605,2.0605,2.0605,2.0156,1.9913,1.9913,1.9558,1.9777,2.0623,0.0,0.0,0.0,0.0,0.0,0.0,0.0,0.0,0.0,0.0,0.0,0.0,0.0,0.0,0.0,0.0,0.0,0.0,0.0,0.0,0.0,0.0,1.2235,1.2348,1.2828,1.3171,1.3171,1.336,1.3668,1.4118,1.4154,1.4249,1.4491,1.4578,1.4768,1.5084,1.4951,1.501,1.5353,1.5113,1.5086,1.53,1.53,1.5516,1.5934,1.5934,1.6067,1.6292,1.6292,1.6292,1.6292,1.6292,1.6292,1.6292,1.6292,1.6292,1.6382,1.7254,1.7609,1.7609,1.7666,1.7869,1.8173,1.8819,1.8773,1.8475,1.8765,1.8731,1.8596,1.873,1.9326,1.9959,1.9959,2.0585,2.1249,2.1249,2.1401,2.1544,2.1544,2.1544,2.1544,2.1544,2.1544,2.1544,2.1544,2.1544,2.1426,2.1084,2.1035,2.1162,2.1495,0.0,0.0,2.1544,2.1544,2.1396,2.1064,2.1035,2.0918,2.0615,2.0605,2.0605,0.0,2.0605,2.0605,2.0605,2.0468,2.041,2.041,2.0587,2.0803,0.0,0.0,0.0,0.0,0.0,0.0,0.0,0.0,0.0,0.0,0.0,0.0,0.0,0.0,0.0,0.0,0.0,0.0,0.0,0.0,0.0,0.0,1.2281,1.2394,1.2607,1.2812,1.299,1.3106,1.3454,1.3804,1.4104,1.428,1.4488,1.4809,1.4822,1.4927,1.516,1.5166,1.5227,1.5317,1.5467,1.5615,1.5789,1.5885,1.6025,1.6175,1.6175,1.6175,1.6175,1.6175,1.6175,0.0,1.6175,1.6175,1.6175,1.6175,1.6175,0.0,0.0,0.0,0.0,0.0,1.7468,1.7581,1.8221,1.8191,1.7895,1.8115,1.8069,1.7932,1.804,1.8544,1.9153,1.9579,2.0211,2.0764,2.0878,2.1034,2.118,2.1263,2.1275,2.1388,2.1823,2.1905,2.1905,2.1905,0.0,0.0,2.1757,2.1601,2.1592,2.1846,2.1905,2.1905,0.0,2.1905,2.1787,2.1513,2.1484,2.1406,2.1162,2.1133,0.0,0.0,0.0,2.1055,2.0859,2.0684,0.0,0.0,0.0,2.0951,0.0,0.0,0.0,0.0,2.1743,2.2184,0.0,0.0,0.0,0.0,0.0,0.0,0.0,0.0,0.0,0.0,0.0,0.0,0.0,0.0,0.0,0.0,1.2553,1.2702,1.2966,1.3048,1.3151,1.3419,1.3688,1.3954,1.4224,1.4255,1.4369,1.4644,1.4715,1.496,1.5431,0.0,0.0,0.0,0.0,1.6351,1.6351,1.6573,1.6707,1.6707,1.6707,1.6707,1.6707,1.6707,1.6707,1.6707,1.6707,1.6707,1.6707,1.6707,1.6707,1.6653,1.6108,1.5901,1.6021,1.6881,1.7196,0.0,0.0,0.0,0.0,1.7937,1.7801,1.7659,1.7659,1.7864,1.8287,1.9174,1.9539,1.9698,1.9938,2.0002,2.0088,2.027,2.0398,2.0716,2.1615,2.1917,2.201,2.201,2.2031,2.2148,2.2519,2.2236,2.1973,2.2021,2.2052,0.0,2.2052,2.2052,2.2012,2.1963,0.0,0.0,2.1894,2.1905,2.1905,2.1905,2.1905,2.1709,2.1308,2.0947,2.0752,2.0752,2.0752,2.0732,2.0664,2.0664,2.0664,2.0683,2.1411,2.1815,0.0,0.0,0.0,0.0,0.0,0.0,0.0,0.0,0.0,0.0,0.0,0.0,0.0,0.0,0.0,1.2294,1.252,1.2765,1.305,1.327,1.3503,1.3766,1.3995,1.423,1.4509,1.4511,1.4653,1.4969,1.5402,1.5695,1.5803,1.6197,0.0,1.6508,1.6593,1.662,1.662,1.6673,1.6707,1.6707,0.0,0.0,1.6707,1.6707,1.6707,1.6707,1.6707,1.6707,1.6707,1.6707,1.6707,1.6693,1.658,1.654,1.6506,1.6492,1.6501,1.6491,1.6405,1.6328,1.6256,1.6256,1.6231,1.6206,1.6206,1.6804,0.0,1.7704,1.8467,1.9222,1.9268,1.9448,1.9628,1.965,2.03,2.093,2.1138,2.1936,2.2628,2.2628,2.2749,2.2898,2.2976,2.2654,2.2488,2.282,2.2869,2.2869,2.2869,2.2869,2.2742,2.2432,2.2371,2.2256,2.1935,2.1905,2.1905,2.1905,2.1905,2.1846,2.1768,2.17,2.1651,2.1651,2.1651,2.1455,2.1084,2.1084,2.1084,2.1074,2.0915,2.1271,0.0,0.0,0.0,0.0,0.0,0.0,0.0,0.0,0.0,0.0,0.0,1.1743,0.0,0.0,1.2231,1.2629,1.281,1.3033,1.3437,1.3628,1.3759,1.3874,1.3989,1.4169,1.4411,1.4572,1.478,1.508,1.5461,1.5762,1.5892,1.6152,1.6306,1.6306,1.655,1.6705,1.6705,1.6997,1.7141,1.7141,1.7141,1.7141,1.7141,1.7141,1.7141,1.7141,1.7141,1.7141,1.7141,1.7141,1.7141,1.7141,1.7141,1.6967,1.6687,1.6547,1.6486,1.6491,1.6319,1.6242,1.6242,1.6242,1.6242,1.6242,1.6242,1.6607,1.7109,1.7616,1.8177,1.8687,1.8806,1.8941,1.9083,1.917,1.9587,2.008,2.0594,2.1708,2.2606,2.2606,2.3229,2.3757,2.3757,2.3428,2.3144,2.3123,2.3091,2.3091,2.3091,2.3091,2.3013,2.283,2.2801,2.2723,2.2529,2.2488,2.2488,2.2488,2.2314,2.2197,2.2197,2.2002,2.1905,2.1905,2.1905,2.1777,2.1542,2.1542,2.1542,2.1553,2.1328,2.1491,0.0,0.0,0.0,0.0,0.0,0.0,0.0,0.0,1.1587,1.1587,1.1798,1.2045,1.2256,1.2382,1.2593,1.3033,1.3189,1.34,1.3845,1.3948,1.3978,1.3978,1.3978,1.4087,1.4352,1.4557,1.4807,1.5072,1.54,1.5682,1.5891,1.5992,1.6069,1.6069,1.6465,1.6724,1.6801,1.7285,1.7562,1.7608,1.7608,1.7608,1.7608,1.7608,1.7608,1.7608,1.7608,1.7608,1.7608,1.7608,1.7608,1.7608,1.7608,1.7295,1.6867,1.6814,1.6794,1.678,1.6727,1.6707,1.6707,1.6707,1.6707,1.6707,1.6707,1.6707,1.6875,1.7672,1.792,1.7963,1.8178,1.8227,1.8277,1.8427,1.8624,1.8992,1.9812,2.1018,2.1933,2.1933,2.284,2.3621,2.3621,2.3517,2.339,2.3264,2.3171,2.3091,2.3091,2.3091,2.3091,2.3091,2.3091,2.3091,2.3091,2.3091,2.3091,2.3091,2.2801,2.2615,2.2615,2.2305,2.2129,2.2129,2.2129,2.209,2.2032,2.2032,2.2032,2.2032,2.2032,2.1963,1.1093,1.1093,1.1153,1.14,1.1466,1.1526,0.0,0.0,1.1858,1.1858,1.2069,1.2256,1.2286,1.2689,1.3033,1.3093,1.3491,1.3839,1.3894,1.4111,1.4256,1.4256,1.4256,1.4364,1.4617,1.4672,1.4811,1.5072,1.5563,1.5878,1.5903,1.6357,1.6614,1.6614,1.6666,1.685,1.7127,1.7213,1.7358,1.7608,1.7608,1.7608,1.7608,1.7608,1.7608,1.7608,1.7608,1.7608,1.7608,1.7608,1.7608,1.7608,1.7608,1.7568,1.7474,1.722,1.7152,1.7112,1.68,1.6707,1.6707,1.6707,1.6707,1.6707,1.6707,1.6707,1.6732,1.6832,1.6875,1.6875,1.69,1.69,1.6925,1.695,1.7616,1.8309,1.8432,1.9407,2.0264,2.0264,2.0578,2.0858,2.0858,2.1605,2.2554,2.3577,2.3367,2.3091,2.3091,2.3091,2.3091,2.3091,2.3091,2.3091,2.3091,2.3091,2.3091,2.3091,2.3052,2.3023,2.3023,2.2984,2.2976,2.2976,2.2976,2.2791,2.242,2.242,2.242,2.242,2.242,2.2246,1.1158,1.134,0.0,0.0,1.1737,1.1767,1.1876,1.2021,1.2129,1.2129,1.2361,1.259,1.2732,1.2948,1.3202,0.0,1.3738,1.3743,1.3262,1.3972,1.4289,1.3679,1.4291,1.4757,1.4696,1.4967,1.5215,1.5324,1.5688,1.5887,1.5887,1.6117,1.6232,1.6232,1.6397,1.661,1.6902,1.7093,1.7331,1.7608,1.7608,1.7536,1.7384,1.7384,1.7384,1.7378,1.7529,1.7608,1.7608,1.7608,1.7608,1.7608,1.7608,1.7608,1.7595,1.7468,1.7428,1.7408,1.7255,1.7215,1.7215,1.7215,1.7215,1.7215,1.7215,1.7215,1.7215,1.7215,1.7215,1.7215,1.7215,1.7215,1.7215,1.7215,1.7549,1.7851,1.7851,1.8869,1.9772,1.9772,2.0508,2.1147,2.1147,2.1294,2.1595,2.2078,2.2987,2.3628,2.3628,2.3764,2.3864,2.3864,2.3864,2.3767,2.3545,2.3516,2.3386,2.311,2.3091,2.3091,2.3091,2.3091,2.3091,2.3091,2.3091,2.3013,2.2859,2.2859,2.2859,2.2859,2.2859,2.2762,1.1165,0.0,0.0,1.1882,1.2009,1.2027,1.2099,1.2262,1.2338,1.2087,1.2441,1.2793,1.2727,1.3058,1.3443,1.3845,1.3702,1.3382,1.2778,1.3316,1.3626,1.3151,1.4072,1.48,1.49,1.5276,1.5529,1.5602,1.5783,1.5891,1.5891,1.5891,1.5891,1.5891,1.6078,1.6318,1.6577,1.6828,1.7093,1.7345,1.7345,1.7239,1.7067,1.7067,1.7067,1.7093,1.7378,1.7483,1.751,1.7556,1.7608,1.7608,1.7608,1.7608,1.7608,1.7608,1.7608,1.7608,1.7608,1.7608,1.7608,1.7608,1.7608,1.7608,1.7608,1.7608,1.7608,1.7608,1.7608,1.7608,1.7608,1.7608,1.7608,1.7608,1.7608,1.7608,1.7608,1.8349,1.9039,1.9039,1.9878,2.0582,2.0582,2.0522,2.0506,2.0506,2.2077,2.3309,2.3416,2.3942,2.4322,2.4391,2.4391,2.4287,2.3984,2.3965,2.3828,2.3493,2.3474,2.3415,2.3298,2.3298,2.324,2.3091,2.3091,2.3091,2.3091,2.3091,2.3091,2.3091,2.324,2.3298,0.0,0.0,1.0816,1.1981,1.228,1.2367,1.262,1.2687,1.2437,1.1531,1.2258,1.2817,1.1921,1.2905,1.3888,1.3906,1.325,1.2721,1.2702,1.1999,1.1913,1.2977,1.3548,1.4259,0.0,1.5487,1.5602,1.5855,1.5885,1.5891,1.5891,1.5891,1.5891,1.5891,1.5918,1.6051,1.6297,1.6324,1.6451,1.673,1.673,1.673,1.673,1.673,1.673,1.673,1.706,1.7199,1.7226,1.7483,1.7608,1.7608,1.7608,1.7608,1.7608,1.7608,1.7608,1.7608,1.7608,1.7608,1.7608,1.7608,1.7608,1.7608,1.7608,1.7608,1.7608,1.7608,1.7608,1.7608,1.7608,1.7608,1.7608,1.7608,1.7608,1.7608,1.7608,1.7635,1.7661,1.7661,1.7714,1.7707,1.7707,1.8577,1.9265,1.9265,2.0461,2.1545,2.1991,2.3201,2.4104,2.4368,2.4391,2.4391,2.4371,2.4371,2.4371,2.4352,2.4352,2.4199,2.3789,2.3769,2.3574,2.3101,2.3091,2.3091,2.3091,2.3091,2.3091,2.311,2.3574,2.3769,0.0,0.0,1.089,1.1387,1.2036,1.2421,1.1885,1.1779,1.1494,1.0556,1.0803,1.1122,1.0992,1.1982,1.2672,1.2179,1.2437,1.225,1.0961,1.1279,1.1588,1.1389,1.225,0.0,0.0,0.0,0.0,1.4783,1.4761,1.4761,1.4761,1.5485,1.5891,1.5891,1.5891,1.6025,1.6297,1.6297,1.6424,1.6703,1.653,1.6424,1.6424,1.6424,1.6424,1.6451,1.6736,1.6981,1.7206,1.7305,1.743,1.7608,1.7608,1.7608,1.7608,1.7608,1.7608,1.7608,1.7608,1.7608,1.7608,1.7608,1.7608,1.7608,1.7608,1.7608,1.7608,1.7608,1.7608,1.7608,1.7608,1.7608,1.7608,1.7608,1.7608,1.7608,1.7608,1.7608,1.7608,1.7608,1.7608,1.7608,1.7608,1.7891,1.8382,1.9098,2.0416,2.1416,2.1752,2.2345,2.305,2.3864,2.3946,2.4127,2.4563,2.4439,2.4291,2.4146,2.4127,2.4161,2.4209,2.4209,2.4108,2.3962,2.3962,2.3962,2.3962,2.3962,2.3962,2.3971,2.4108,2.4209,0.0,0.9558,1.0086,1.0557,1.1198,1.1531,1.095,1.0799,1.0534,0.9601,0.9854,1.022,1.0126,1.1049,1.1692,1.1259,1.1414,1.1167,0.9978,1.0262,1.0601,1.0502,1.127,1.1955,0.0,0.0,0.0,1.3538,1.3565,1.3565,1.3565,1.4234,1.4857,1.5271,1.5298,1.5565,1.6164,1.6164,1.6238,1.6418,1.6238,1.6164,1.6164,1.6164,1.6164,1.6164,1.6451,1.669,1.6882,1.6987,1.7107,1.7285,1.7404,1.7457,1.7457,1.7556,1.7608,1.7608,1.7608,1.7608,1.7608,1.7608,1.7608,1.7608,1.7608,1.7608,1.7608,1.7608,1.7608,1.7608,1.7608,1.7608,1.7608,1.7608,1.7608,1.7608,1.7608,1.7608,1.7608,1.7608,1.7608,1.7608,1.7608,1.7608,1.7838,1.8506,1.9409,2.0357,2.1414,2.1701,2.2106,2.2901,2.2994,2.3146,2.3593,2.3477,2.3481,2.3727,2.3756,2.3937,2.4355,2.4448,2.4417,2.4252,2.4345,2.4391,2.4391,2.4391,2.4391,2.4401,2.458,2.4648,0.8766,0.8802,0.8513,0.9537,0.9826,0.9857,0.9814,0.9814,0.9531,0.8606,0.9327,0.9904,0.0,0.0,1.0896,1.0977,1.0186,0.9598,0.9665,0.8987,0.8932,0.0,0.0,0.0,0.0,0.0,0.0,1.2146,0.0,1.2304,1.2304,1.2363,1.2906,1.4056,1.411,1.4621,1.5699,1.5779,1.5779,1.5725,1.5779,1.5811,1.5811,1.5811,1.5838,1.5918,1.6164,1.6244,1.6244,1.6497,1.6571,1.6571,1.6875,1.704,1.712,1.7397,1.7529,1.7556,1.7582,1.7582,1.7608,1.7608,1.7608,1.7608,1.7608,1.7608,1.7608,1.7608,1.7608,1.7608,1.7608,1.7608,1.7608,1.7608,1.7608,1.7608,1.7608,1.7608,1.7608,1.7608,1.7608,1.7608,1.7608,1.7608,1.7608,1.7608,1.7608,1.8461,2.0826,2.1132,2.1244,2.155,2.16,2.1626,2.1676,2.1676,2.2114,2.3135,2.3185,2.348,2.4147,2.445,2.4416,2.3962,2.4274,2.4436,2.4436,2.4459,2.4459,2.4469,2.4912,2.5121,0.671,0.7354,0.7965,0.8135,0.8789,0.9239,0.8742,0.8488,0.8115,0.7382,0.7441,0.7556,0.0,0.0,0.0,0.826,0.8634,0.0,0.8232,0.7964,0.0,0.892,0.0,0.9254,0.9754,0.9537,0.0,0.0,1.0621,1.1137,1.1137,1.1951,1.2553,1.2852,1.2852,1.2987,1.3285,1.4186,1.4186,1.3312,1.4186,1.4621,1.4621,1.4621,1.511,1.5891,1.5971,1.5639,1.5039,1.5114,1.476,1.4186,1.4266,1.4814,1.5601,1.5855,1.6366,1.6975,1.7226,1.743,1.7608,1.7608,1.7608,1.7608,1.7608,1.7608,1.7608,1.7608,1.7608,1.7608,1.7608,1.7608,1.7608,1.7608,1.7608,1.7608,1.7608,1.7608,1.7608,1.7608,1.7608,1.7608,1.7608,1.7608,1.7608,1.7608,1.7608,1.7838,1.8461,1.8729,1.9157,2.0033,2.0184,2.0526,2.1328,2.1226,2.1303,2.1785,2.1811,2.1988,2.2354,2.3192,2.3601,2.3492,2.4528,2.5078,2.5078,2.528,2.5376,2.5376,2.5493,2.5542,0.6179,0.6684,0.7194,0.7238,0.7656,0.7956,0.7585,0.7332,0.7088,0.67,0.6585,0.0,0.6696,0.7299,0.0,0.0,0.0,0.0,0.7634,0.7595,0.7775,0.0,0.8291,0.0,0.8685,0.8712,0.8768,0.0,0.9537,0.9915,0.9915,1.0515,1.1114,1.1651,1.1655,1.1896,1.239,1.3073,1.3073,1.2417,1.31,1.3403,1.3425,1.3948,1.4272,1.4395,0.0,1.4589,1.3631,1.3631,1.3356,1.2923,1.3021,1.348,1.4078,1.4368,1.4802,1.5242,1.5435,1.5914,1.6564,1.7213,1.751,1.7608,1.7608,1.7608,1.7608,1.7608,1.7608,1.7608,1.7608,1.7608,1.7608,1.7608,1.7608,1.7608,1.7608,1.7608,1.7608,1.7608,1.7608,1.7608,1.7608,1.7608,1.7608,1.7608,1.7608,1.7608,1.7608,1.772,1.8055,1.8662,1.8755,1.9016,1.9617,1.9539,1.972,2.0331,2.0382,2.0656,2.1312,2.203,2.2408,2.2408,2.3734,2.4495,2.4593,2.5226,2.5586,2.5693,2.5693,2.5693,0.6385,0.6418,0.6394,0.664,0.6598,0.6522,0.6545,0.6417,0.6315,0.6319,0.0,0.633,0.6518,0.6602,0.6717,0.6936,0.0,0.7189,0.7451,0.7489,0.7615,0.7904,0.7934,0.8072,0.8401,0.8484,0.8598,0.8826,0.8881,0.8912,0.8912,0.8912,0.9372,1.0429,1.0457,1.0945,1.1928,1.2091,1.2091,1.1928,1.2087,1.2168,1.22,1.3263,1.3263,1.2472,0.0,0.0,1.2168,1.2168,1.2091,1.1955,1.2186,1.2367,1.2556,1.2886,1.3075,1.3188,1.321,1.4003,1.5173,1.6471,1.7193,1.7562,1.7562,1.7582,1.7608,1.7608,1.7608,1.7608,1.7608,1.7608,1.7608,1.7608,1.7608,1.7608,1.7608,1.7608,1.7608,1.7608,1.7608,1.7608,1.7608,1.7608,1.7608,1.7608,1.7608,1.7608,1.7608,1.7608,1.7608,1.7608,1.7608,1.7608,1.7608,1.7608,1.7996,1.8916,1.8994,1.9435,2.0416,2.0826,2.103,2.103,2.2358,2.321,2.3592,2.4569,2.526,2.5645,2.5645,2.5669,0.598,0.6002,0.6021,0.6192,0.611,0.6087,0.6296,0.6088,0.0,0.0,0.5816,0.5673,0.5695,0.58,0.598,0.6222,0.6385,0.6564,0.6886,0.6933,0.7131,0.0,0.0,0.0,0.0,0.0,0.0,0.0,0.0,0.0,0.8912,0.8912,0.8992,0.921,0.921,0.932,0.9509,1.0511,1.0484,0.9509,1.0511,1.1,1.1,1.1219,1.171,1.2417,0.0,0.0,1.1,1.1,1.0402,0.9509,0.9565,1.0186,1.1105,1.1374,1.1951,1.2603,1.2805,1.3674,1.4739,1.5227,1.6225,1.7279,1.7279,1.743,1.7608,1.7608,1.7608,1.7608,1.7608,1.7608,1.7608,1.7608,1.7608,1.7608,1.7608,1.7608,1.7608,1.7608,1.7608,1.7608,1.7608,1.7608,1.7608,1.7608,1.7608,1.7608,1.7608,1.7608,1.7608,1.7608,1.7608,1.7608,1.7608,1.7608,1.7687,1.7865,1.7891,1.797,1.8146,1.9072,1.9557,1.9557,2.0946,2.2114,2.3035,2.3443,2.4239,2.5367,2.5367,2.5489,0.5871,0.595,0.6029,0.6175,0.6112,0.6029,0.6081,0.0,0.0,0.0,0.5563,0.5453,0.5497,0.5607,0.0,0.6048,0.6213,0.6396,0.6665,0.676,0.0,0.724,0.7343,0.0,0.0,0.0,0.0,0.0,0.0,0.0,0.8881,0.8912,0.8912,0.8912,0.8912,0.8912,0.8912,0.9482,0.9482,0.8912,0.9482,0.975,0.9778,1.0402,1.0648,1.0598,1.1246,0.0,0.975,0.975,0.9427,0.8912,0.8912,0.9265,0.9781,0.9915,1.0213,1.0598,1.0726,1.1565,1.2598,1.2733,1.4653,1.6981,1.7146,1.7279,1.743,1.7556,1.7608,1.7608,1.7608,1.7608,1.7608,1.7608,1.7608,1.7608,1.7608,1.7608,1.7608,1.7608,1.7608,1.7608,1.7608,1.7608,1.7608,1.7608,1.7608,1.7608,1.7608,1.7608,1.7608,1.7608,1.7608,1.7608,1.7608,1.7608,1.7608,1.7608,1.7608,1.7608,1.7608,1.8094,1.8382,1.8382,1.9591,2.0528,2.1185,2.2475,2.3493,2.4254,2.4824,2.5235,0.5866,0.5956,0.6045,0.6216,0.6142,0.5986,0.5888,0.5681,0.0,0.5475,0.5436,0.5419,0.5472,0.557,0.5719,0.0,0.6172,0.6344,0.6558,0.6725,0.6847,0.0,0.7114,0.0,0.0,0.0,0.0,0.0,0.0,0.0,0.8881,0.8912,0.8912,0.8912,0.8912,0.8912,0.8912,0.8912,0.8912,0.8912,0.8912,0.8912,0.8937,0.9888,0.9805,0.8964,0.9915,0.0,0.0,0.8946,0.8956,0.896,0.8994,0.9007,0.9007,0.9007,0.9007,0.9007,0.9007,0.9774,1.0789,1.0789,1.3269,1.6299,1.6551,1.6908,1.7226,1.7457,1.7556,1.7608,1.7608,1.7608,1.7608,1.7608,1.7608,1.7608,1.7608,1.7608,1.7608,1.7608,1.7608,1.7608,1.7608,1.7608,1.7608,1.7608,1.7608,1.7608,1.7608,1.7608,1.7608,1.7608,1.7608,1.7608,1.7608,1.7608,1.7608,1.7608,1.7608,1.7608,1.7608,1.7608,1.7608,1.7608,1.8434,1.9072,1.9531,2.149,2.2743,2.3235,2.4313,2.4956,0.5819,0.5813,0.5797,0.6045,0.5931,0.574,0.5729,0.0,0.5478,0.543,0.5398,0.5392,0.5403,0.5417,0.5537,0.0,0.6024,0.6222,0.6544,0.6725,0.6847,0.6972,0.0,0.0,0.0,0.0,0.0,0.0,0.0,0.0,0.0,0.8912,0.8912,0.8912,0.8912,0.8912,0.8912,0.8912,0.8912,0.8912,0.8912,0.8912,0.8912,0.902,0.8992,0.8912,0.0,0.0,0.0,0.9107,0.9162,0.9175,0.9315,0.934,0.934,0.934,0.934,0.934,0.934,1.0112,1.1052,1.1052,1.2748,1.4793,1.4819,1.5927,1.7206,1.7232,1.7404,1.7608,1.7608,1.7608,1.7608,1.7608,1.7608,1.7608,1.7608,1.7608,1.7608,1.7608,1.7608,1.7608,1.7608,1.7608,1.7608,1.7608,1.7608,1.7608,1.7608,1.7608,1.7608,1.7608,1.7608,1.7608,1.7608,1.7608,1.7608,1.7608,1.7608,1.7608,1.7608,1.7608,1.7608,1.7608,1.7714,1.8251,1.9254,2.0493,2.1709,2.296,2.4041,2.4686,0.5732,0.5746,0.5751,0.5934,0.583,0.5688,0.5688,0.0,0.5494,0.5467,0.542,0.5389,0.5389,0.5428,0.5548,0.5855,0.6005,0.6184,0.6444,0.6653,0.682,0.6869,0.0,0.0,0.0,0.0,0.0,0.0,0.0,0.0,0.0,0.8826,0.8912,0.8912,0.8912,0.8912,0.8912,0.8912,0.8912,0.8912,0.8912,0.8912,0.8912,0.8912,0.8912,0.8916,0.0,0.0,0.0,0.9257,0.9318,0.9325,0.9386,0.941,0.941,0.941,0.941,0.941,0.941,0.9697,1.0069,1.0069,1.1171,1.2786,1.4457,1.5596,1.6481,1.743,1.7906,1.813,1.813,1.813,1.8083,1.7876,1.7836,1.7809,1.7622,1.7608,1.7608,1.7608,1.7608,1.7608,1.7608,1.7608,1.7608,1.7608,1.7608,1.7608,1.7608,1.7608,1.7608,1.7608,1.7608,1.7608,1.7608,1.7608,1.7608,1.7608,1.7608,1.7608,1.7608,1.7608,1.7608,1.7608,1.7608,1.7812,1.8251,1.9332,2.0511,2.1709,2.2794,2.3786,0.5602,0.5637,0.5661,0.58,0.5743,0.5637,0.0,0.0,0.5508,0.5508,0.5461,0.5433,0.5398,0.5448,0.5572,0.5797,0.5986,0.6168,0.6377,0.662,0.6801,0.0,0.0,0.0,0.0,0.0,0.0,0.0,0.0,0.0,0.0,0.8629,0.8826,0.8885,0.8912,0.8912,0.8912,0.8912,0.8912,0.8912,0.8912,0.8912,0.8912,0.8912,0.8912,0.8919,0.0,0.0,0.0,0.9396,0.9449,0.9452,0.9496,0.951,0.951,0.951,0.951,0.951,0.951,0.951,0.951,0.951,1.0065,1.1141,1.3447,1.4813,1.5805,1.6999,1.7881,1.849,1.849,1.849,1.8437,1.8203,1.8083,1.7962,1.7769,1.7649,1.7608,1.7608,1.7608,1.7608,1.7608,1.7608,1.7608,1.7608,1.7608,1.7608,1.7608,1.7608,1.7608,1.7608,1.7608,1.7608,1.7608,1.7608,1.7608,1.7608,1.7608,1.7608,1.7608,1.7608,1.7608,1.7608,1.7608,1.7608,1.7608,1.8689,1.9617,2.0441,2.1827,2.3179,0.5478,0.5508,0.5537,0.5659,0.5599,0.5508,0.0,0.0,0.5508,0.5508,0.5505,0.547,0.5411,0.5448,0.5548,0.5672,0.5931,0.6168,0.6377,0.662,0.0,0.0,0.0,0.0,0.0,0.0,0.0,0.0,0.0,0.0,0.0,0.8322,0.8626,0.8881,0.8912,0.8912,0.8912,0.8912,0.8912,0.8912,0.8912,0.8912,0.8912,0.8912,0.8912,0.0,0.0,0.0,0.0,0.9483,0.9608,0.9622,0.9731,0.9785,0.9785,0.9785,0.9785,0.9785,0.9785,0.9785,0.9785,0.9785,0.9815,1.0058,1.1356,1.3362,1.5276,1.5631,1.7055,1.849,1.849,1.849,1.849,1.849,1.8236,1.7995,1.7989,1.7802,1.7608,1.7608,1.7608,1.7608,1.7608,1.7608,1.7608,1.7608,1.7608,1.7608,1.7608,1.7608,1.7608,1.7608,1.7608,1.7608,1.7608,1.7608,1.7608,1.7608,1.7608,1.7608,1.7608,1.7608,1.7608,1.7608,1.7608,1.7608,1.7608,1.8689,1.9202,1.928,2.1464,2.3113,0.5393,0.5426,0.5455,0.5534,0.5534,0.5529,0.5613,0.5632,0.5632,0.5632,0.5632,0.5591,0.5428,0.5537,0.5645,0.5683,0.5931,0.6168,0.0,0.0,0.0,0.0,0.0,0.0,0.0,0.0,0.0,0.0,0.0,0.0,0.0,0.7826,0.81,0.8598,0.8799,0.8912,0.8912,0.8912,0.8912,0.8912,0.8912,0.8912,0.8912,0.8912,0.0,0.0,0.0,0.0,0.0,0.9632,0.9724,0.9727,0.9771,0.9792,0.9792,0.9792,0.9792,0.9792,0.9792,0.9792,0.9792,0.9792,0.9792,0.9879,1.0274,1.1688,1.3565,1.5647,1.6848,1.7669,1.855,1.8935,1.9067,1.8838,1.8689,1.8509,1.8082,1.7942,1.7809,1.7648,1.7608,1.7608,1.7608,1.7608,1.7608,1.7608,1.7608,1.7608,1.7608,1.7608,1.7608,1.7608,1.7608,1.7608,1.7608,1.7608,1.7608,1.7608,1.7608,1.7608,1.7608,1.7608,1.7608,1.7608,1.7608,1.7608,1.7608,1.7943,1.848,1.9254,2.1472,2.2677,0.5288,0.5354,0.5408,0.5442,0.5475,0.0,0.0,0.5656,0.5688,0.5688,0.5688,0.5637,0.5436,0.5602,0.5759,0.5719,0.5969,0.0,0.0,0.0,0.0,0.0,0.0,0.0,0.0,0.0,0.0,0.0,0.0,0.0,0.0,0.0,0.7771,0.8156,0.8546,0.8799,0.8912,0.8912,0.8912,0.8912,0.8912,0.8912,0.8912,0.8912,0.0,0.0,0.0,0.0,0.0,0.97,0.9792,0.9792,0.9792,0.9792,0.9792,0.9792,0.9792,0.9792,0.9792,0.9792,0.9792,0.9792,0.9792,0.9792,0.9792,1.0929,1.2663,1.4955,1.5849,1.638,1.766,1.8227,1.8568,1.8838,1.8884,1.8796,1.8429,1.8149,1.7962,1.7769,1.7662,1.7608,1.7608,1.7608,1.7608,1.7608,1.7608,1.7608,1.7608,1.7608,1.7608,1.7608,1.7608,1.7608,1.7608,1.7608,1.7608,1.7608,1.7608,1.7608,1.7608,1.7608,1.7608,1.7608,1.7608,1.7608,1.7608,1.7608,1.8146,1.9228,2.0621,2.1497,0.0,0.5283,0.5378,0.5378,0.5447,0.5497,0.5505,0.5597,0.0,0.5688,0.5683,0.5632,0.5455,0.5667,0.586,0.5751,0.0,0.0,0.0,0.0,0.0,0.0,0.0,0.0,0.0,0.0,0.0,0.0,0.0,0.0,0.0,0.0,0.7579,0.7607,0.8156,0.8571,0.8881,0.8881,0.8912,0.8912,0.8912,0.8912,0.8912,0.8912,0.0,0.0,0.0,0.0,0.0,0.969,0.9781,0.9792,0.9792,0.9792,0.9792,0.9792,0.9792,0.9792,0.9792,0.9792,0.9792,0.9792,0.9792,0.9792,0.9792,1.0838,1.2303,1.3586,1.4183,1.4753,1.612,1.6709,1.7296,1.8577,1.8915,1.8895,1.8896,1.8469,1.8049,1.8029,1.7829,1.7642,1.7642,1.7622,1.7608,1.7608,1.7608,1.7608,1.7608,1.7608,1.7608,1.7608,1.7608,1.7608,1.7608,1.7608,1.7608,1.7608,1.7608,1.7608,1.7608,1.7608,1.7608,1.7608,1.7608,1.7608,1.7608,1.7608,1.8101,1.9098,1.915,1.9787,0.5031,0.0,0.525,0.525,0.5343,0.5436,0.0,0.5529,0.5575,0.5669,0.5615,0.5561,0.5618,0.5694,0.58,0.5977,0.0,0.0,0.0,0.0,0.0,0.0,0.0,0.0,0.0,0.0,0.0,0.0,0.0,0.0,0.0,0.0,0.7379,0.7607,0.7746,0.8076,0.8598,0.8799,0.8912,0.8912,0.8912,0.8912,0.8912,0.8912,0.0,0.0,0.0,0.0,0.9424,0.9581,0.9694,0.9792,0.9792,0.9792,0.9792,0.9792,0.9792,0.9792,0.9792,0.9792,0.9792,0.9792,0.9792,0.9792,0.9792,1.0058,1.063,1.1894,1.2517,1.3287,1.5518,1.6356,1.7009,1.8548,1.8916,1.8897,1.8915,1.8783,1.8623,1.843,1.8116,1.7909,1.7909,1.7742,1.7608,1.7608,1.7608,1.7608,1.7608,1.7608,1.7608,1.7608,1.7608,1.7608,1.7608,1.7608,1.7608,1.7608,1.7608,1.7608,1.7608,1.7608,1.7608,1.7608,1.7608,1.7608,1.7608,1.7608,1.7733,1.7996,1.8819,1.949,0.4998,0.5061,0.5108,0.5108,0.5217,0.5337,0.5439,0.5488,0.5543,0.5664,0.5594,0.5545,0.5667,0.5754,0.5849,0.0,0.6279,0.0,0.0,0.0,0.0,0.0,0.0,0.0,0.0,0.0,0.0,0.0,0.0,0.0,0.0,0.0,0.7268,0.741,0.7521,0.7826,0.8266,0.8574,0.8712,0.8712,0.8854,0.8912,0.8912,0.8912,0.0,0.0,0.0,0.0,0.9322,0.9517,0.9656,0.97,0.9765,0.9792,0.9792,0.9792,0.9792,0.9792,0.9792,0.9792,0.9792,0.9792,0.9792,0.9792,0.9792,0.9792,0.994,1.0634,1.0963,1.1555,1.3531,1.4718,1.576,1.7208,1.814,1.8726,1.8858,1.8783,1.8666,1.8689,1.845,1.8223,1.8223,1.811,1.7949,1.7816,1.7769,1.7742,1.7628,1.7608,1.7608,1.7608,1.7608,1.7608,1.7608,1.7608,1.7608,1.7608,1.7608,1.7608,1.7608,1.7608,1.7608,1.7608,1.7608,1.7608,1.7608,1.7722,1.7769,1.7796,1.8539,1.8987,0.4998,0.4998,0.4998,0.4998,0.5102,0.5239,0.5362,0.5442,0.5543,0.5664,0.5607,0.5578,0.574,0.5843,0.0,0.0,0.0,0.0,0.0,0.0,0.0,0.0,0.0,0.0,0.0,0.0,0.0,0.0,0.0,0.0,0.0,0.0,0.0,0.721,0.741,0.766,0.7878,0.8235,0.8457,0.8512,0.874,0.8854,0.8912,0.8912,0.8912,0.0,0.0,0.0,0.9228,0.9432,0.9568,0.9622,0.971,0.9771,0.9792,0.9792,0.9792,0.9792,0.9792,0.9792,0.9792,0.9792,0.9792,0.9792,0.9792,0.9792,0.9792,0.9792,0.9792,1.0092,1.136,1.2697,1.4063,1.54,1.6891,1.8146,1.8519,1.8535,1.8573,1.8906,1.8758,1.8557,1.8557,1.8517,1.8404,1.8129,1.8089,1.7976,1.7695,1.7655,1.7662,1.7615,1.7608,1.7608,1.7608,1.7608,1.7608,1.7608,1.7608,1.7608,1.7608,1.7608,1.7608,1.7608,1.7629,1.7655,1.7655,1.7936,1.8089,1.8096,1.837,1.8517,0.4998,0.4998,0.4998,0.4998,0.5102,0.5239,0.5362,0.5442,0.5543,0.5664,0.5675,0.5748,0.5991,0.6045,0.613,0.0,0.0,0.0,0.0,0.0,0.0,0.0,0.0,0.0,0.0,0.0,0.0,0.0,0.0,0.0,0.0,0.0,0.0,0.721,0.7238,0.7296,0.7321,0.7823,0.8211,0.8512,0.854,0.8685,0.8912,0.8912,0.8912,0.0,0.0,0.9042,0.9214,0.9233,0.9403,0.9612,0.9635,0.9687,0.9792,0.9792,0.9792,0.9792,0.9792,0.9792,0.9792,0.9792,0.9792,0.9792,0.9792,0.9792,0.9792,0.9792,0.9792,1.0092,1.136,1.1868,1.2462,1.4034,1.54,1.6532,1.7144,1.8096,1.8932,1.927,1.9058,1.883,1.883,1.8651,1.8477,1.843,1.8424,1.8317,1.7989,1.7949,1.7849,1.7609,1.7608,1.7608,1.7608,1.7608,1.7608,1.7608,1.7608,1.7608,1.7608,1.7608,1.7608,1.7608,1.7816,1.7949,1.7949,1.8249,1.8424,1.8424,1.847,1.8617,0.4998,0.4998,0.5012,0.5094,0.5148,0.5239,0.5362,0.5442,0.5559,0.5765,0.5754,0.5803,0.0,0.0,0.6206,0.655,0.0,0.0,0.0,0.0,0.0,0.0,0.0,0.0,0.0,0.0,0.0,0.0,0.0,0.0,0.0,0.0,0.0,0.0,0.721,0.721,0.721,0.7432,0.7712,0.802,0.8346,0.8571,0.8685,0.8826,0.8912,0.8912,0.0,0.895,0.9045,0.9148,0.9264,0.94,0.9452,0.9578,0.9717,0.9761,0.9792,0.9792,0.9792,0.9792,0.9792,0.9792,0.9792,0.9792,0.9792,0.9792,0.9792,0.9792,0.9792,0.994,1.0516,1.1178,1.1903,1.2642,1.38,1.5109,1.6444,1.7038,1.7747,1.9127,1.8992,1.8692,1.8858,1.881,1.8636,1.8485,1.8605,1.8617,1.8296,1.8263,1.8143,1.7836,1.7836,1.7762,1.7622,1.7608,1.7608,1.7608,1.7608,1.7649,1.7809,1.7829,1.7909,1.807,1.821,1.8263,1.8263,1.8584,1.8724,1.8731,1.8891,1.906,0.4998,0.4998,0.5025,0.5159,0.5228,0.528,0.5406,0.5486,0.5607,0.586,0.5832,0.5909,0.0,0.6263,0.0,0.0,0.0,0.0,0.0,0.0,0.0,0.0,0.0,0.0,0.0,0.0,0.0,0.0,0.0,0.0,0.0,0.0,0.0,0.0,0.721,0.721,0.721,0.721,0.7324,0.7607,0.8076,0.8374,0.8512,0.8712,0.8854,0.8912,0.8912,0.8912,0.8919,0.9055,0.9152,0.9221,0.9311,0.9442,0.9622,0.97,0.9761,0.9792,0.9792,0.9792,0.9792,0.9792,0.9792,0.9792,0.9792,0.9792,0.9792,0.9792,0.9792,0.9792,0.9792,1.0516,1.1269,1.1269,1.226,1.366,1.5168,1.5755,1.6532,1.8379,1.8538,1.848,1.8735,1.8794,1.8687,1.8438,1.8612,1.8719,1.8512,1.8473,1.8387,1.8129,1.8123,1.8002,1.7729,1.7682,1.7682,1.7682,1.7762,1.7896,1.8116,1.8116,1.8229,1.8484,1.8557,1.8591,1.8591,1.8885,1.9025,1.9032,1.9287,1.9395,0.4998,0.4998,0.5025,0.5159,0.5294,0.5408,0.5467,0.5588,0.5732,0.5877,0.5988,0.6126,0.0,0.6439,0.0,0.0,0.0,0.0,0.0,0.0,0.0,0.0,0.0,0.0,0.0,0.0,0.0,0.0,0.0,0.0,0.0,0.0,0.0,0.0,0.0,0.721,0.721,0.721,0.7324,0.7607,0.7635,0.7965,0.8512,0.8512,0.8654,0.8912,0.8912,0.8912,0.8912,0.8923,0.9032,0.921,0.9221,0.9379,0.9612,0.9622,0.9677,0.9792,0.9792,0.9792,0.9792,0.9792,0.9792,0.9792,0.9792,0.9792,0.9792,0.9792,0.9792,0.9792,0.9792,0.9883,0.994,0.994,1.0906,1.1959,1.2397,1.4356,1.6144,1.6626,1.7613,1.8421,1.8421,1.845,1.8444,1.8389,1.8419,1.8433,1.84,1.8418,1.8426,1.8463,1.8457,1.8333,1.7989,1.7962,1.7962,1.7962,1.8251,1.8437,1.8457,1.8457,1.847,1.849,1.8751,1.8863,1.8863,1.9192,1.9361,1.9368,1.9388,1.9395,0.4998,0.5069,0.5151,0.5291,0.539,0.5472,0.5497,0.5678,0.5874,0.5991,0.6137,0.6282,0.0,0.0,0.0,0.0,0.0,0.0,0.0,0.0,0.0,0.0,0.0,0.0,0.0,0.0,0.0,0.0,0.0,0.0,0.0,0.0,0.0,0.0,0.0,0.721,0.721,0.721,0.7238,0.7351,0.7521,0.7715,0.7965,0.8322,0.8543,0.8654,0.8826,0.8912,0.8912,0.8912,0.8943,0.9028,0.9145,0.9311,0.9479,0.9574,0.97,0.9792,0.9792,0.9792,0.9792,0.9792,0.9792,0.9792,0.9792,0.9792,0.9792,0.9792,0.9792,0.9792,0.9792,0.9792,0.9792,0.9792,1.0183,1.0846,1.1946,1.2787,1.371,1.5049,1.6037,1.6726,1.6891,1.759,1.8135,1.8135,1.8275,1.8406,1.8384,1.84,1.8355,1.8192,1.8004,1.7839,1.7693,1.7881,1.8069,1.8231,1.841,1.8571,1.8751,1.8764,1.8844,1.906,1.9174,1.9199,1.9199,1.9341,1.9395,1.9395,1.9395,1.9395,0.4998,0.5099,0.5237,0.5359,0.544,0.5526,0.5602,0.5765,0.595,0.6134,0.6263,0.6382,0.6558,0.0,0.0,0.0,0.0,0.0,0.0,0.0,0.0,0.0,0.0,0.0,0.0,0.0,0.0,0.0,0.0,0.0,0.0,0.0,0.0,0.0,0.0,0.0,0.721,0.721,0.721,0.721,0.7379,0.7521,0.7607,0.8017,0.8322,0.8512,0.8685,0.8826,0.8912,0.8912,0.8912,0.8919,0.9049,0.9237,0.9424,0.95,0.9656,0.9792,0.9792,0.9792,0.9792,0.9792,0.9792,0.9792,0.9792,0.9792,0.9792,0.9792,0.9792,0.9792,0.9792,0.9792,0.9792,0.9792,0.9792,1.0088,1.1197,1.1567,1.2079,1.3416,1.4733,1.554,1.5322,1.6703,1.7702,1.7309,1.7749,1.8158,1.8252,1.8275,1.8235,1.8132,1.7856,1.7657,1.7657,1.7862,1.8084,1.8272,1.8497,1.8766,1.9058,1.9065,1.9158,1.9395,1.9395,1.9395,1.9395,1.9395,1.9395,1.9395,1.9395,1.9395,0.4998,0.5099,0.5237,0.5359,0.5442,0.5572,0.585,0.5904,0.5975,0.6243,0.6361,0.645,0.6572,0.6719,0.0,0.0,0.0,0.0,0.0,0.0,0.0,0.0,0.0,0.0,0.0,0.0,0.0,0.0,0.0,0.0,0.0,0.0,0.0,0.0,0.0,0.0,0.721,0.721,0.721,0.721,0.721,0.7351,0.7607,0.7607,0.7937,0.8484,0.8484,0.8654,0.8881,0.8912,0.8912,0.8912,0.8912,0.9092,0.941,0.941,0.9568,0.9788,0.9792,0.9792,0.9792,0.9792,0.9792,0.9792,0.9792,0.9792,0.9792,0.9792,0.9792,0.9792,0.9792,0.9792,0.9792,0.9792,0.9792,0.9792,0.9792,1.0785,1.1692,1.1692,1.3784,1.5184,1.3934,1.5811,1.7067,1.5811,1.6703,1.7608,1.7937,1.8002,1.8112,1.8363,1.8135,1.8002,1.8002,1.8002,1.8002,1.8002,1.8567,1.9062,1.9395,1.9395,1.9395,1.9395,1.9395,1.9395,1.9395,1.9395,1.9395,1.9395,1.9395,1.9395,0.4998,0.5162,0.5346,0.5381,0.5586,0.5816,0.5996,0.6032,0.61,0.6336,0.6455,0.6577,0.6725,0.0,0.0,0.0,0.0,0.0,0.0,0.0,0.0,0.0,0.0,0.0,0.0,0.0,0.0,0.0,0.0,0.0,0.0,0.0,0.0,0.0,0.0,0.0,0.721,0.721,0.721,0.721,0.721,0.7238,0.7324,0.7521,0.769,0.7881,0.8322,0.854,0.8626,0.8826,0.8912,0.8912,0.8912,0.9055,0.9264,0.9369,0.9503,0.9686,0.9754,0.9792,0.9792,0.9792,0.9792,0.9792,0.9792,0.9792,0.9792,0.9792,0.9792,0.9792,0.9792,0.9792,0.9792,0.9792,0.9792,0.9792,0.9792,1.0092,1.0365,1.0365,1.1718,1.3036,1.3605,1.5065,1.6349,1.6856,1.7273,1.7543,1.7631,1.7667,1.7696,1.7749,1.769,1.7667,1.7667,1.7667,1.7755,1.8002,1.834,1.8706,1.9033,1.9272,1.9395,1.9395,1.9395,1.9395,1.9395,1.9395,1.9395,1.9395,1.9395,1.9395,0.4998,0.5189,0.5389,0.5389,0.5659,0.5947,0.6142,0.6192,0.6265,0.0,0.6507,0.6631,0.6779,0.0,0.0,0.0,0.0,0.0,0.0,0.0,0.0,0.0,0.0,0.0,0.0,0.0,0.0,0.0,0.0,0.0,0.0,0.0,0.0,0.0,0.0,0.0,0.721,0.721,0.721,0.721,0.721,0.721,0.721,0.7379,0.7493,0.7635,0.8239,0.8512,0.8512,0.8799,0.8912,0.8912,0.8912,0.9025,0.9221,0.9284,0.9425,0.9622,0.9677,0.9744,0.9792,0.9792,0.9792,0.9792,0.9792,0.9792,0.9792,0.9792,0.9792,0.9792,0.9792,0.9792,0.9792,0.9792,0.9792,0.9792,0.9792,0.9792,0.9792,0.9792,1.0815,1.1812,1.2105,1.4078,1.5693,1.5959,1.6856,1.7514,1.7514,1.7514,1.7514,1.7514,1.7514,1.7514,1.7514,1.7514,1.7602,1.7784,1.8188,1.8502,1.8677,1.9156,1.9395,1.9395,1.9395,1.9395,1.9395,1.9395,1.9395,1.9395,1.9395,1.9395,0.4998,0.5189,0.5389,0.5389,0.567,0.5983,0.6252,0.6363,0.6412,0.6412,0.0,0.6631,0.6779,0.0,0.0,0.0,0.0,0.0,0.0,0.0,0.0,0.0,0.0,0.0,0.0,0.0,0.0,0.0,0.0,0.0,0.0,0.0,0.0,0.0,0.0,0.0,0.721,0.721,0.721,0.0,0.721,0.721,0.721,0.721,0.7351,0.7635,0.8211,0.8484,0.8512,0.8799,0.8912,0.8912,0.8912,0.9018,0.9162,0.9204,0.9356,0.9571,0.9598,0.9693,0.9771,0.9788,0.9792,0.9792,0.9792,0.9792,0.9792,0.9792,0.9792,0.9792,0.9792,0.9792,0.9792,0.9792,0.9792,0.9792,0.9792,0.9792,0.9792,0.9792,1.0725,1.1209,1.0152,1.2907,1.4917,1.4023,1.593,1.7514,1.7514,1.7514,1.7514,1.7514,1.7514,1.7514,1.7514,1.7514,1.7514,1.7514,1.8041,1.8363,1.8392,1.9039,1.9395,1.9395,1.9395,1.9395,1.9395,1.9395,1.9395,1.9395,1.9395,1.9395,0.4998,0.5189,0.5389,0.5389,0.5733,0.6108,0.6322,0.6396,0.6412,0.6412,0.6507,0.6631,0.0,0.0,0.0,0.0,0.0,0.0,0.0,0.0,0.0,0.0,0.0,0.0,0.0,0.0,0.0,0.0,0.0,0.0,0.0,0.0,0.0,0.0,0.0,0.721,0.721,0.721,0.721,0.0,0.721,0.721,0.721,0.721,0.7351,0.7607,0.7962,0.8266,0.8512,0.8799,0.8912,0.8912,0.8912,0.8929,0.8998,0.9141,0.9223,0.9315,0.9527,0.9629,0.9673,0.9754,0.9792,0.9792,0.9792,0.9792,0.9792,0.9792,0.9792,0.9792,0.9792,0.9792,0.9792,0.9792,0.9792,0.9792,0.9792,0.9792,0.9792,0.9792,1.0031,1.0425,1.1178,1.1989,1.3126,1.4917,1.6496,1.7514,1.7514,1.7514,1.7514,1.7514,1.7514,1.7514,1.7514,1.7514,1.7514,1.7514,1.7872,1.8165,1.8392,1.9039,1.9395,1.9395,1.9395,1.9395,1.9395,1.9395,1.9395,1.9395,1.9395,1.9395,0.4998,0.5189,0.543,0.5602,0.588,0.6132,0.6314,0.6371,0.6412,0.6412,0.6507,0.0,0.0,0.0,0.0,0.0,0.0,0.0,0.0,0.0,0.0,0.0,0.0,0.0,0.0,0.0,0.0,0.0,0.0,0.0,0.0,0.0,0.0,0.0,0.721,0.721,0.721,0.721,0.721,0.721,0.721,0.721,0.721,0.721,0.7268,0.7438,0.7687,0.7989,0.8294,0.8571,0.8799,0.8912,0.8912,0.8912,0.8919,0.9022,0.9121,0.9231,0.9366,0.9486,0.9622,0.9696,0.9737,0.9792,0.9792,0.9792,0.9792,0.9792,0.9792,0.9792,0.9792,0.9792,0.9792,0.9792,0.9792,0.9792,0.9792,0.9792,0.9792,0.9792,0.9792,1.0004,1.0668,1.1838,1.3336,1.5302,1.6673,1.7514,1.7514,1.7514,1.7514,1.7514,1.7514,1.7514,1.7514,1.7514,1.7514,1.7514,1.782,1.8112,1.8392,1.8887,1.9243,1.9395,1.9395,1.9395,1.9395,1.9395,1.9395,1.9395,1.9395,1.9395,0.4998,0.5189,0.5477,0.5812,0.5996,0.6142,0.6265,0.6355,0.6412,0.6412,0.0,0.0,0.0,0.0,0.0,0.0,0.0,0.0,0.0,0.0,0.0,0.0,0.0,0.0,0.0,0.0,0.0,0.0,0.0,0.0,0.0,0.0,0.721,0.721,0.721,0.721,0.721,0.721,0.721,0.721,0.721,0.721,0.721,0.721,0.721,0.721,0.7493,0.7715,0.7962,0.8291,0.8543,0.8743,0.8743,0.8743,0.8743,0.8799,0.8928,0.9088,0.9172,0.9366,0.9574,0.9602,0.9703,0.9792,0.9792,0.9792,0.9792,0.9792,0.9792,0.9792,0.9792,0.9792,0.9792,0.9792,0.9792,0.9792,0.9792,0.9792,0.9792,0.9792,0.9792,0.9792,0.9792,1.1774,1.3784,1.5065,1.6349,1.7244,1.7485,1.7514,1.7514,1.7514,1.7514,1.7514,1.7514,1.7514,1.7514,1.7514,1.7755,1.8048,1.8392,1.8677,1.9004,1.9395,1.9395,1.9395,1.9395,1.9395,1.9395,1.9395,1.9395,1.9395,0.4998,0.5189,0.5477,0.5812,0.5996,0.6142,0.0,0.0,0.6412,0.0,0.0,0.0,0.0,0.0,0.0,0.0,0.0,0.0,0.0,0.0,0.0,0.0,0.0,0.0,0.0,0.0,0.0,0.0,0.0,0.0,0.0,0.721,0.721,0.721,0.721,0.721,0.721,0.721,0.721,0.721,0.721,0.721,0.721,0.721,0.721,0.721,0.7493,0.7635,0.7662,0.7962,0.81,0.8128,0.8128,0.8128,0.8156,0.846,0.858,0.8641,0.905,0.9294,0.9435,0.9564,0.9703,0.9792,0.9792,0.9792,0.9792,0.9792,0.9792,0.9792,0.9792,0.9792,0.9792,0.9792,0.9792,0.9792,0.9792,0.9792,0.9792,0.9792,0.9792,0.9792,0.9792,1.0997,1.241,1.3754,1.5035,1.626,1.7361,1.7514,1.7514,1.7514,1.7514,1.7514,1.7514,1.7514,1.7514,1.7514,1.7543,1.7807,1.8392,1.8444,1.8771,1.9395,1.9395,1.9395,1.9395,1.9395,1.9395,1.9395,1.9395,1.9395,0.5178,0.531,0.546,0.5733,0.5896,0.6015,0.6162,0.6257,0.6361,0.0,0.0,0.0,0.0,0.0,0.0,0.0,0.0,0.0,0.0,0.0,0.0,0.0,0.0,0.0,0.0,0.0,0.0,0.0,0.0,0.0,0.721,0.721,0.721,0.721,0.721,0.721,0.721,0.721,0.721,0.721,0.721,0.721,0.721,0.721,0.721,0.721,0.7324,0.7465,0.7607,0.7715,0.7851,0.7989,0.7989,0.7989,0.8017,0.8156,0.8346,0.8522,0.8723,0.9067,0.942,0.9459,0.9635,0.9792,0.9792,0.9792,0.9792,0.9792,0.9792,0.9792,0.9792,0.9792,0.9792,0.9792,0.9792,0.9792,0.9792,0.9792,0.9792,0.9792,0.9792,0.9792,0.9792,1.0846,1.2174,1.3485,1.4172,1.5243,1.7244,1.6885,1.6708,1.742,1.7514,1.7514,1.7514,1.7514,1.7514,1.7514,1.7514,1.7778,1.8392,1.8392,1.8719,1.9395,1.9395,1.9395,1.9395,1.9395,1.9395,1.9395,1.9395,1.9395,0.5324,0.5389,0.5449,0.5651,0.5794,0.5934,0.0,0.0,0.0,0.0,0.0,0.0,0.0,0.0,0.0,0.0,0.0,0.0,0.0,0.0,0.0,0.0,0.0,0.0,0.0,0.0,0.0,0.0,0.0,0.0,0.721,0.721,0.721,0.721,0.721,0.721,0.721,0.721,0.721,0.721,0.721,0.721,0.721,0.721,0.721,0.721,0.721,0.7324,0.7493,0.7493,0.7604,0.7795,0.7795,0.7795,0.7795,0.7881,0.8045,0.8297,0.8474,0.8874,0.9301,0.9425,0.9612,0.9792,0.9792,0.9792,0.9792,0.9792,0.9792,0.9792,0.9792,0.9792,0.9792,0.9792,0.9792,0.9792,0.9792,0.9792,0.9792,0.9792,0.9792,0.9792,0.9792,1.0604,1.1657,1.2976,1.3186,1.4108,1.6703,1.6201,1.6077,1.7361,1.7514,1.7514,1.7514,1.7514,1.7514,1.7514,1.7514,1.7749,1.8282,1.8363,1.8684,1.9272,1.9366,1.9395,1.9395,1.9395,1.9395,1.9395,1.9395,1.9395,0.5324,0.5389,0.5449,0.5651,0.5794,0.5934,0.0,0.0,0.0,0.0,0.0,0.0,0.0,0.0,0.0,0.0,0.0,0.0,0.0,0.0,0.0,0.0,0.0,0.0,0.0,0.0,0.0,0.0,0.0,0.0,0.721,0.721,0.721,0.721,0.721,0.721,0.721,0.721,0.721,0.721,0.721,0.721,0.721,0.721,0.721,0.721,0.721,0.721,0.721,0.721,0.7238,0.7238,0.7238,0.7238,0.7265,0.7521,0.7635,0.7736,0.8448,0.8791,0.9,0.9432,0.97,0.9792,0.9792,0.9792,0.9792,0.9792,0.9792,0.9792,0.9792,0.9792,0.9792,0.9792,0.9792,0.9792,0.9792,0.9792,0.9792,0.9792,0.9792,0.9792,0.9792,0.9852,1.0334,1.1601,1.1812,1.2736,1.5362,1.5634,1.6077,1.7361,1.7514,1.7514,1.7514,1.7514,1.7514,1.7514,1.7514,1.7667,1.7995,1.8252,1.8567,1.891,1.9243,1.9395,1.9395,1.9395,1.9395,1.9395,1.9395,1.9395,0.5228,0.5329,0.543,0.5553,0.5661,0.5803,0.5942,0.6088,0.0,0.0,0.0,0.0,0.0,0.0,0.0,0.0,0.0,0.0,0.0,0.0,0.0,0.0,0.0,0.0,0.0,0.0,0.0,0.0,0.0,0.0,0.721,0.721,0.721,0.721,0.721,0.721,0.721,0.721,0.721,0.721,0.721,0.721,0.721,0.721,0.721,0.721,0.721,0.721,0.721,0.721,0.721,0.721,0.721,0.721,0.721,0.7296,0.7465,0.768,0.826,0.8657,0.8971,0.9442,0.9703,0.9792,0.9792,0.9792,0.9792,0.9792,0.9792,0.9792,0.9792,0.9792,0.9792,0.9792,0.9792,0.9792,0.9792,0.9792,0.9792,0.9792,0.9792,0.9792,0.9792,0.9792,1.0243,1.1511,1.1692,1.2646,1.5273,1.5604,1.6077,1.7361,1.7514,1.7514,1.7514,1.7514,1.7514,1.7514,1.7514,1.7667,1.8002,1.8252,1.8561,1.8874,1.9243,1.9395,1.9395,1.9395,1.9395,1.9395,1.9395,1.9395,0.5145,0.0,0.0,0.0,0.5629,0.574,0.5877,0.0,0.0,0.0,0.0,0.0,0.0,0.0,0.0,0.0,0.0,0.0,0.0,0.0,0.0,0.0,0.0,0.0,0.0,0.0,0.0,0.0,0.0,0.0,0.721,0.721,0.721,0.721,0.721,0.721,0.721,0.721,0.721,0.721,0.721,0.721,0.721,0.721,0.721,0.721,0.721,0.721,0.721,0.721,0.721,0.721,0.721,0.721,0.721,0.721,0.7324,0.7547,0.8028,0.8378,0.8686,0.9288,0.9563,0.964,0.9761,0.9792,0.9792,0.9792,0.9792,0.9792,0.9792,0.9792,0.9792,0.9792,0.9792,0.9792,0.9792,0.9792,0.9792,0.9792,0.9792,0.9792,0.9792,0.9792,1.0092,1.0936,1.1057,1.2015,1.4619,1.4946,1.5604,1.7332,1.7436,1.7381,1.7381,1.7267,1.7219,1.7219,1.7219,1.7377,1.7678,1.8056,1.8407,1.8729,1.9156,1.9395,1.9395,1.9395,1.9395,1.9395,1.9395,1.9395,0.0,0.0,0.0,0.0,0.0,0.0,0.5874,0.0,0.0,0.0,0.0,0.0,0.0,0.0,0.0,0.0,0.0,0.0,0.0,0.0,0.0,0.0,0.0,0.0,0.0,0.0,0.0,0.0,0.0,0.721,0.721,0.721,0.721,0.721,0.721,0.721,0.721,0.721,0.721,0.721,0.721,0.721,0.721,0.721,0.721,0.721,0.721,0.721,0.721,0.721,0.721,0.721,0.721,0.721,0.721,0.721,0.721,0.7273,0.7806,0.8011,0.814,0.9004,0.9305,0.9366,0.97,0.9792,0.9792,0.9792,0.9792,0.9792,0.9792,0.9792,0.9792,0.9792,0.9792,0.9792,0.9792,0.9792,0.9792,0.9792,0.9792,0.9792,0.9792,0.9792,0.9792,0.9792,0.9819,1.0785,1.3306,1.3695,1.4708,1.7173,1.7243,1.7086,1.708,1.6845,1.67,1.67,1.67,1.6815,1.7068,1.7653,1.8094,1.836,1.9013,1.9368,1.9368,1.9388,1.9395,1.9395,1.9395,1.9395,0.5121,0.0,0.0,0.0,0.0,0.0,0.0,0.0,0.0,0.0,0.0,0.0,0.0,0.0,0.0,0.0,0.0,0.0,0.0,0.0,0.0,0.0,0.0,0.0,0.0,0.0,0.0,0.0,0.721,0.721,0.721,0.721,0.721,0.721,0.721,0.721,0.721,0.721,0.721,0.721,0.721,0.721,0.721,0.721,0.721,0.721,0.721,0.721,0.721,0.721,0.721,0.721,0.721,0.721,0.721,0.721,0.721,0.7273,0.7806,0.8011,0.8111,0.8793,0.9156,0.9308,0.9396,0.9609,0.9792,0.9792,0.9792,0.9792,0.9792,0.9792,0.9792,0.9792,0.9792,0.9792,0.9792,0.9792,0.9792,0.9792,0.9792,0.9792,0.9792,0.9792,0.9792,0.9792,1.0573,1.145,1.2169,1.3904,1.5268,1.578,1.6581,1.7014,1.6827,1.6742,1.67,1.67,1.67,1.673,1.6803,1.7197,1.746,1.7528,1.8127,1.8471,1.8471,1.9101,1.9395,1.9395,1.9395,1.9395,0.0,0.0,0.0,0.0,0.0,0.0,0.5688,0.5762,0.0,0.0,0.0,0.0,0.0,0.0,0.0,0.0,0.0,0.0,0.0,0.0,0.0,0.0,0.0,0.0,0.0,0.0,0.0,0.0,0.7155,0.721,0.721,0.721,0.721,0.721,0.721,0.721,0.721,0.721,0.721,0.721,0.721,0.721,0.721,0.721,0.721,0.721,0.721,0.721,0.721,0.721,0.721,0.721,0.721,0.721,0.721,0.721,0.721,0.7245,0.7662,0.7778,0.7879,0.8497,0.8793,0.8973,0.9217,0.9427,0.9609,0.9761,0.9792,0.9792,0.9792,0.9792,0.9792,0.9792,0.9792,0.9792,0.9792,0.9792,0.9792,0.9792,0.9792,0.9792,0.9792,0.9792,0.9792,0.9792,1.0425,1.1088,1.1631,1.3036,1.4296,1.5106,1.5771,1.6243,1.6521,1.6423,1.6362,1.6362,1.6362,1.641,1.6519,1.6864,1.708,1.7192,1.7672,1.7894,1.7901,1.8781,1.9274,1.9395,1.9395,1.9395,0.0,0.0,0.0,0.0,0.0,0.0,0.5688,0.5688,0.574,0.0,0.0,0.0,0.0,0.0,0.0,0.0,0.0,0.0,0.0,0.0,0.0,0.0,0.0,0.0,0.0,0.6817,0.6956,0.701,0.7119,0.721,0.721,0.721,0.721,0.721,0.721,0.721,0.721,0.721,0.721,0.721,0.721,0.721,0.721,0.721,0.721,0.721,0.721,0.721,0.721,0.721,0.721,0.721,0.721,0.721,0.721,0.721,0.721,0.7218,0.7434,0.7489,0.7589,0.8164,0.8369,0.8522,0.9095,0.9278,0.9366,0.97,0.9792,0.9792,0.9792,0.9792,0.9792,0.9792,0.9792,0.9792,0.9792,0.9792,0.9792,0.9792,0.9792,0.9792,0.9792,0.9792,0.9792,0.9792,0.9792,1.0213,1.1329,1.1601,1.2478,1.4542,1.477,1.5132,1.5986,1.597,1.5891,1.5891,1.5891,1.6021,1.6257,1.6547,1.6801,1.7043,1.7333,1.7491,1.755,1.8394,1.8954,1.9265,1.9301,1.9301,0.0,0.0,0.0,0.0,0.0,0.0,0.5688,0.5688,0.5716,0.0,0.0,0.0,0.0,0.0,0.0,0.0,0.0,0.0,0.0,0.0,0.0,0.0,0.0,0.0,0.0,0.6636,0.6774,0.6997,0.7119,0.721,0.721,0.721,0.721,0.721,0.721,0.721,0.721,0.721,0.721,0.721,0.721,0.721,0.721,0.721,0.721,0.721,0.721,0.721,0.721,0.721,0.721,0.721,0.721,0.721,0.721,0.721,0.721,0.7218,0.7434,0.7489,0.7559,0.7887,0.8183,0.8461,0.8854,0.9126,0.9366,0.97,0.9792,0.9792,0.9792,0.9792,0.9792,0.9792,0.9792,0.9792,0.9792,0.9792,0.9792,0.9792,0.9792,0.9792,0.9792,0.9792,0.9792,0.9792,0.9792,0.9879,1.0152,1.1057,1.1745,1.188,1.364,1.4758,1.4624,1.5407,1.5891,1.5891,1.5891,1.591,1.5991,1.605,1.6101,1.6156,1.6431,1.6779,1.7266,1.7947,1.829,1.8371,1.8574,1.8692,0.0,0.0,0.0,0.5466,0.0,0.0,0.0,0.5688,0.5688,0.0,0.0,0.0,0.0,0.0,0.0,0.0,0.0,0.0,0.0,0.0,0.0,0.0,0.0,0.0,0.0,0.6558,0.6719,0.6967,0.7065,0.7122,0.7207,0.721,0.721,0.721,0.721,0.721,0.721,0.721,0.721,0.721,0.721,0.721,0.721,0.721,0.721,0.721,0.721,0.721,0.721,0.721,0.721,0.721,0.721,0.721,0.721,0.721,0.721,0.7209,0.7364,0.7438,0.7519,0.7728,0.8071,0.8461,0.8793,0.9217,0.9579,0.9761,0.9792,0.9792,0.9792,0.9792,0.9792,0.9792,0.9792,0.9792,0.9792,0.9792,0.9792,0.9792,0.9792,0.9792,0.9792,0.9792,0.9792,0.9792,0.9792,0.9792,0.9792,1.0906,1.1554,1.1141,1.3326,1.4648,1.4234,1.5244,1.5891,1.5891,1.5891,1.5891,1.5891,1.5891,1.5891,1.5891,1.6025,1.6252,1.6543,1.699,1.7507,1.8117,1.8373,1.849,0.0,0.0,0.0,0.0,0.0,0.5488,0.0,0.0,0.0,0.0,0.0,0.0,0.0,0.0,0.0,0.0,0.0,0.0,0.0,0.0,0.0,0.0,0.0,0.0,0.0,0.6523,0.6711,0.6934,0.6972,0.7062,0.7204,0.721,0.721,0.721,0.721,0.721,0.721,0.721,0.721,0.721,0.721,0.721,0.721,0.721,0.721,0.721,0.721,0.721,0.721,0.721,0.721,0.721,0.721,0.721,0.721,0.721,0.721,0.7198,0.7265,0.737,0.7479,0.7655,0.8054,0.8552,0.8885,0.9369,0.9792,0.9792,0.9792,0.9792,0.9792,0.9792,0.9792,0.9792,0.9792,0.9792,0.9792,0.9792,0.9792,0.9792,0.9792,0.9792,0.9792,0.9792,0.9792,0.9792,0.9792,0.9792,0.9792,1.0906,1.1481,1.087,1.3003,1.429,1.3913,1.4918,1.5678,1.5891,1.5891,1.5891,1.5891,1.5891,1.5891,1.5891,1.5891,1.5891,1.5891,1.6164,1.6823,1.7836,1.8124,1.8289,0.0,0.0,0.0,0.0,0.4456,0.0,0.0,0.0,0.0,0.0,0.0,0.0,0.0,0.0,0.0,0.0,0.0,0.0,0.0,0.0,0.0,0.0,0.0,0.0,0.0,0.0,0.665,0.6812,0.6923,0.7062,0.7204,0.721,0.721,0.721,0.721,0.721,0.721,0.721,0.721,0.721,0.721,0.721,0.721,0.721,0.721,0.721,0.721,0.721,0.721,0.721,0.721,0.721,0.721,0.721,0.721,0.721,0.721,0.7198,0.7265,0.7316,0.7365,0.7627,0.8232,0.8885,0.9186,0.9518,0.9792,0.9792,0.9792,0.9792,0.9792,0.9792,0.9792,0.9792,0.9792,0.9792,0.9792,0.9792,0.9792,0.9792,0.9792,0.9792,0.9792,0.9792,0.9792,0.9792,0.9792,0.9792,0.9792,1.0906,1.1199,0.9895,1.1827,1.3088,1.2798,1.3766,1.4815,1.5838,1.5891,1.5891,1.5891,1.5891,1.5891,1.5891,1.5891,1.5891,1.5891,1.6164,1.6482,1.6885,1.7191,1.7483,0.0,0.0,0.0,0.0,0.0,0.0,0.0,0.0,0.5688,0.0,0.0,0.0,0.0,0.0,0.0,0.0,0.0,0.0,0.0,0.0,0.0,0.0,0.0,0.0,0.0,0.0,0.0,0.0,0.0,0.6931,0.7078,0.7147,0.721,0.721,0.721,0.721,0.721,0.721,0.721,0.721,0.721,0.721,0.721,0.721,0.721,0.721,0.721,0.721,0.721,0.721,0.721,0.721,0.721,0.721,0.721,0.721,0.721,0.7218,0.7242,0.7277,0.7375,0.7826,0.8363,0.8841,0.9191,0.9548,0.9792,0.9792,0.9792,0.9792,0.9792,0.9792,0.9792,0.9792,0.9792,0.9792,0.9792,0.9792,0.9792,0.9792,0.9792,0.9792,0.9792,0.9792,0.9792,0.9792,0.9792,0.9792,0.9792,1.0906,1.1147,0.9744,1.2269,1.3658,1.2692,1.4184,1.5378,1.5865,1.5891,1.5891,1.5891,1.5891,1.5891,1.5891,1.5891,1.5891,1.5891,1.5998,1.6211,1.6477,1.6961,1.7252,0.0841,0.0,0.0,0.0,0.0,0.0,0.0,0.0,0.0,0.0,0.0,0.0,0.0,0.0,0.0,0.0,0.0,0.0,0.0,0.0,0.0,0.0,0.0,0.0,0.0,0.0,0.0,0.0,0.6733,0.6855,0.7005,0.7119,0.721,0.721,0.721,0.721,0.721,0.721,0.721,0.721,0.721,0.721,0.721,0.721,0.721,0.721,0.721,0.721,0.721,0.721,0.721,0.721,0.721,0.721,0.721,0.721,0.721,0.721,0.721,0.7233,0.7398,0.7963,0.8382,0.8764,0.9172,0.9548,0.9792,0.9792,0.9792,0.9792,0.9792,0.9792,0.9792,0.9792,0.9792,0.9792,0.9792,0.9792,0.9792,0.9792,0.9792,0.9792,0.9792,0.9792,0.9792,0.9792,0.9792,0.9792,0.9792,1.0906,1.1166,0.9796,1.2199,1.3573,1.2744,1.4111,1.526,1.5871,1.5891,1.5891,1.5891,1.5891,1.5891,1.5891,1.5891,1.5891,1.5891,1.5891,1.5998,1.6191,1.6722,1.704,0.0,0.0,0.0,0.1219,0.0,0.0,0.0,0.0,0.604,0.0,0.0,0.0,0.0,0.0,0.0,0.0,0.0,0.0,0.0,0.0,0.0,0.0,0.0,0.0,0.0,0.0,0.0,0.6582,0.6733,0.6855,0.7005,0.7119,0.721,0.721,0.721,0.721,0.721,0.721,0.721,0.721,0.721,0.721,0.721,0.721,0.721,0.721,0.721,0.721,0.721,0.721,0.721,0.721,0.721,0.721,0.721,0.721,0.721,0.721,0.721,0.7233,0.7384,0.7858,0.8307,0.8764,0.9172,0.9548,0.9792,0.9792,0.9792,0.9792,0.9792,0.9792,0.9792,0.9792,0.9792,0.9792,0.9792,0.9792,0.9792,0.9792,0.9792,0.9792,0.9792,0.9792,0.9792,0.9792,0.9792,0.9792,0.9792,1.0906,1.1205,0.9937,1.0863,1.1949,1.2813,1.2782,1.3627,1.577,1.5891,1.5891,1.5891,1.5891,1.5891,1.5891,1.5891,1.5891,1.5891,1.5891,1.5891,1.5918,1.6191,1.6643,0.0,0.0,0.0075,0.0397,0.0,0.0,0.0,0.0,0.0,0.0,0.0,0.0,0.0,0.0,0.0,0.0,0.0,0.0,0.0,0.0,0.0,0.0,0.0,0.0,0.0,0.0,0.0,0.6469,0.6585,0.6736,0.0,0.7005,0.7103,0.7207,0.721,0.721,0.721,0.721,0.721,0.721,0.721,0.721,0.721,0.721,0.721,0.721,0.721,0.721,0.721,0.721,0.721,0.721,0.721,0.721,0.721,0.721,0.721,0.721,0.721,0.7209,0.7278,0.7566,0.807,0.8614,0.8935,0.94,0.9792,0.9792,0.9792,0.9792,0.9792,0.9792,0.9792,0.9792,0.9792,0.9792,0.9792,0.9792,0.9792,0.9792,0.9792,0.9792,0.9792,0.9792,0.9792,0.9792,0.9792,0.9792,0.9792,1.0183,1.0274,0.9852,1.0752,1.1779,1.2822,1.4051,1.511,1.5838,1.5891,1.5891,1.5891,1.5891,1.5891,1.5891,1.5891,1.5891,1.5891,1.5891,1.5891,1.5891,1.5998,1.6244,0.0,0.0,0.0,0.0,0.1249,0.0,0.2498,0.0,0.0,0.0,0.0,0.0,0.0,0.0,0.0,0.0,0.0,0.0,0.0,0.0,0.0,0.0,0.0,0.0,0.0,0.0,0.6412,0.6412,0.6525,0.6647,0.0,0.0,0.6431,0.6566,0.6568,0.6568,0.6568,0.6988,0.721,0.721,0.721,0.721,0.721,0.721,0.721,0.721,0.721,0.721,0.721,0.721,0.721,0.721,0.721,0.721,0.721,0.721,0.721,0.721,0.721,0.7209,0.7252,0.7453,0.7985,0.8617,0.8848,0.9308,0.9792,0.9792,0.9792,0.9792,0.9792,0.9792,0.9792,0.9792,0.9792,0.9792,0.9792,0.9792,0.9792,0.9792,0.9792,0.9792,0.9792,0.9792,0.9792,0.9792,0.9792,0.9792,0.9792,0.9792,0.9792,0.9792,1.0388,1.135,1.2769,1.4415,1.5525,1.5871,1.5891,1.5891,1.5891,1.5891,1.5982,1.6175,1.6085,1.6085,1.6175,1.6079,1.5982,1.5891,1.5891,1.5998]},{"header":{"parameterUnit":"m.s-1","parameterCategory":1,"la1":30.6,"la2":29.2853,"lo1":-89.7004,"lo2":-87.6739,"dy":0.0162,"dx":0.0183,"nx":112,"ny":82,"refTime":"2023-03-26T06:00:00:Z","depth":0,"parameterNumber":3,"parameterNumberName":"V-component_of_WINDS"},"data":[0.0,0.0,0.0,0.0,0.0,0.0,0.0,0.0,0.0,0.0,0.0,0.0,0.0,0.0,0.0,0.0,0.0,0.0,0.0,0.0,0.0,0.0,0.0,0.0,0.0,0.0,0.0,0.0,0.0,0.0,0.0,0.0,0.0,0.0,0.0,0.0,0.0,0.0,0.0,0.0,0.0,0.0,0.0,0.0,0.0,0.0,0.0,0.0,0.0,0.0,0.0,0.0,0.0,0.0,0.0,0.0,0.0,0.0,0.0,0.0,0.0,0.0,0.0,0.0,0.0,0.0,0.0,0.0,0.0,0.0,0.0,0.0,0.0,0.0,0.0,0.0,0.0,0.0,0.0,0.0,0.0,0.0,0.0,0.0,0.0,0.0,0.0,0.0,0.0,0.0,0.0,2.1994,2.2498,2.2838,2.2838,2.3306,2.3595,2.3595,0.0,0.0,0.0,0.0,0.0,0.0,0.0,0.0,0.0,0.0,0.0,0.0,0.0,0.0,0.0,0.0,0.0,0.0,0.0,0.0,0.0,0.0,0.0,0.0,0.0,0.0,0.0,0.0,0.0,0.0,0.0,0.0,0.0,0.0,0.0,0.0,0.0,0.0,0.0,0.0,0.0,0.0,0.0,0.0,0.0,0.0,0.0,0.0,0.0,0.0,0.0,0.0,0.0,0.0,0.0,0.0,0.0,0.0,0.0,0.0,0.0,0.0,0.0,0.0,0.0,0.0,0.0,0.0,0.0,0.0,0.0,0.0,0.0,0.0,0.0,0.0,0.0,0.0,0.0,0.0,0.0,0.0,0.0,0.0,0.0,0.0,0.0,0.0,0.0,0.0,0.0,0.0,0.0,0.0,0.0,0.0,0.0,0.0,0.0,0.0,0.0,0.0,0.0,0.0,2.331,2.331,2.34,2.346,2.346,2.355,2.3595,2.3595,0.0,0.0,0.0,0.0,0.0,0.0,0.0,0.0,0.0,0.0,0.0,0.0,0.0,0.0,0.0,0.0,0.0,0.0,0.0,0.0,0.0,0.0,0.0,0.0,0.0,0.0,0.0,0.0,0.0,0.0,0.0,0.0,0.0,0.0,0.0,0.0,0.0,0.0,0.0,0.0,0.0,0.0,0.0,0.0,0.0,0.0,0.0,0.0,0.0,0.0,0.0,0.0,0.0,0.0,0.0,0.0,0.0,0.0,0.0,0.0,0.0,0.0,0.0,0.0,0.0,0.0,0.0,0.0,0.0,0.0,0.0,0.0,0.0,0.0,0.0,0.0,0.0,0.0,0.0,0.0,0.0,0.0,0.0,0.0,0.0,0.0,0.0,0.0,0.0,0.0,0.0,0.0,0.0,0.0,0.0,0.0,0.0,0.0,0.0,0.0,0.0,0.0,0.0,2.343,2.3595,2.3595,2.3595,2.3595,2.3595,2.3595,2.3595,2.3595,2.3336,0.0,0.0,0.0,0.0,0.0,0.0,0.0,0.0,0.0,0.0,0.0,0.0,0.0,0.0,0.0,0.0,0.0,0.0,0.0,0.0,0.0,0.0,0.0,0.0,0.0,0.0,0.0,0.0,0.0,0.0,0.0,0.0,0.0,0.0,0.0,0.0,0.0,0.0,0.0,0.0,0.0,0.0,0.0,0.0,0.0,0.0,0.0,0.0,0.0,0.0,0.0,0.0,0.0,0.0,0.0,0.0,0.0,0.0,0.0,0.0,0.0,0.0,0.0,0.0,0.0,0.0,0.0,0.0,0.0,0.0,0.0,0.0,0.0,0.0,0.0,0.0,0.0,0.0,0.0,0.0,0.0,0.0,0.0,0.0,0.0,0.0,0.0,0.0,0.0,0.0,0.0,0.0,0.0,0.0,0.0,0.0,0.0,0.0,0.0,0.0,0.0,0.0,2.3595,2.3595,2.3595,2.3595,2.3595,2.3595,2.3595,2.3595,2.3595,2.3595,0.0,0.0,0.0,0.0,0.0,0.0,0.0,0.0,0.0,0.0,0.0,0.0,0.0,0.0,0.0,0.0,0.0,0.0,0.0,0.0,0.0,0.0,0.0,0.0,0.0,0.0,0.0,0.0,0.0,0.0,0.0,0.0,0.0,0.0,0.0,0.0,0.0,0.0,0.0,0.0,0.0,0.0,0.0,0.0,0.0,0.0,0.0,0.0,0.0,0.0,0.0,0.0,0.0,0.0,0.0,0.0,0.0,0.0,0.0,0.0,0.0,0.0,0.0,0.0,0.0,0.0,0.0,0.0,0.0,0.0,0.0,0.0,0.0,0.0,0.0,0.0,0.0,0.0,0.0,0.0,0.0,0.0,0.0,0.0,0.0,0.0,0.0,0.0,0.0,0.0,0.0,0.0,0.0,0.0,0.0,0.0,0.0,0.0,0.0,0.0,0.0,0.0,2.3595,2.3595,2.3595,2.3595,2.3595,2.3595,2.3595,2.3595,2.3595,2.3595,0.0,0.0,0.0,0.0,0.0,0.0,0.0,0.0,0.0,0.0,0.0,0.0,0.0,0.0,0.0,0.0,0.0,0.0,0.0,0.0,0.0,0.0,0.0,0.0,0.0,0.0,0.0,0.0,0.0,0.0,0.0,0.0,0.0,0.0,0.0,0.0,0.0,0.0,0.0,0.0,0.0,0.0,0.0,0.0,0.0,0.0,0.0,0.0,0.0,0.0,0.0,0.0,0.0,0.0,0.0,0.0,0.0,0.0,0.0,0.0,0.0,0.0,0.0,0.0,0.0,0.0,0.0,0.0,0.0,0.0,0.0,0.0,0.0,0.0,0.0,0.0,0.0,0.0,0.0,0.0,0.0,0.0,0.0,0.0,0.0,0.0,0.0,0.0,0.0,0.0,0.0,0.0,0.0,0.0,0.0,0.0,0.0,0.0,0.0,0.0,0.0,0.0,2.3958,2.4216,0.0,2.4601,2.4987,2.5323,2.4915,2.4672,2.473,0.0,0.0,0.0,0.0,0.0,0.0,0.0,0.0,0.0,0.0,0.0,0.0,0.0,0.0,0.0,0.0,0.0,0.0,0.0,0.0,0.0,0.0,0.0,0.0,0.0,0.0,0.0,0.0,0.0,0.0,0.0,0.0,0.0,0.0,0.0,0.0,0.0,0.0,0.0,0.0,0.0,0.0,0.0,0.0,0.0,0.0,0.0,0.0,0.0,0.0,0.0,0.0,0.0,0.0,0.0,0.0,0.0,0.0,0.0,0.0,0.0,0.0,0.0,0.0,0.0,0.0,0.0,0.0,0.0,0.0,0.0,0.0,0.0,0.0,0.0,0.0,0.0,0.0,0.0,0.0,0.0,0.0,0.0,0.0,0.0,0.0,0.0,0.0,0.0,0.0,0.0,0.0,0.0,0.0,0.0,0.0,0.0,0.0,0.0,0.0,0.0,0.0,2.3883,2.4321,2.4683,0.0,2.5334,2.5763,2.6176,2.587,2.5608,2.5531,0.0,0.0,0.0,0.0,0.0,0.0,0.0,0.0,0.0,0.0,0.0,0.0,0.0,0.0,0.0,0.0,0.0,0.0,0.0,0.0,0.0,0.0,0.0,0.0,0.0,0.0,0.0,0.0,0.0,0.0,0.0,0.0,0.0,0.0,0.0,0.0,0.0,0.0,0.0,0.0,0.0,0.0,0.0,0.0,0.0,0.0,0.0,0.0,0.0,0.0,0.0,0.0,0.0,0.0,0.0,0.0,0.0,0.0,0.0,0.0,0.0,0.0,0.0,0.0,0.0,0.0,0.0,0.0,0.0,0.0,0.0,0.0,0.0,0.0,0.0,0.0,0.0,0.0,0.0,0.0,0.0,0.0,0.0,0.0,0.0,0.0,0.0,0.0,0.0,0.0,0.0,0.0,0.0,0.0,0.0,0.0,0.0,0.0,0.0,0.0,0.0,0.0,2.4541,2.4631,2.4885,2.5566,2.5626,2.5711,2.5821,2.6202,2.6244,0.0,0.0,0.0,0.0,0.0,0.0,0.0,0.0,0.0,0.0,0.0,0.0,0.0,0.0,0.0,0.0,0.0,0.0,0.0,0.0,0.0,0.0,0.0,0.0,0.0,0.0,0.0,0.0,0.0,0.0,0.0,0.0,0.0,0.0,0.0,0.0,0.0,0.0,0.0,0.0,0.0,0.0,0.0,0.0,0.0,0.0,0.0,0.0,0.0,0.0,0.0,0.0,0.0,0.0,0.0,0.0,0.0,0.0,0.0,0.0,0.0,0.0,0.0,0.0,0.0,0.0,0.0,0.0,0.0,0.0,0.0,0.0,0.0,0.0,0.0,0.0,0.0,0.0,0.0,0.0,0.0,0.0,0.0,0.0,0.0,0.0,0.0,0.0,0.0,0.0,0.0,0.0,0.0,0.0,0.0,0.0,0.0,0.0,0.0,0.0,0.0,0.0,0.0,2.5843,2.6576,2.7145,2.7337,2.7789,2.8219,2.8588,2.8252,2.7846,2.7454,0.0,0.0,0.0,0.0,0.0,0.0,0.0,0.0,0.0,0.0,0.0,0.0,0.0,0.0,0.0,0.0,0.0,0.0,0.0,0.0,0.0,0.0,0.0,0.0,0.0,0.0,0.0,0.0,0.0,0.0,0.0,0.0,0.0,0.0,0.0,0.0,0.0,0.0,0.0,0.0,0.0,0.0,0.0,0.0,0.0,0.0,0.0,0.0,0.0,0.0,0.0,0.0,0.0,0.0,0.0,0.0,0.0,0.0,0.0,0.0,0.0,0.0,0.0,0.0,0.0,0.0,0.0,0.0,0.0,0.0,0.0,0.0,0.0,0.0,0.0,0.0,0.0,0.0,0.0,0.0,0.0,0.0,0.0,0.0,0.0,0.0,0.0,0.0,0.0,0.0,0.0,0.0,0.0,0.0,0.0,0.0,0.0,0.0,0.0,0.0,0.0,0.0,2.6797,2.7597,2.8259,2.8578,2.898,2.9355,2.9689,2.941,2.9049,2.8643,0.0,0.0,0.0,0.0,0.0,0.0,0.0,0.0,0.0,0.0,0.0,0.0,0.0,0.0,0.0,0.0,0.0,0.0,0.0,0.0,0.0,0.0,0.0,0.0,0.0,0.0,0.0,0.0,0.0,0.0,0.0,0.0,0.0,0.0,0.0,0.0,0.0,0.0,0.0,0.0,0.0,0.0,0.0,0.0,0.0,0.0,0.0,0.0,0.0,0.0,0.0,0.0,0.0,0.0,0.0,0.0,0.0,0.0,0.0,0.0,0.0,0.0,0.0,0.0,0.0,0.0,0.0,0.0,0.0,0.0,0.0,0.0,0.0,0.0,0.0,0.0,0.0,0.0,0.0,0.0,0.0,0.0,0.0,0.0,0.0,0.0,0.0,0.0,0.0,0.0,0.0,0.0,0.0,0.0,0.0,0.0,0.0,0.0,0.0,0.0,0.0,0.0,2.7553,2.8112,2.8703,2.9443,2.9518,2.9574,2.9706,2.9941,2.9913,2.9485,0.0,0.0,0.0,0.0,0.0,0.0,0.0,0.0,0.0,0.0,0.0,0.0,0.0,0.0,0.0,0.0,0.0,0.0,0.0,0.0,0.0,0.0,0.0,0.0,0.0,0.0,0.0,0.0,0.0,0.0,0.0,0.0,0.0,0.0,0.0,0.0,0.0,0.0,0.0,0.0,0.0,0.0,0.0,0.0,0.0,0.0,0.0,0.0,0.0,0.0,0.0,0.0,0.0,0.0,0.0,0.0,0.0,0.0,0.0,0.0,2.8538,0.0,0.0,0.0,0.0,0.0,0.0,0.0,0.0,0.0,0.0,0.0,0.0,0.0,0.0,0.0,0.0,0.0,0.0,0.0,0.0,0.0,0.0,0.0,0.0,0.0,0.0,0.0,0.0,0.0,0.0,0.0,0.0,0.0,0.0,0.0,0.0,0.0,0.0,0.0,0.0,0.0,2.8741,2.9583,3.0234,3.0393,3.042,3.0489,3.0613,3.0681,3.0483,2.9984,0.0,0.0,0.0,0.0,0.0,0.0,0.0,0.0,0.0,0.0,0.0,0.0,0.0,0.0,0.0,0.0,0.0,0.0,0.0,0.0,0.0,0.0,0.0,0.0,0.0,0.0,0.0,0.0,0.0,0.0,0.0,0.0,0.0,0.0,0.0,0.0,0.0,0.0,0.0,0.0,0.0,0.0,0.0,0.0,0.0,0.0,0.0,0.0,0.0,0.0,0.0,0.0,0.0,0.0,0.0,0.0,0.0,0.0,0.0,0.0,0.0,2.8993,0.0,0.0,0.0,0.0,0.0,0.0,0.0,0.0,0.0,0.0,0.0,0.0,0.0,0.0,0.0,0.0,0.0,0.0,0.0,0.0,0.0,0.0,0.0,0.0,0.0,0.0,0.0,0.0,0.0,0.0,0.0,0.0,0.0,0.0,0.0,0.0,0.0,0.0,0.0,0.0,2.9579,3.0309,3.0865,3.0925,3.0942,3.0972,3.1042,3.0992,3.0834,3.0555,3.0267,0.0,0.0,0.0,0.0,0.0,0.0,0.0,0.0,0.0,0.0,0.0,0.0,0.0,0.0,0.0,0.0,0.0,0.0,0.0,0.0,0.0,0.0,0.0,0.0,0.0,0.0,0.0,0.0,0.0,0.0,0.0,0.0,0.0,0.0,0.0,0.0,0.0,0.0,0.0,0.0,0.0,0.0,0.0,0.0,0.0,0.0,0.0,0.0,0.0,0.0,0.0,0.0,0.0,0.0,2.9961,3.0441,3.056,3.0876,3.1275,3.0,2.9445,2.9428,0.0,0.0,0.0,0.0,0.0,0.0,0.0,0.0,0.0,0.0,0.0,0.0,0.0,0.0,0.0,0.0,0.0,0.0,0.0,0.0,0.0,0.0,0.0,0.0,0.0,3.0669,3.0721,0.0,0.0,0.0,0.0,0.0,0.0,0.0,0.0,0.0,0.0,0.0,0.0,3.0091,3.0744,3.122,3.1347,3.1492,3.1519,3.1403,3.1287,3.117,3.1042,3.0576,3.024,0.0,0.0,0.0,0.0,0.0,0.0,0.0,0.0,0.0,0.0,0.0,0.0,0.0,0.0,0.0,0.0,0.0,0.0,0.0,0.0,0.0,0.0,0.0,0.0,0.0,0.0,0.0,0.0,0.0,0.0,0.0,0.0,3.0136,3.0136,0.0,0.0,0.0,0.0,0.0,0.0,0.0,0.0,0.0,0.0,0.0,0.0,0.0,0.0,3.1217,3.1217,3.1217,3.1217,3.1268,3.1339,3.1423,3.1425,3.1493,3.156,3.1285,0.0,3.1153,3.1042,0.0,0.0,0.0,0.0,0.0,0.0,0.0,0.0,0.0,0.0,0.0,0.0,0.0,0.0,0.0,0.0,0.0,0.0,0.0,0.0,0.0,0.0,3.1171,3.1092,3.1121,3.1127,0.0,3.0416,2.9966,3.0011,0.0,0.0,0.0,0.0,0.0,0.0,0.0,0.0,3.0102,3.1197,3.1968,3.1978,3.2601,3.2788,3.2198,3.2138,3.1857,3.1205,3.1102,3.0828,3.0309,3.0198,0.0,0.0,0.0,0.0,0.0,0.0,0.0,0.0,0.0,0.0,0.0,0.0,0.0,0.0,0.0,0.0,0.0,0.0,0.0,0.0,0.0,0.0,0.0,0.0,0.0,0.0,0.0,0.0,0.0,2.9988,3.0216,3.0218,3.0491,3.0602,0.0,0.0,0.0,0.0,0.0,0.0,0.0,0.0,0.0,3.1984,3.2179,3.2279,3.2279,3.2735,3.2958,3.2958,3.2989,3.298,3.2904,3.2962,3.2953,3.2904,3.2941,3.2958,3.2879,3.1842,3.1361,3.1295,0.0,0.0,0.0,0.0,0.0,3.12,3.12,0.0,0.0,0.0,0.0,0.0,0.0,0.0,0.0,0.0,0.0,0.0,0.0,0.0,0.0,3.2341,3.2442,3.2442,3.2442,3.2181,3.1704,0.0,3.0658,3.0528,3.0341,0.0,0.0,0.0,0.0,0.0,3.1853,3.2435,3.2826,3.2826,3.3147,3.3235,3.2933,3.2926,3.278,3.2459,3.2046,3.1692,3.1424,3.0702,3.0059,0.0,0.0,0.0,0.0,0.0,0.0,0.0,0.0,0.0,0.0,0.0,0.0,0.0,0.0,0.0,0.0,0.0,0.0,0.0,0.0,0.0,0.0,0.0,0.0,0.0,0.0,0.0,0.0,3.0727,3.0834,3.0836,3.1375,3.1616,0.0,0.0,0.0,0.0,0.0,0.0,3.2599,3.2642,3.2747,3.2906,3.3288,3.3493,3.3493,3.4085,3.4351,3.4262,3.4262,3.4155,3.395,3.4046,3.4046,3.395,3.4056,3.4076,3.395,3.265,3.2054,3.1961,3.2052,3.2032,3.1939,3.191,3.1858,3.1815,3.1759,3.1765,3.1765,3.1765,0.0,3.1765,3.1765,0.0,0.0,0.0,0.0,3.1894,3.2435,0.0,3.2723,3.3271,3.3396,3.3396,3.3396,3.3396,3.3085,0.0,3.1678,3.1618,3.1618,0.0,0.0,0.0,0.0,3.2624,3.3246,3.3522,3.3677,3.3677,3.3852,3.3886,3.3694,3.3677,3.3609,3.3413,3.2892,3.2571,3.2571,3.1439,3.0731,3.0583,0.0,0.0,0.0,0.0,0.0,0.0,0.0,0.0,0.0,0.0,0.0,0.0,0.0,0.0,0.0,0.0,0.0,0.0,0.0,0.0,0.0,0.0,0.0,0.0,0.0,0.0,0.0,0.0,0.0,3.3135,3.3171,0.0,0.0,0.0,0.0,3.2747,3.3458,3.3761,3.3371,3.441,3.4897,3.4585,3.4906,3.5087,3.5087,3.5123,3.4986,3.4671,3.4671,3.4474,3.4086,3.4103,3.4103,3.4086,3.4103,3.4027,3.3892,3.3814,3.3769,3.3759,3.372,3.368,3.3669,3.354,3.3471,3.3468,3.3336,3.3288,3.3288,3.3288,3.3288,3.3288,3.3288,3.3288,0.0,0.0,3.3288,3.3294,3.3339,3.3339,3.3345,3.3379,3.3396,3.3396,3.3396,3.3396,3.3379,0.0,3.3277,3.3277,3.3277,0.0,3.3218,3.3313,3.3284,3.3279,3.3375,3.4015,3.4449,3.4449,3.507,3.5205,3.4489,3.4449,3.415,3.3429,3.3362,3.3339,3.3339,3.2618,3.1932,3.1352,3.0628,0.0,0.0,0.0,0.0,0.0,0.0,0.0,0.0,0.0,0.0,0.0,0.0,0.0,0.0,0.0,0.0,0.0,0.0,0.0,0.0,0.0,0.0,0.0,0.0,0.0,0.0,0.0,0.0,3.2991,3.3635,0.0,3.3603,3.4243,3.4579,3.4352,3.4808,3.5025,3.4887,3.5073,3.5234,3.5344,3.5753,3.6228,3.6746,3.7211,3.7657,3.8043,3.8043,3.7967,3.7823,3.7823,3.7823,3.7823,3.7823,3.7803,3.7756,3.7756,3.6242,3.391,3.3974,3.3937,3.3856,3.3799,3.3714,3.3618,3.3632,3.3549,3.3396,3.3396,3.3448,3.3517,3.3427,3.3396,3.3396,3.3396,3.3396,3.3497,3.3981,3.4117,3.4235,3.4698,3.4833,3.4833,3.4833,3.4833,3.4833,3.4833,3.4055,3.3396,3.3396,3.3381,3.3522,3.4021,3.4084,3.4259,3.4754,3.5053,3.5205,3.5205,3.543,3.5481,3.5222,3.5205,3.5103,3.4822,3.437,3.4117,3.4117,3.3406,3.2917,3.2683,3.2431,3.1571,0.0,0.0,0.0,0.0,0.0,0.0,0.0,0.0,0.0,0.0,0.0,0.0,0.0,0.0,0.0,0.0,0.0,0.0,0.0,0.0,0.0,0.0,0.0,0.0,0.0,0.0,3.3619,3.3394,3.441,3.4968,3.4603,3.5375,3.5802,3.559,3.6033,3.6375,3.6504,3.6686,3.6957,3.7301,3.7754,3.8245,3.8786,3.9265,3.9716,4.01,4.01,4.0024,3.99,3.99,3.99,3.99,3.99,3.99,3.99,3.99,3.8325,3.5928,3.6015,3.6005,3.5918,3.5879,3.5695,3.5441,3.5356,3.5008,3.4658,3.4658,3.451,3.4328,3.4242,3.4172,3.414,3.414,3.414,3.4258,3.4731,3.4878,3.4996,3.5481,3.56,3.56,3.56,3.56,3.56,3.56,3.4816,3.414,3.414,3.414,3.4309,3.481,3.4878,3.5053,3.5532,3.56,3.56,3.56,3.56,3.56,3.56,3.56,3.56,3.56,3.5137,3.4878,3.4878,3.4167,3.3778,3.3778,3.3541,3.2683,3.1165,0.0,0.0,0.0,0.0,0.0,0.0,0.0,0.0,0.0,0.0,0.0,0.0,0.0,0.0,0.0,0.0,0.0,0.0,0.0,0.0,0.0,0.0,0.0,3.3974,3.4258,3.4564,3.4564,3.5605,3.6194,3.5833,3.6178,3.642,3.645,3.7173,3.7788,3.8171,3.9303,4.0121,4.0509,4.0892,4.1122,4.114,4.114,4.0956,4.0591,4.0591,4.0384,4.001,4.001,4.001,4.001,4.001,4.001,4.001,4.001,4.001,3.9992,3.9928,3.99,3.9873,3.9741,3.9469,3.9045,3.8522,3.7826,3.7182,3.7171,3.6614,3.5929,3.5929,3.5813,3.5712,3.5712,3.569,3.5678,3.5678,3.5678,3.5667,3.5667,3.5667,3.5667,3.5667,3.5667,3.5667,3.5667,3.5667,3.5667,3.5633,3.5633,3.5661,3.5667,3.5667,0.0,3.5667,3.5667,3.565,3.5633,3.5633,3.5616,3.56,3.56,3.56,3.56,3.56,3.56,3.56,3.4912,3.4533,3.4533,3.3791,3.3119,3.2529,0.0,0.0,0.0,0.0,0.0,0.0,0.0,0.0,0.0,0.0,0.0,0.0,0.0,0.0,0.0,0.0,0.0,0.0,0.0,0.0,0.0,0.0,3.5158,3.487,3.5425,3.5882,3.5882,3.6644,3.7363,3.7822,3.8496,3.9148,3.9745,3.9984,4.0164,4.0276,4.0596,4.0824,4.0926,4.1036,4.1379,4.1966,4.1966,4.2199,4.2689,4.2689,4.2619,4.2512,4.2512,4.2512,4.2512,4.2512,4.2512,4.2512,4.2512,4.2512,4.2331,4.0586,3.99,3.99,3.9854,3.9784,3.9647,3.9344,3.9193,3.9118,3.8958,3.878,3.8606,3.8563,3.829,3.7986,3.7986,3.7717,3.7414,3.7414,3.735,3.7268,3.7268,3.7268,3.7268,3.7268,3.7268,3.7268,3.7268,3.7268,3.711,3.6564,3.6479,3.6654,3.7183,0.0,0.0,3.7268,3.7268,3.706,3.653,3.6479,3.6231,3.5661,3.56,3.56,0.0,3.56,3.56,3.56,3.5408,3.5306,3.5306,3.4136,3.3454,0.0,0.0,0.0,0.0,0.0,0.0,0.0,0.0,0.0,0.0,0.0,0.0,0.0,0.0,0.0,0.0,0.0,0.0,0.0,0.0,0.0,0.0,3.6113,3.6446,3.6745,3.6881,3.7067,3.7399,3.8125,3.8913,3.976,4.0257,4.0701,4.1105,4.1142,4.1291,4.158,4.1599,4.1764,4.2084,4.2424,4.2828,4.3305,4.3644,4.403,4.4516,4.4516,4.4516,4.4516,4.4516,4.4516,0.0,4.4516,4.4516,4.4516,4.4516,4.4516,0.0,0.0,0.0,0.0,0.0,4.1153,4.1105,4.0804,4.056,4.0372,4.0273,3.9994,3.9692,3.9643,3.9431,3.9161,3.895,3.867,3.8442,3.8402,3.834,3.8259,3.8213,3.8184,3.8143,3.7941,3.7893,3.7893,3.7893,0.0,0.0,3.7731,3.7461,3.7398,3.7838,3.7893,3.7893,0.0,3.7893,3.7736,3.7308,3.7257,3.7077,3.6608,3.6558,0.0,0.0,0.0,3.6422,3.6129,3.578,0.0,0.0,0.0,3.4441,0.0,0.0,0.0,0.0,3.2122,3.139,0.0,0.0,0.0,0.0,0.0,0.0,0.0,0.0,0.0,0.0,0.0,0.0,0.0,0.0,0.0,0.0,3.7382,3.8238,3.9036,3.8576,3.8396,3.911,3.9823,4.0598,4.1456,4.1548,4.1509,4.1496,4.1553,4.1881,4.2542,0.0,0.0,0.0,0.0,4.4847,4.4847,4.5535,4.5902,4.5902,4.5902,4.5902,4.5902,4.5902,4.5902,4.5902,4.5902,4.5902,4.5902,4.5902,4.5902,4.5755,4.4332,4.3763,4.3719,4.3269,4.3102,0.0,0.0,0.0,0.0,4.1377,4.0818,4.0134,4.0134,4.0065,3.9895,3.9476,3.9297,3.924,3.9184,3.9151,3.9107,3.8991,3.8924,3.8756,3.8351,3.8202,3.8171,3.8171,3.8159,3.8362,3.9005,3.8514,3.8058,3.8142,3.8147,0.0,3.8147,3.8147,3.8125,3.8041,0.0,0.0,3.7922,3.7893,3.7893,3.7893,3.7893,3.7601,3.6953,3.6236,3.5853,3.5853,3.5853,3.5819,3.5746,3.5746,3.5746,3.569,3.3207,3.2002,0.0,0.0,0.0,0.0,0.0,0.0,0.0,0.0,0.0,0.0,0.0,0.0,0.0,0.0,0.0,3.7489,3.8319,3.9143,4.0016,4.054,4.0874,4.0993,4.108,4.1474,4.2287,4.2369,4.263,4.3244,4.3796,4.4169,4.4318,4.4882,0.0,4.5433,4.559,4.5663,4.5663,4.581,4.5902,4.5902,0.0,0.0,4.5902,4.5902,4.5902,4.5902,4.5902,4.5902,4.5902,4.5902,4.5902,4.5865,4.5553,4.5443,4.5351,4.4628,4.4354,4.4254,4.3514,4.3167,4.3048,4.3048,4.2912,4.2775,4.2775,4.2523,0.0,4.2156,4.1784,4.1399,4.1378,4.1294,4.1209,4.1198,4.0882,4.0585,4.0499,4.0139,3.9843,3.9843,3.9752,3.9711,3.9846,3.9288,3.9,3.9576,3.966,3.966,3.966,3.966,3.944,3.8853,3.8797,3.8548,3.7944,3.7893,3.7893,3.7893,3.7893,3.7838,3.7702,3.7538,3.7454,3.7454,3.7454,3.7161,3.6564,3.6564,3.6564,3.6547,3.5373,3.4542,0.0,0.0,0.0,0.0,0.0,0.0,0.0,0.0,0.0,0.0,0.0,3.621,0.0,0.0,3.7714,3.8941,3.9498,4.0185,4.143,4.1943,4.2188,4.215,4.2112,4.2423,4.3227,4.3709,4.4093,4.4424,4.5141,4.5533,4.5508,4.5851,4.6046,4.6046,4.6415,4.6608,4.6608,4.6939,4.7095,4.7095,4.7095,4.7095,4.7095,4.7095,4.7095,4.7095,4.7095,4.7095,4.7095,4.7095,4.7095,4.7095,4.7095,4.6617,4.5847,4.5461,4.5296,4.5232,4.4837,4.4699,4.4699,4.4699,4.4699,4.4699,4.4699,4.4565,4.4353,4.4155,4.3884,4.3627,4.3576,4.3496,4.3434,4.3374,4.3166,4.2939,4.2695,4.2205,4.1798,4.1798,4.1478,4.12,4.12,4.0578,4.0087,4.01,4.0096,4.0096,4.0096,4.0096,3.996,3.9592,3.9542,3.9406,3.9022,3.9,3.9,3.9,3.865,3.8447,3.8447,3.8108,3.7893,3.7893,3.7893,3.7719,3.7359,3.7359,3.7359,3.733,3.6941,3.6575,0.0,0.0,0.0,0.0,0.0,0.0,0.0,0.0,3.5727,3.5727,3.6377,3.7139,3.7789,3.8179,3.8829,4.0185,4.0668,4.1319,4.2612,4.2927,4.302,4.302,4.302,4.3355,4.4172,4.4886,4.5318,4.5375,4.6109,4.653,4.648,4.661,4.6666,4.6666,4.7232,4.7555,4.7528,4.806,4.8334,4.8296,4.8296,4.8296,4.8296,4.8296,4.8296,4.8296,4.8296,4.8296,4.8296,4.8296,4.8296,4.8296,4.8296,4.7517,4.6342,4.6195,4.614,4.6104,4.5957,4.5902,4.5902,4.5902,4.5902,4.5902,4.5902,4.5902,4.5819,4.5518,4.5421,4.5383,4.5276,4.5256,4.5236,4.5112,4.5031,4.4877,4.45,4.3943,4.3515,4.3515,4.3069,4.2668,4.2668,4.21,4.1342,4.0447,4.0185,4.0096,4.0096,4.0096,4.0096,4.0096,4.0096,4.0096,4.0096,4.0096,4.0096,4.0096,3.9542,3.922,3.922,3.8633,3.8328,3.8328,3.8328,3.8261,3.8113,3.8113,3.8113,3.8113,3.8113,3.8041,3.4203,3.4203,3.4389,3.5151,3.5355,3.5541,0.0,0.0,3.6563,3.6563,3.7213,3.7789,3.7882,3.9126,4.0185,4.0371,4.1597,4.2593,4.276,4.3429,4.3875,4.3875,4.3875,4.4209,4.5072,4.5239,4.5584,4.63,4.7023,4.7453,4.7444,4.8013,4.8338,4.8338,4.8402,4.8421,4.8365,4.8439,4.8428,4.8296,4.8296,4.8296,4.8296,4.8296,4.8296,4.8296,4.8296,4.8296,4.8296,4.8296,4.8296,4.8296,4.8296,4.8186,4.7929,4.7232,4.6966,4.6856,4.6159,4.5902,4.5902,4.5902,4.5902,4.5902,4.5902,4.5902,4.5893,4.5856,4.5819,4.5819,4.581,4.581,4.5801,4.5792,4.5519,4.5244,4.5194,4.4699,4.4274,4.4274,4.4129,4.3976,4.3976,4.357,4.2755,4.1303,4.0523,4.0096,4.0096,4.0096,4.0096,4.0096,4.0096,4.0096,4.0096,4.0096,4.0096,4.0096,4.0028,3.9977,3.9977,3.991,3.9846,3.9846,3.9846,3.9525,3.8882,3.8882,3.8882,3.8882,3.8882,3.8531,3.4859,3.4965,0.0,0.0,3.6191,3.6284,3.6618,3.7064,3.7399,3.7399,3.8042,3.8748,3.9257,3.9925,4.0706,0.0,4.2359,4.3014,4.3634,4.4314,4.4808,4.4916,4.5238,4.5417,4.5313,4.6149,4.6828,4.7163,4.7927,4.8355,4.8355,4.8609,4.8776,4.8776,4.8741,4.8669,4.8569,4.8522,4.8438,4.8296,4.8296,4.8343,4.8419,4.8419,4.8419,4.8401,4.8325,4.8296,4.8296,4.8296,4.8296,4.8296,4.8296,4.8296,4.826,4.7911,4.7801,4.7746,4.7407,4.7297,4.7297,4.7297,4.7297,4.7297,4.7297,4.7297,4.7297,4.7297,4.7297,4.7297,4.7297,4.7297,4.7297,4.7297,4.7173,4.7039,4.7039,4.6556,4.6158,4.6158,4.5793,4.548,4.548,4.4958,4.4337,4.3683,4.2391,4.1499,4.1499,4.1421,4.1386,4.1386,4.1386,4.1217,4.0781,4.073,4.0557,4.013,4.0096,4.0096,4.0096,4.0096,4.0096,4.0096,4.0096,3.996,3.9643,3.9643,3.9643,3.9643,3.9643,3.9474,3.541,0.0,0.0,3.6842,3.7027,3.7083,3.7306,3.7807,3.8255,3.8335,3.894,3.9668,4.0365,4.0793,4.1449,4.2612,4.3048,4.3516,4.4287,4.5045,4.5544,4.5582,4.6389,4.6674,4.6027,4.7014,4.7794,4.8017,4.8574,4.8909,4.8909,4.8909,4.8909,4.8909,4.8848,4.8768,4.866,4.8615,4.8522,4.8392,4.8392,4.8429,4.8532,4.8532,4.8532,4.8522,4.8401,4.8363,4.8353,4.8316,4.8296,4.8296,4.8296,4.8296,4.8296,4.8296,4.8296,4.8296,4.8296,4.8296,4.8296,4.8296,4.8296,4.8296,4.8296,4.8296,4.8296,4.8296,4.8296,4.8296,4.8296,4.8296,4.8296,4.8296,4.8296,4.8296,4.8296,4.7957,4.7645,4.7645,4.7259,4.6914,4.6914,4.6364,4.5922,4.5922,4.4644,4.3438,4.2847,4.2533,4.2339,4.23,4.23,4.2066,4.1542,4.1508,4.1271,4.0743,4.0709,4.0608,4.0405,4.0405,4.0303,4.0096,4.0096,4.0096,4.0096,4.0096,4.0096,4.0096,4.0303,4.0405,0.0,0.0,3.7108,3.7713,3.7863,3.8061,3.8841,3.9045,3.9146,3.9402,3.9938,4.0419,4.0651,4.1803,4.2742,4.2797,4.3679,4.4364,4.439,4.5374,4.5962,4.5632,4.7053,4.7944,0.0,4.7664,4.8017,4.8797,4.889,4.8909,4.8909,4.8909,4.8909,4.8909,4.89,4.8856,4.8796,4.8787,4.8723,4.8587,4.8587,4.8587,4.8587,4.8587,4.8587,4.8587,4.8513,4.8485,4.8476,4.8363,4.8296,4.8296,4.8296,4.8296,4.8296,4.8296,4.8296,4.8296,4.8296,4.8296,4.8296,4.8296,4.8296,4.8296,4.8296,4.8296,4.8296,4.8296,4.8296,4.8296,4.8296,4.8296,4.8296,4.8296,4.8296,4.8296,4.8296,4.8287,4.8277,4.8277,4.8258,4.8239,4.8239,4.7848,4.7533,4.7533,4.6988,4.5811,4.3748,4.2897,4.2441,4.2313,4.23,4.23,4.2266,4.2266,4.2266,4.2232,4.2232,4.1914,4.1204,4.117,4.0832,4.0113,4.0096,4.0096,4.0096,4.0096,4.0096,4.013,4.0832,4.117,0.0,0.0,3.79,3.806,3.8392,3.8803,3.9256,3.9369,3.9433,3.9654,4.0316,4.1059,4.166,4.2483,4.3301,4.401,4.4283,4.474,4.5656,4.6423,4.7132,4.7782,4.8678,0.0,0.0,0.0,0.0,4.9214,4.9241,4.9241,4.9241,4.9018,4.8909,4.8909,4.8909,4.8865,4.8796,4.8796,4.8732,4.8596,4.8697,4.8732,4.8732,4.8732,4.8732,4.8723,4.8605,4.8541,4.8503,4.8447,4.8382,4.8296,4.8296,4.8296,4.8296,4.8296,4.8296,4.8296,4.8296,4.8296,4.8296,4.8296,4.8296,4.8296,4.8296,4.8296,4.8296,4.8296,4.8296,4.8296,4.8296,4.8296,4.8296,4.8296,4.8296,4.8296,4.8296,4.8296,4.8296,4.8296,4.8296,4.8296,4.8296,4.8172,4.7965,4.7643,4.7093,4.6389,4.554,4.5187,4.4875,4.447,4.4448,4.415,4.3304,4.3306,4.3099,4.2462,4.2428,4.2274,4.1931,4.1931,4.1809,4.1555,4.1555,4.1555,4.1555,4.1555,4.1555,4.1572,4.1809,4.1931,0.0,3.8157,3.8566,3.8723,3.9051,3.9402,3.9567,3.9609,3.966,3.9896,4.0558,4.1374,4.2281,4.2917,4.3636,4.4637,4.4739,4.5103,4.632,4.7138,4.7943,4.8884,4.9555,4.9916,0.0,0.0,0.0,4.9551,4.9544,4.9544,4.9544,4.9335,4.9171,4.9086,4.9077,4.8993,4.884,4.884,4.8795,4.8714,4.8795,4.884,4.884,4.884,4.884,4.884,4.8723,4.8642,4.8597,4.856,4.8476,4.8392,4.8391,4.8372,4.8372,4.8316,4.8296,4.8296,4.8296,4.8296,4.8296,4.8296,4.8296,4.8296,4.8296,4.8296,4.8296,4.8296,4.8296,4.8296,4.8296,4.8296,4.8296,4.8296,4.8296,4.8296,4.8296,4.8296,4.8296,4.8296,4.8296,4.8296,4.8296,4.8296,4.8191,4.7897,4.7517,4.7097,4.6583,4.6472,4.6281,4.587,4.5868,4.555,4.4725,4.4742,4.4453,4.37,4.364,4.3407,4.2883,4.283,4.2667,4.2379,4.2326,4.23,4.23,4.23,4.23,4.2317,4.2574,4.2692,3.8547,3.8799,3.9104,3.963,3.9781,3.9813,3.9824,3.9824,3.9893,4.0163,4.0703,4.145,0.0,0.0,4.3802,4.4647,4.5014,4.5522,4.6466,4.7477,4.8342,0.0,0.0,0.0,0.0,0.0,0.0,4.987,0.0,4.9811,4.9811,4.9817,4.9679,4.9427,4.9411,4.9263,4.895,4.8925,4.8925,4.8942,4.8925,4.8935,4.8935,4.8935,4.8926,4.89,4.884,4.8813,4.8813,4.8687,4.8641,4.8641,4.8578,4.8541,4.8513,4.8373,4.8325,4.8316,4.8306,4.8306,4.8296,4.8296,4.8296,4.8296,4.8296,4.8296,4.8296,4.8296,4.8296,4.8296,4.8296,4.8296,4.8296,4.8296,4.8296,4.8296,4.8296,4.8296,4.8296,4.8296,4.8296,4.8296,4.8296,4.8296,4.8296,4.8296,4.8296,4.7935,4.6913,4.6776,4.6683,4.6478,4.6454,4.6442,4.6419,4.6419,4.6233,4.5775,4.5749,4.5225,4.4072,4.3883,4.3431,4.2678,4.2524,4.2431,4.2431,4.2418,4.2418,4.2435,4.3149,4.3457,3.9176,3.9557,3.9816,3.9324,3.9543,3.9921,4.0053,4.0148,4.0225,4.0445,4.1149,4.1783,0.0,0.0,0.0,4.4434,4.494,0.0,4.7594,4.8075,0.0,5.0111,0.0,5.0546,5.0472,5.0534,0.0,0.0,5.0237,5.0105,5.0105,4.9897,4.9769,4.9693,4.9693,4.9658,4.9579,4.9369,4.9369,4.9572,4.9369,4.9263,4.9263,4.9263,4.9135,4.8909,4.8883,4.8949,4.9096,4.9052,4.914,4.9268,4.9245,4.9123,4.892,4.8797,4.8649,4.8523,4.8476,4.8382,4.8296,4.8296,4.8296,4.8296,4.8296,4.8296,4.8296,4.8296,4.8296,4.8296,4.8296,4.8296,4.8296,4.8296,4.8296,4.8296,4.8296,4.8296,4.8296,4.8296,4.8296,4.8296,4.8296,4.8296,4.8296,4.8296,4.8296,4.8191,4.7935,4.7852,4.764,4.7194,4.7193,4.7066,4.6665,4.6712,4.6677,4.6454,4.6442,4.6229,4.577,4.5395,4.5096,4.4888,4.442,4.4157,4.4157,4.4064,4.4009,4.4009,4.4212,4.4296,4.0291,4.0487,4.0538,4.0788,4.0811,4.0814,4.0924,4.0672,4.0458,4.0583,4.0998,0.0,4.1831,4.2899,0.0,0.0,0.0,0.0,4.803,4.8293,4.8917,0.0,5.0733,0.0,5.0707,5.0702,5.0693,0.0,5.0534,5.0421,5.0421,5.0279,5.013,4.9968,4.9987,4.991,4.981,4.9655,4.9655,4.9803,4.9648,4.9588,4.9561,4.9457,4.9365,4.9288,0.0,4.9252,4.9465,4.9465,4.952,4.9634,4.9568,4.9445,4.9299,4.9195,4.9086,4.8992,4.8952,4.8799,4.8623,4.8439,4.8353,4.8296,4.8296,4.8296,4.8296,4.8296,4.8296,4.8296,4.8296,4.8296,4.8296,4.8296,4.8296,4.8296,4.8296,4.8296,4.8296,4.8296,4.8296,4.8296,4.8296,4.8296,4.8296,4.8296,4.8296,4.8296,4.8296,4.8276,4.8131,4.7836,4.7842,4.7739,4.7432,4.7464,4.7389,4.7109,4.7086,4.6945,4.663,4.6317,4.6135,4.6135,4.5533,4.5173,4.5119,4.4814,4.4654,4.4615,4.4615,4.4615,4.1484,4.14,4.1245,4.2828,4.2558,4.1917,4.1914,4.1242,4.0586,4.0467,0.0,4.0682,4.1444,4.2281,4.3172,4.4106,0.0,4.6202,4.8059,4.8309,4.8942,5.0617,5.081,5.0788,5.0715,5.0701,5.0702,5.0702,5.0693,5.0707,5.0707,5.0707,5.0565,5.0277,5.0272,5.0147,4.9923,4.9884,4.9884,4.9923,4.9865,4.9845,4.9857,4.9605,4.9605,4.979,0.0,0.0,4.9845,4.9845,4.9884,4.9916,4.98,4.9715,4.9668,4.9603,4.9554,4.9544,4.9518,4.934,4.9055,4.8696,4.8467,4.8334,4.8334,4.8306,4.8296,4.8296,4.8296,4.8296,4.8296,4.8296,4.8296,4.8296,4.8296,4.8296,4.8296,4.8296,4.8296,4.8296,4.8296,4.8296,4.8296,4.8296,4.8296,4.8296,4.8296,4.8296,4.8296,4.8296,4.8296,4.8296,4.8296,4.8296,4.8296,4.8296,4.8132,4.7715,4.7684,4.7506,4.7093,4.6913,4.6822,4.6822,4.6159,4.5737,4.5563,4.5133,4.4817,4.4643,4.4643,4.4629,4.1722,4.1877,4.2012,4.3033,4.2631,4.1983,4.1972,4.1351,0.0,0.0,3.9654,3.9734,3.9888,4.0623,4.1722,4.3246,4.4209,4.5624,4.8044,4.8373,4.8995,0.0,0.0,0.0,0.0,0.0,0.0,0.0,0.0,0.0,5.0707,5.0707,5.0673,5.0614,5.0614,5.0594,5.0539,5.026,5.0266,5.0539,5.026,5.0135,5.0135,5.0087,4.9974,4.9803,0.0,0.0,5.0135,5.0135,5.0283,5.0539,5.0528,5.0347,5.0092,5.0012,4.9897,4.9737,4.9624,4.9412,4.9166,4.9038,4.8758,4.8457,4.8457,4.8382,4.8296,4.8296,4.8296,4.8296,4.8296,4.8296,4.8296,4.8296,4.8296,4.8296,4.8296,4.8296,4.8296,4.8296,4.8296,4.8296,4.8296,4.8296,4.8296,4.8296,4.8296,4.8296,4.8296,4.8296,4.8296,4.8296,4.8296,4.8296,4.8296,4.8296,4.8267,4.8181,4.8172,4.8142,4.8055,4.7653,4.7435,4.7435,4.6838,4.6298,4.5825,4.564,4.5288,4.4779,4.4779,4.4709,4.1777,4.2338,4.2899,4.3766,4.3321,4.2563,4.2102,0.0,0.0,0.0,3.9118,3.8956,3.9423,4.0216,0.0,4.3034,4.4036,4.5332,4.7424,4.8101,0.0,5.0124,5.0642,0.0,0.0,0.0,0.0,0.0,0.0,0.0,5.0693,5.0707,5.0707,5.0707,5.0707,5.0707,5.0707,5.0544,5.0544,5.0707,5.0544,5.0453,5.0448,5.0283,5.0231,5.0262,5.0081,0.0,5.0453,5.0453,5.0554,5.0707,5.0707,5.0604,5.0467,5.0421,5.0341,5.0262,5.0195,4.9968,4.9718,4.9683,4.9172,4.8541,4.8504,4.8457,4.8382,4.8316,4.8296,4.8296,4.8296,4.8296,4.8296,4.8296,4.8296,4.8296,4.8296,4.8296,4.8296,4.8296,4.8296,4.8296,4.8296,4.8296,4.8296,4.8296,4.8296,4.8296,4.8296,4.8296,4.8296,4.8296,4.8296,4.8296,4.8296,4.8296,4.8296,4.8296,4.8296,4.8296,4.8296,4.8075,4.7965,4.7965,4.7442,4.7002,4.6688,4.6081,4.5614,4.5258,4.5015,4.4831,4.1738,4.2376,4.3015,4.4056,4.3534,4.2589,4.1893,4.0581,0.0,3.9268,3.8682,3.8409,3.9091,3.9788,4.0852,0.0,4.3746,4.4965,4.6848,4.785,4.872,0.0,5.0418,0.0,0.0,0.0,0.0,0.0,0.0,0.0,5.0693,5.0707,5.0707,5.0707,5.0707,5.0707,5.0707,5.0707,5.0707,5.0707,5.0707,5.0707,5.0683,5.0426,5.0442,5.0678,5.0421,0.0,0.0,5.0899,5.0957,5.0976,5.1169,5.1246,5.1246,5.1246,5.1246,5.1246,5.1246,5.1025,5.076,5.076,4.9846,4.8713,4.8669,4.8587,4.8476,4.8372,4.8316,4.8296,4.8296,4.8296,4.8296,4.8296,4.8296,4.8296,4.8296,4.8296,4.8296,4.8296,4.8296,4.8296,4.8296,4.8296,4.8296,4.8296,4.8296,4.8296,4.8296,4.8296,4.8296,4.8296,4.8296,4.8296,4.8296,4.8296,4.8296,4.8296,4.8296,4.8296,4.8296,4.8296,4.8296,4.8296,4.7945,4.7653,4.7446,4.6548,4.5992,4.5724,4.5249,4.4964,4.1567,4.1529,4.1413,4.3015,4.2202,4.1006,4.0929,0.0,3.9288,3.8486,3.8254,3.8215,3.8292,3.8389,3.924,0.0,4.286,4.4272,4.6751,4.785,4.872,4.961,0.0,0.0,0.0,0.0,0.0,0.0,0.0,0.0,0.0,5.0707,5.0707,5.0707,5.0707,5.0707,5.0707,5.0707,5.0707,5.0707,5.0707,5.0707,5.0707,5.0668,5.0673,5.0707,0.0,0.0,0.0,5.1486,5.1793,5.187,5.2659,5.2972,5.2972,5.2972,5.2972,5.2972,5.2972,5.279,5.2561,5.2561,5.1009,4.915,4.9142,4.8836,4.8503,4.8494,4.8391,4.8296,4.8296,4.8296,4.8296,4.8296,4.8296,4.8296,4.8296,4.8296,4.8296,4.8296,4.8296,4.8296,4.8296,4.8296,4.8296,4.8296,4.8296,4.8296,4.8296,4.8296,4.8296,4.8296,4.8296,4.8296,4.8296,4.8296,4.8296,4.8296,4.8296,4.8296,4.8296,4.8296,4.8296,4.8296,4.8258,4.8015,4.758,4.706,4.6489,4.5863,4.5394,4.5113,4.0948,4.1045,4.1084,4.2222,4.1645,4.0797,4.0797,0.0,3.9404,3.9053,3.8566,3.8196,3.8196,3.8624,3.9633,4.1661,4.2725,4.4001,4.6035,4.7525,4.8527,4.8875,0.0,0.0,0.0,0.0,0.0,0.0,0.0,0.0,0.0,5.0702,5.0707,5.0707,5.0707,5.0707,5.0707,5.0707,5.0707,5.0707,5.0707,5.0707,5.0707,5.0707,5.0707,5.0726,0.0,0.0,0.0,5.2332,5.2678,5.2717,5.3063,5.3197,5.3197,5.3197,5.3197,5.3197,5.3197,5.3126,5.3037,5.3037,5.2277,5.1282,5.0836,5.0518,5.0257,4.9998,4.9871,4.9811,4.9811,4.9811,4.9682,4.9197,4.9087,4.893,4.8416,4.8296,4.8296,4.8296,4.8296,4.8296,4.8296,4.8296,4.8296,4.8296,4.8296,4.8296,4.8296,4.8296,4.8296,4.8296,4.8296,4.8296,4.8296,4.8296,4.8296,4.8296,4.8296,4.8296,4.8296,4.8296,4.8296,4.8296,4.8296,4.8201,4.8015,4.7548,4.7031,4.6489,4.6032,4.5572,4.0178,4.0429,4.0603,4.1432,4.1026,4.0429,0.0,0.0,3.9501,3.9501,3.9014,3.8505,3.8254,3.8917,3.9965,4.1413,4.2589,4.3885,4.5552,4.7293,4.8392,0.0,0.0,0.0,0.0,0.0,0.0,0.0,0.0,0.0,0.0,5.0716,5.0702,5.0712,5.0707,5.0707,5.0707,5.0707,5.0707,5.0707,5.0707,5.0707,5.0707,5.0707,5.0707,5.0745,0.0,0.0,0.0,5.3121,5.3587,5.3606,5.3857,5.3933,5.3933,5.3933,5.3933,5.3933,5.3933,5.3933,5.3933,5.3933,5.3813,5.3561,5.2948,5.2196,5.1496,5.1176,5.0937,5.0802,5.0802,5.0802,5.0655,5.0096,4.9766,4.9435,4.882,4.8489,4.8296,4.8296,4.8296,4.8296,4.8296,4.8296,4.8296,4.8296,4.8296,4.8296,4.8296,4.8296,4.8296,4.8296,4.8296,4.8296,4.8296,4.8296,4.8296,4.8296,4.8296,4.8296,4.8296,4.8296,4.8296,4.8296,4.8296,4.8296,4.8296,4.7826,4.7432,4.7082,4.6477,4.5862,3.9288,3.9501,3.9713,4.0584,4.0158,3.9501,0.0,0.0,3.9501,3.9501,3.9481,3.923,3.8351,3.8917,3.9791,4.0681,4.2202,4.3885,4.5552,4.7293,0.0,0.0,0.0,0.0,0.0,0.0,0.0,0.0,0.0,0.0,0.0,5.0748,5.0697,5.0693,5.0707,5.0707,5.0707,5.0707,5.0707,5.0707,5.0707,5.0707,5.0707,5.0707,5.0707,0.0,0.0,0.0,0.0,5.378,5.4491,5.4568,5.5362,5.567,5.567,5.567,5.567,5.567,5.567,5.567,5.567,5.567,5.5665,5.5621,5.5351,5.3594,5.1676,5.1529,5.1158,5.0802,5.0802,5.0802,5.0802,5.0802,5.0188,4.961,4.9592,4.8912,4.8296,4.8296,4.8296,4.8296,4.8296,4.8296,4.8296,4.8296,4.8296,4.8296,4.8296,4.8296,4.8296,4.8296,4.8296,4.8296,4.8296,4.8296,4.8296,4.8296,4.8296,4.8296,4.8296,4.8296,4.8296,4.8296,4.8296,4.8296,4.8296,4.7826,4.7601,4.7569,4.6625,4.5917,3.8373,3.8605,3.8818,3.9694,3.9694,3.9655,4.0255,4.039,4.039,4.039,4.039,3.9942,3.8467,3.9398,4.0487,4.0758,4.2202,4.3885,0.0,0.0,0.0,0.0,0.0,0.0,0.0,0.0,0.0,0.0,0.0,0.0,0.0,5.0846,5.0784,5.0702,5.0707,5.0707,5.0707,5.0707,5.0707,5.0707,5.0707,5.0707,5.0707,5.0707,0.0,0.0,0.0,0.0,0.0,5.4626,5.5324,5.5343,5.5593,5.5708,5.5708,5.5708,5.5708,5.5708,5.5708,5.5708,5.5708,5.5708,5.5708,5.5673,5.5602,5.4842,5.3905,5.3358,5.3032,5.2806,5.2565,5.2469,5.2297,5.1756,5.1436,5.0941,4.9849,4.938,4.9013,4.8406,4.8296,4.8296,4.8296,4.8296,4.8296,4.8296,4.8296,4.8296,4.8296,4.8296,4.8296,4.8296,4.8296,4.8296,4.8296,4.8296,4.8296,4.8296,4.8296,4.8296,4.8296,4.8296,4.8296,4.8296,4.8296,4.8296,4.8296,4.8152,4.7907,4.758,4.6643,4.6112,3.748,3.7944,3.8331,3.8879,3.9268,0.0,0.0,4.0565,4.0797,4.0797,4.0797,4.0271,3.8525,3.9862,4.1142,4.0852,4.2473,0.0,0.0,0.0,0.0,0.0,0.0,0.0,0.0,0.0,0.0,0.0,0.0,0.0,0.0,0.0,5.0855,5.0775,5.073,5.0707,5.0707,5.0707,5.0707,5.0707,5.0707,5.0707,5.0707,5.0707,0.0,0.0,0.0,0.0,0.0,5.5011,5.5708,5.5708,5.5708,5.5708,5.5708,5.5708,5.5708,5.5708,5.5708,5.5708,5.5708,5.5708,5.5708,5.5708,5.5708,5.5417,5.4986,5.4387,5.4154,5.3996,5.3653,5.3504,5.3263,5.2649,5.2238,5.173,5.072,5.0033,4.9435,4.8903,4.8526,4.8296,4.8296,4.8296,4.8296,4.8296,4.8296,4.8296,4.8296,4.8296,4.8296,4.8296,4.8296,4.8296,4.8296,4.8296,4.8296,4.8296,4.8296,4.8296,4.8296,4.8296,4.8296,4.8296,4.8296,4.8296,4.8296,4.8296,4.8055,4.7591,4.7004,4.6631,0.0,3.7442,3.8118,3.8118,3.876,3.9423,3.9481,4.0139,0.0,4.0797,4.0758,4.0233,3.866,4.0326,4.1699,4.1084,0.0,0.0,0.0,0.0,0.0,0.0,0.0,0.0,0.0,0.0,0.0,0.0,0.0,0.0,0.0,0.0,5.0904,5.0899,5.0775,5.0706,5.0693,5.0693,5.0707,5.0707,5.0707,5.0707,5.0707,5.0707,0.0,0.0,0.0,0.0,0.0,5.4953,5.5651,5.5708,5.5708,5.5708,5.5708,5.5708,5.5708,5.5708,5.5708,5.5708,5.5708,5.5708,5.5708,5.5708,5.5708,5.5435,5.5068,5.4745,5.4594,5.4463,5.4094,5.3915,5.373,5.3383,5.2684,5.2089,5.2005,5.083,4.9757,4.9702,4.8985,4.8388,4.8388,4.8333,4.8296,4.8296,4.8296,4.8296,4.8296,4.8296,4.8296,4.8296,4.8296,4.8296,4.8296,4.8296,4.8296,4.8296,4.8296,4.8296,4.8296,4.8296,4.8296,4.8296,4.8296,4.8296,4.8296,4.8296,4.8093,4.7643,4.7622,4.7403,3.5939,0.0,3.7209,3.7209,3.7867,3.8682,0.0,3.9655,3.9984,4.0661,4.0274,3.9887,4.0136,4.0678,4.1432,4.2531,0.0,0.0,0.0,0.0,0.0,0.0,0.0,0.0,0.0,0.0,0.0,0.0,0.0,0.0,0.0,0.0,5.0893,5.0899,5.0878,5.0807,5.0702,5.0707,5.0707,5.0707,5.0707,5.0707,5.0707,5.0707,0.0,0.0,0.0,0.0,5.3274,5.4337,5.5151,5.5708,5.5708,5.5708,5.5708,5.5708,5.5708,5.5708,5.5708,5.5708,5.5708,5.5708,5.5708,5.5708,5.5708,5.5621,5.5495,5.5218,5.504,5.4819,5.423,5.4024,5.3842,5.3393,5.314,5.2815,5.2144,5.1693,5.1253,5.0637,4.9858,4.9288,4.9288,4.8746,4.8296,4.8296,4.8296,4.8296,4.8296,4.8296,4.8296,4.8296,4.8296,4.8296,4.8296,4.8296,4.8296,4.8296,4.8296,4.8296,4.8296,4.8296,4.8296,4.8296,4.8296,4.8296,4.8296,4.8296,4.823,4.8132,4.7775,4.7863,3.5706,3.6013,3.6342,3.6342,3.6977,3.7828,3.8702,3.9207,3.9752,4.0623,4.012,3.9771,4.0642,4.1103,4.178,0.0,4.4678,0.0,0.0,0.0,0.0,0.0,0.0,0.0,0.0,0.0,0.0,0.0,0.0,0.0,0.0,0.0,5.0909,5.0909,5.0892,5.0846,5.0757,5.0726,5.0702,5.0702,5.0697,5.0707,5.0707,5.0707,0.0,0.0,0.0,0.0,5.2697,5.3972,5.4761,5.5189,5.5555,5.5708,5.5708,5.5708,5.5708,5.5708,5.5708,5.5708,5.5708,5.5708,5.5708,5.5708,5.5708,5.5708,5.5662,5.5514,5.543,5.525,5.4779,5.4452,5.418,5.3758,5.3534,5.3249,5.2704,5.2316,5.1901,5.1436,5.0692,5.0151,5.0151,4.9756,4.9315,4.8948,4.8903,4.8746,4.8351,4.8296,4.8296,4.8296,4.8296,4.8296,4.8296,4.8296,4.8296,4.8296,4.8296,4.8296,4.8296,4.8296,4.8296,4.8296,4.8296,4.8296,4.8296,4.8691,4.8903,4.8893,4.9013,4.9302,3.5706,3.5706,3.5706,3.5706,3.6303,3.7132,3.8002,3.8879,3.9752,4.0623,4.0216,4.0004,4.1006,4.1741,0.0,0.0,0.0,0.0,0.0,0.0,0.0,0.0,0.0,0.0,0.0,0.0,0.0,0.0,0.0,0.0,0.0,0.0,0.0,5.0898,5.0909,5.0872,5.0819,5.0742,5.0706,5.0696,5.0697,5.0697,5.0707,5.0707,5.0707,0.0,0.0,0.0,5.2,5.3491,5.426,5.4568,5.5247,5.5593,5.5708,5.5708,5.5708,5.5708,5.5708,5.5708,5.5708,5.5708,5.5708,5.5708,5.5708,5.5708,5.5708,5.5708,5.5708,5.5635,5.537,5.4998,5.4625,5.4263,5.3879,5.3552,5.3404,5.2798,5.2267,5.221,5.1536,5.0986,5.0986,5.0875,5.0563,4.9894,4.9784,4.9472,4.8618,4.8508,4.8443,4.8315,4.8296,4.8296,4.8296,4.8296,4.8296,4.8296,4.8296,4.8296,4.8296,4.8296,4.8296,4.8296,4.8434,4.8508,4.8508,4.9362,4.9784,4.9802,5.0472,5.0875,3.5706,3.5706,3.5706,3.5706,3.6303,3.7132,3.8002,3.8879,3.9752,4.0623,4.07,4.1064,4.2628,4.3015,4.3614,0.0,0.0,0.0,0.0,0.0,0.0,0.0,0.0,0.0,0.0,0.0,0.0,0.0,0.0,0.0,0.0,0.0,0.0,5.0898,5.0894,5.0905,5.0882,5.0827,5.0766,5.0696,5.0692,5.0707,5.0707,5.0707,5.0707,0.0,0.0,5.1279,5.1923,5.2197,5.3159,5.4511,5.4645,5.5112,5.5708,5.5708,5.5708,5.5708,5.5708,5.5708,5.5708,5.5708,5.5708,5.5708,5.5708,5.5708,5.5708,5.5708,5.5708,5.5635,5.537,5.5243,5.5072,5.4632,5.4263,5.397,5.3758,5.3404,5.3093,5.3033,5.2362,5.1822,5.1822,5.1242,5.0765,5.0637,5.0618,5.0325,4.9509,4.9399,4.9123,4.8379,4.8296,4.8296,4.8296,4.8296,4.8296,4.8296,4.8296,4.8296,4.8296,4.8296,4.8296,4.8296,4.9031,4.9399,4.9399,5.0225,5.0618,5.0618,5.0747,5.1151,3.5706,3.5706,3.5803,3.6245,3.6632,3.7132,3.8002,3.8879,3.9868,4.118,4.1103,4.1451,0.0,0.0,4.4156,4.679,0.0,0.0,0.0,0.0,0.0,0.0,0.0,0.0,0.0,0.0,0.0,0.0,0.0,0.0,0.0,0.0,0.0,0.0,5.0898,5.0898,5.0898,5.0866,5.0844,5.0816,5.0724,5.0706,5.0707,5.0702,5.0707,5.0707,0.0,5.0919,5.1298,5.1717,5.237,5.314,5.3606,5.4318,5.5107,5.5535,5.5708,5.5708,5.5708,5.5708,5.5708,5.5708,5.5708,5.5708,5.5708,5.5708,5.5708,5.5708,5.5708,5.5662,5.5556,5.5407,5.5256,5.5031,5.4712,5.4365,5.3997,5.3833,5.3624,5.3272,5.2988,5.2784,5.2704,5.239,5.1995,5.1572,5.1467,5.1151,5.0353,5.0261,4.9931,4.9087,4.9003,4.8802,4.8333,4.8296,4.8296,4.8296,4.8296,4.8489,4.893,4.8985,4.9205,4.9646,5.0031,5.0261,5.0261,5.1059,5.1444,5.1463,5.1903,5.2278,3.5706,3.5706,3.59,3.6709,3.7055,3.7422,3.8312,3.9188,4.0216,4.1699,4.1664,4.2048,0.0,4.4384,0.0,0.0,0.0,0.0,0.0,0.0,0.0,0.0,0.0,0.0,0.0,0.0,0.0,0.0,0.0,0.0,0.0,0.0,0.0,0.0,5.0898,5.0898,5.0898,5.0898,5.0901,5.0899,5.0807,5.072,5.0696,5.0702,5.0697,5.0707,5.0707,5.0707,5.0745,5.1356,5.1736,5.1962,5.264,5.3549,5.4568,5.5189,5.5535,5.5708,5.5708,5.5708,5.5708,5.5708,5.5708,5.5708,5.5708,5.5708,5.5708,5.5708,5.5708,5.5708,5.5708,5.5556,5.5389,5.5389,5.5158,5.4787,5.4349,5.4161,5.397,5.3472,5.3459,5.3479,5.3369,5.3349,5.3138,5.2522,5.2377,5.2048,5.121,5.1099,5.0777,4.9978,4.9876,4.9629,4.8959,4.8914,4.8914,4.8914,4.8885,4.9169,4.9774,4.9858,5.017,5.0784,5.0986,5.1077,5.1077,5.1885,5.227,5.2289,5.2902,5.3196,3.5706,3.5706,3.59,3.6709,3.7519,3.8331,3.921,4.0081,4.0948,4.1816,4.2609,4.3417,0.0,4.5819,0.0,0.0,0.0,0.0,0.0,0.0,0.0,0.0,0.0,0.0,0.0,0.0,0.0,0.0,0.0,0.0,0.0,0.0,0.0,0.0,0.0,5.0898,5.0898,5.0898,5.0901,5.0899,5.0895,5.0825,5.0696,5.0696,5.0692,5.0707,5.0707,5.0707,5.0707,5.0765,5.1221,5.1904,5.1962,5.3024,5.4511,5.4568,5.5054,5.5708,5.5708,5.5708,5.5708,5.5708,5.5708,5.5708,5.5708,5.5708,5.5708,5.5708,5.5708,5.5708,5.5708,5.5692,5.5662,5.5662,5.5461,5.5224,5.5067,5.4528,5.4067,5.3961,5.3709,5.3499,5.3499,5.3489,5.3471,5.3407,5.3397,5.3061,5.2141,5.2011,5.1676,5.0812,5.071,5.0714,5.0712,5.0722,5.0722,5.0722,5.066,5.0655,5.071,5.071,5.0747,5.0802,5.1518,5.1914,5.1914,5.2729,5.3104,5.3122,5.3177,5.3196,3.5706,3.6071,3.6651,3.75,3.8353,3.9091,3.9423,4.0561,4.1796,4.2628,4.3495,4.452,0.0,0.0,0.0,0.0,0.0,0.0,0.0,0.0,0.0,0.0,0.0,0.0,0.0,0.0,0.0,0.0,0.0,0.0,0.0,0.0,0.0,0.0,0.0,5.0898,5.0898,5.0898,5.0894,5.0897,5.0892,5.0863,5.0825,5.0748,5.0711,5.0692,5.0702,5.0707,5.0707,5.0707,5.088,5.1202,5.1697,5.264,5.376,5.4299,5.5011,5.5708,5.5708,5.5708,5.5708,5.5708,5.5708,5.5708,5.5708,5.5708,5.5708,5.5708,5.5708,5.5708,5.5708,5.5708,5.5708,5.5708,5.5618,5.5473,5.5167,5.4978,5.4735,5.4382,5.4139,5.3971,5.3879,5.3737,5.3617,5.3617,5.3549,5.336,5.3016,5.2969,5.2654,5.1821,5.1287,5.0993,5.1023,5.1475,5.174,5.1663,5.1101,5.1022,5.1518,5.1555,5.1775,5.2278,5.259,5.2747,5.2747,5.3049,5.3196,5.3196,5.3196,5.3196,3.5706,3.6284,3.7113,3.7983,3.8859,3.9636,4.0178,4.118,4.2338,4.3476,4.4384,4.5413,4.6848,0.0,0.0,0.0,0.0,0.0,0.0,0.0,0.0,0.0,0.0,0.0,0.0,0.0,0.0,0.0,0.0,0.0,0.0,0.0,0.0,0.0,0.0,0.0,5.0898,5.0898,5.0898,5.0898,5.0893,5.0892,5.0899,5.0797,5.0748,5.0696,5.0707,5.0702,5.0707,5.0707,5.0707,5.0745,5.1318,5.2217,5.3274,5.3876,5.4761,5.5708,5.5708,5.5708,5.5708,5.5708,5.5708,5.5708,5.5708,5.5708,5.5708,5.5708,5.5708,5.5708,5.5708,5.5708,5.5708,5.5708,5.5708,5.5616,5.5343,5.5307,5.5198,5.4828,5.4509,5.4305,5.4326,5.3999,5.3783,5.387,5.3726,5.3589,5.3578,5.3549,5.3336,5.2752,5.2227,5.1923,5.1923,5.2431,5.2706,5.26,5.1962,5.1824,5.2362,5.238,5.2637,5.3196,5.3196,5.3196,5.3196,5.3196,5.3196,5.3196,5.3196,5.3196,3.5706,3.6284,3.7113,3.7983,3.8879,3.9965,4.1622,4.2009,4.2512,4.4249,4.5258,4.6074,4.6945,4.7811,0.0,0.0,0.0,0.0,0.0,0.0,0.0,0.0,0.0,0.0,0.0,0.0,0.0,0.0,0.0,0.0,0.0,0.0,0.0,0.0,0.0,0.0,5.0898,5.0898,5.0898,5.0898,5.0898,5.0897,5.0899,5.0899,5.0829,5.0701,5.0701,5.0692,5.0693,5.0707,5.0707,5.0707,5.0707,5.1726,5.3197,5.3197,5.426,5.5689,5.5708,5.5708,5.5708,5.5708,5.5708,5.5708,5.5708,5.5708,5.5708,5.5708,5.5708,5.5708,5.5708,5.5708,5.5708,5.5708,5.5708,5.5708,5.5708,5.5485,5.5301,5.5301,5.4776,5.4405,5.4739,5.4246,5.3926,5.4246,5.3999,5.3793,5.3705,5.3704,5.3646,5.3519,5.3617,5.3704,5.3704,5.3704,5.3704,5.3704,5.3449,5.3274,5.3196,5.3196,5.3196,5.3196,5.3196,5.3196,5.3196,5.3196,5.3196,5.3196,5.3196,5.3196,3.5706,3.6729,3.7886,3.8138,3.9746,4.1548,4.2667,4.2918,4.3401,4.5084,4.6113,4.6983,4.785,0.0,0.0,0.0,0.0,0.0,0.0,0.0,0.0,0.0,0.0,0.0,0.0,0.0,0.0,0.0,0.0,0.0,0.0,0.0,0.0,0.0,0.0,0.0,5.0898,5.0898,5.0898,5.0898,5.0898,5.0894,5.0901,5.0892,5.0887,5.0838,5.0748,5.0692,5.0697,5.0702,5.0707,5.0707,5.0707,5.1356,5.237,5.2967,5.3895,5.4934,5.5497,5.5708,5.5708,5.5708,5.5708,5.5708,5.5708,5.5708,5.5708,5.5708,5.5708,5.5708,5.5708,5.5708,5.5708,5.5708,5.5708,5.5708,5.5708,5.5635,5.5585,5.5585,5.5275,5.4959,5.4821,5.4438,5.4107,5.3972,5.386,5.3793,5.3765,5.3774,5.3764,5.3726,5.3745,5.3774,5.3774,5.3774,5.3745,5.3704,5.3548,5.338,5.3285,5.322,5.3196,5.3196,5.3196,5.3196,5.3196,5.3196,5.3196,5.3196,5.3196,5.3196,3.5706,3.6922,3.8196,3.8196,4.011,4.2318,4.3534,4.4059,4.4581,0.0,4.648,4.737,4.8237,0.0,0.0,0.0,0.0,0.0,0.0,0.0,0.0,0.0,0.0,0.0,0.0,0.0,0.0,0.0,0.0,0.0,0.0,0.0,0.0,0.0,0.0,0.0,5.0898,5.0898,5.0898,5.0898,5.0898,5.0898,5.0898,5.0893,5.0897,5.0895,5.0761,5.0696,5.0696,5.0707,5.0707,5.0707,5.0707,5.1183,5.1962,5.2486,5.3453,5.4568,5.5054,5.5439,5.5708,5.5708,5.5708,5.5708,5.5708,5.5708,5.5708,5.5708,5.5708,5.5708,5.5708,5.5708,5.5708,5.5708,5.5708,5.5708,5.5708,5.5708,5.5708,5.5708,5.5479,5.5275,5.5172,5.4682,5.4281,5.4203,5.3972,5.3803,5.3803,5.3803,5.3803,5.3803,5.3803,5.3803,5.3803,5.3803,5.3774,5.3735,5.3579,5.3451,5.339,5.3261,5.3196,5.3196,5.3196,5.3196,5.3196,5.3196,5.3196,5.3196,5.3196,5.3196,3.5706,3.6922,3.8196,3.8196,4.0188,4.257,4.4307,4.5278,4.5803,4.5803,0.0,4.737,4.8237,0.0,0.0,0.0,0.0,0.0,0.0,0.0,0.0,0.0,0.0,0.0,0.0,0.0,0.0,0.0,0.0,0.0,0.0,0.0,0.0,0.0,0.0,0.0,5.0898,5.0898,5.0898,0.0,5.0898,5.0898,5.0898,5.0898,5.0897,5.0895,5.0766,5.0701,5.0696,5.0707,5.0707,5.0707,5.0707,5.1144,5.1793,5.1865,5.289,5.428,5.4434,5.4972,5.5593,5.5689,5.5708,5.5708,5.5708,5.5708,5.5708,5.5708,5.5708,5.5708,5.5708,5.5708,5.5708,5.5708,5.5708,5.5708,5.5708,5.5708,5.5708,5.5708,5.5497,5.5401,5.5624,5.495,5.4479,5.4716,5.4212,5.3803,5.3803,5.3803,5.3803,5.3803,5.3803,5.3803,5.3803,5.3803,5.3803,5.3803,5.3629,5.3519,5.3509,5.3303,5.3196,5.3196,5.3196,5.3196,5.3196,5.3196,5.3196,5.3196,5.3196,5.3196,3.5706,3.6922,3.8196,3.8196,4.0633,4.346,4.5165,4.5687,4.5803,4.5803,4.648,4.737,0.0,0.0,0.0,0.0,0.0,0.0,0.0,0.0,0.0,0.0,0.0,0.0,0.0,0.0,0.0,0.0,0.0,0.0,0.0,0.0,0.0,0.0,0.0,5.0898,5.0898,5.0898,5.0898,0.0,5.0898,5.0898,5.0898,5.0898,5.0897,5.0899,5.0806,5.0757,5.0696,5.0707,5.0707,5.0707,5.0707,5.0803,5.1029,5.1678,5.214,5.2659,5.403,5.4607,5.4857,5.5497,5.5708,5.5708,5.5708,5.5708,5.5708,5.5708,5.5708,5.5708,5.5708,5.5708,5.5708,5.5708,5.5708,5.5708,5.5708,5.5708,5.5708,5.5708,5.5646,5.5573,5.5407,5.5217,5.4938,5.4479,5.4063,5.3803,5.3803,5.3803,5.3803,5.3803,5.3803,5.3803,5.3803,5.3803,5.3803,5.3803,5.3706,5.3608,5.3509,5.3303,5.3196,5.3196,5.3196,5.3196,5.3196,5.3196,5.3196,5.3196,5.3196,5.3196,3.5706,3.6922,3.8486,3.9704,4.1677,4.3634,4.4929,4.5513,4.5803,4.5803,4.648,0.0,0.0,0.0,0.0,0.0,0.0,0.0,0.0,0.0,0.0,0.0,0.0,0.0,0.0,0.0,0.0,0.0,0.0,0.0,0.0,0.0,0.0,0.0,5.0898,5.0898,5.0898,5.0898,5.0898,5.0898,5.0898,5.0898,5.0898,5.0898,5.0909,5.0905,5.0868,5.0801,5.0752,5.0706,5.0707,5.0707,5.0707,5.0707,5.0745,5.1164,5.1563,5.2019,5.2947,5.3799,5.4568,5.4991,5.5401,5.5708,5.5708,5.5708,5.5708,5.5708,5.5708,5.5708,5.5708,5.5708,5.5708,5.5708,5.5708,5.5708,5.5708,5.5708,5.5708,5.5708,5.5708,5.5671,5.5527,5.525,5.4887,5.4372,5.4008,5.3803,5.3803,5.3803,5.3803,5.3803,5.3803,5.3803,5.3803,5.3803,5.3803,5.3803,5.3744,5.3646,5.3509,5.3336,5.323,5.3196,5.3196,5.3196,5.3196,5.3196,5.3196,5.3196,5.3196,5.3196,3.5706,3.6922,3.8815,4.1351,4.2667,4.3534,4.4404,4.522,4.5803,4.5803,0.0,0.0,0.0,0.0,0.0,0.0,0.0,0.0,0.0,0.0,0.0,0.0,0.0,0.0,0.0,0.0,0.0,0.0,0.0,0.0,0.0,0.0,5.0898,5.0898,5.0898,5.0898,5.0898,5.0898,5.0898,5.0898,5.0898,5.0898,5.0898,5.0898,5.0898,5.0898,5.0897,5.0863,5.0806,5.0733,5.0711,5.0717,5.0717,5.0717,5.0717,5.0707,5.1121,5.1707,5.1851,5.2947,5.4299,5.4453,5.503,5.5708,5.5708,5.5708,5.5708,5.5708,5.5708,5.5708,5.5708,5.5708,5.5708,5.5708,5.5708,5.5708,5.5708,5.5708,5.5708,5.5708,5.5708,5.5708,5.5708,5.5244,5.4776,5.4438,5.4107,5.387,5.3813,5.3803,5.3803,5.3803,5.3803,5.3803,5.3803,5.3803,5.3803,5.3803,5.3745,5.3647,5.3509,5.339,5.3295,5.3196,5.3196,5.3196,5.3196,5.3196,5.3196,5.3196,5.3196,5.3196,3.5706,3.6922,3.8815,4.1351,4.2667,4.3534,0.0,0.0,4.5803,0.0,0.0,0.0,0.0,0.0,0.0,0.0,0.0,0.0,0.0,0.0,0.0,0.0,0.0,0.0,0.0,0.0,0.0,0.0,0.0,0.0,0.0,5.0898,5.0898,5.0898,5.0898,5.0898,5.0898,5.0898,5.0898,5.0898,5.0898,5.0898,5.0898,5.0898,5.0898,5.0898,5.0897,5.0895,5.0891,5.0806,5.0784,5.0779,5.0779,5.0779,5.0775,5.0725,5.0764,5.0952,5.1654,5.2544,5.351,5.4241,5.503,5.5708,5.5708,5.5708,5.5708,5.5708,5.5708,5.5708,5.5708,5.5708,5.5708,5.5708,5.5708,5.5708,5.5708,5.5708,5.5708,5.5708,5.5708,5.5708,5.5708,5.5443,5.5124,5.4784,5.4446,5.4134,5.3832,5.3803,5.3803,5.3803,5.3803,5.3803,5.3803,5.3803,5.3803,5.3803,5.3793,5.3707,5.3509,5.3471,5.3378,5.3196,5.3196,5.3196,5.3196,5.3196,5.3196,5.3196,5.3196,5.3196,3.6845,3.7635,3.8699,4.079,4.1951,4.2802,4.3669,4.4523,4.5258,0.0,0.0,0.0,0.0,0.0,0.0,0.0,0.0,0.0,0.0,0.0,0.0,0.0,0.0,0.0,0.0,0.0,0.0,0.0,0.0,0.0,5.0898,5.0898,5.0898,5.0898,5.0898,5.0898,5.0898,5.0898,5.0898,5.0898,5.0898,5.0898,5.0898,5.0898,5.0898,5.0898,5.0901,5.0901,5.0899,5.0863,5.0823,5.0801,5.0801,5.0801,5.0797,5.0775,5.0724,5.0754,5.1097,5.2088,5.3255,5.3645,5.4645,5.5708,5.5708,5.5708,5.5708,5.5708,5.5708,5.5708,5.5708,5.5708,5.5708,5.5708,5.5708,5.5708,5.5708,5.5708,5.5708,5.5708,5.5708,5.5708,5.5708,5.5473,5.5197,5.4851,5.4677,5.4389,5.387,5.3963,5.4018,5.3813,5.3803,5.3803,5.3803,5.3803,5.3803,5.3803,5.3803,5.3716,5.3509,5.3509,5.3416,5.3196,5.3196,5.3196,5.3196,5.3196,5.3196,5.3196,5.3196,5.3196,3.7732,3.8196,3.8621,4.0368,4.1393,4.2222,0.0,0.0,0.0,0.0,0.0,0.0,0.0,0.0,0.0,0.0,0.0,0.0,0.0,0.0,0.0,0.0,0.0,0.0,0.0,0.0,0.0,0.0,0.0,0.0,5.0898,5.0898,5.0898,5.0898,5.0898,5.0898,5.0898,5.0898,5.0898,5.0898,5.0898,5.0898,5.0898,5.0898,5.0898,5.0898,5.0898,5.0901,5.0897,5.0897,5.088,5.0831,5.0831,5.0831,5.0831,5.0838,5.0793,5.0772,5.098,5.1982,5.3256,5.3453,5.4511,5.5708,5.5708,5.5708,5.5708,5.5708,5.5708,5.5708,5.5708,5.5708,5.5708,5.5708,5.5708,5.5708,5.5708,5.5708,5.5708,5.5708,5.5708,5.5708,5.5708,5.552,5.5288,5.4974,5.4924,5.4674,5.3999,5.4152,5.4168,5.3832,5.3803,5.3803,5.3803,5.3803,5.3803,5.3803,5.3803,5.3726,5.3568,5.3519,5.3408,5.322,5.3206,5.3196,5.3196,5.3196,5.3196,5.3196,5.3196,5.3196,3.7732,3.8196,3.8621,4.0368,4.1393,4.2222,0.0,0.0,0.0,0.0,0.0,0.0,0.0,0.0,0.0,0.0,0.0,0.0,0.0,0.0,0.0,0.0,0.0,0.0,0.0,0.0,0.0,0.0,0.0,0.0,5.0898,5.0898,5.0898,5.0898,5.0898,5.0898,5.0898,5.0898,5.0898,5.0898,5.0898,5.0898,5.0898,5.0898,5.0898,5.0898,5.0898,5.0898,5.0898,5.0898,5.0894,5.0894,5.0894,5.0894,5.089,5.0892,5.0895,5.0999,5.1697,5.2531,5.3427,5.4185,5.5011,5.5708,5.5708,5.5708,5.5708,5.5708,5.5708,5.5708,5.5708,5.5708,5.5708,5.5708,5.5708,5.5708,5.5708,5.5708,5.5708,5.5708,5.5708,5.5708,5.5708,5.5698,5.559,5.532,5.5275,5.503,5.4355,5.4298,5.4168,5.3832,5.3803,5.3803,5.3803,5.3803,5.3803,5.3803,5.3803,5.3774,5.3685,5.3578,5.3449,5.3308,5.323,5.3196,5.3196,5.3196,5.3196,5.3196,5.3196,5.3196,3.7055,3.777,3.8486,3.9672,4.0603,4.1451,4.228,4.3147,0.0,0.0,0.0,0.0,0.0,0.0,0.0,0.0,0.0,0.0,0.0,0.0,0.0,0.0,0.0,0.0,0.0,0.0,0.0,0.0,0.0,0.0,5.0898,5.0898,5.0898,5.0898,5.0898,5.0898,5.0898,5.0898,5.0898,5.0898,5.0898,5.0898,5.0898,5.0898,5.0898,5.0898,5.0898,5.0898,5.0898,5.0898,5.0898,5.0898,5.0898,5.0898,5.0898,5.0905,5.0901,5.1007,5.1787,5.2613,5.3432,5.4243,5.503,5.5708,5.5708,5.5708,5.5708,5.5708,5.5708,5.5708,5.5708,5.5708,5.5708,5.5708,5.5708,5.5708,5.5708,5.5708,5.5708,5.5708,5.5708,5.5708,5.5708,5.5708,5.5607,5.5339,5.5301,5.505,5.438,5.4306,5.4168,5.3832,5.3803,5.3803,5.3803,5.3803,5.3803,5.3803,5.3803,5.3774,5.3704,5.3578,5.343,5.33,5.323,5.3196,5.3196,5.3196,5.3196,5.3196,5.3196,5.3196,3.7047,0.0,0.0,0.0,4.0371,4.1006,4.1816,0.0,0.0,0.0,0.0,0.0,0.0,0.0,0.0,0.0,0.0,0.0,0.0,0.0,0.0,0.0,0.0,0.0,0.0,0.0,0.0,0.0,0.0,0.0,5.0898,5.0898,5.0898,5.0898,5.0898,5.0898,5.0898,5.0898,5.0898,5.0898,5.0898,5.0898,5.0898,5.0898,5.0898,5.0898,5.0898,5.0898,5.0898,5.0898,5.0898,5.0898,5.0898,5.0898,5.0898,5.0898,5.0901,5.1066,5.2159,5.2895,5.3518,5.4586,5.5292,5.5735,5.5714,5.5708,5.5708,5.5708,5.5708,5.5708,5.5708,5.5708,5.5708,5.5708,5.5708,5.5708,5.5708,5.5708,5.5708,5.5708,5.5708,5.5708,5.5708,5.5708,5.5635,5.5455,5.5431,5.5192,5.456,5.4471,5.4306,5.3841,5.3562,5.3394,5.3394,5.3144,5.2995,5.2995,5.2995,5.3088,5.3317,5.3191,5.3174,5.3351,5.3261,5.3196,5.3196,5.3196,5.3196,5.3196,5.3196,5.3196,0.0,0.0,0.0,0.0,0.0,0.0,4.1796,0.0,0.0,0.0,0.0,0.0,0.0,0.0,0.0,0.0,0.0,0.0,0.0,0.0,0.0,0.0,0.0,0.0,0.0,0.0,0.0,0.0,0.0,5.0898,5.0898,5.0898,5.0898,5.0898,5.0898,5.0898,5.0898,5.0898,5.0898,5.0898,5.0898,5.0898,5.0898,5.0898,5.0898,5.0898,5.0898,5.0898,5.0898,5.0898,5.0898,5.0898,5.0898,5.0898,5.0898,5.0898,5.0898,5.1145,5.2825,5.3406,5.3663,5.5287,5.5792,5.5782,5.5724,5.5708,5.5708,5.5708,5.5708,5.5708,5.5708,5.5708,5.5708,5.5708,5.5708,5.5708,5.5708,5.5708,5.5708,5.5708,5.5708,5.5708,5.5708,5.5708,5.5708,5.5708,5.5684,5.5485,5.4895,5.4799,5.4536,5.3851,5.307,5.2587,5.2568,5.1844,5.1398,5.1398,5.1398,5.1751,5.2531,5.2379,5.2641,5.3417,5.323,5.3122,5.3122,5.3177,5.3196,5.3196,5.3196,5.3196,3.8095,0.0,0.0,0.0,0.0,0.0,0.0,0.0,0.0,0.0,0.0,0.0,0.0,0.0,0.0,0.0,0.0,0.0,0.0,0.0,0.0,0.0,0.0,0.0,0.0,0.0,0.0,0.0,5.0898,5.0898,5.0898,5.0898,5.0898,5.0898,5.0898,5.0898,5.0898,5.0898,5.0898,5.0898,5.0898,5.0898,5.0898,5.0898,5.0898,5.0898,5.0898,5.0898,5.0898,5.0898,5.0898,5.0898,5.0898,5.0898,5.0898,5.0898,5.0898,5.1145,5.2825,5.3406,5.3668,5.5321,5.5836,5.5811,5.5776,5.574,5.5708,5.5708,5.5708,5.5708,5.5708,5.5708,5.5708,5.5708,5.5708,5.5708,5.5708,5.5708,5.5708,5.5708,5.5708,5.5708,5.5708,5.5708,5.5708,5.5708,5.5526,5.5351,5.5178,5.4746,5.4138,5.338,5.2891,5.2364,5.1788,5.1528,5.1398,5.1398,5.1398,5.1491,5.1714,5.1584,5.1619,5.1823,5.1637,5.1536,5.1536,5.2658,5.3196,5.3196,5.3196,5.3196,0.0,0.0,0.0,0.0,0.0,0.0,4.0797,4.1161,0.0,0.0,0.0,0.0,0.0,0.0,0.0,0.0,0.0,0.0,0.0,0.0,0.0,0.0,0.0,0.0,0.0,0.0,0.0,0.0,5.0709,5.0898,5.0898,5.0898,5.0898,5.0898,5.0898,5.0898,5.0898,5.0898,5.0898,5.0898,5.0898,5.0898,5.0898,5.0898,5.0898,5.0898,5.0898,5.0898,5.0898,5.0898,5.0898,5.0898,5.0898,5.0898,5.0898,5.0898,5.0898,5.1149,5.2846,5.3441,5.3722,5.5407,5.5914,5.5866,5.5826,5.5771,5.574,5.5714,5.5708,5.5708,5.5708,5.5708,5.5708,5.5708,5.5708,5.5708,5.5708,5.5708,5.5708,5.5708,5.5708,5.5708,5.5708,5.5708,5.5708,5.5708,5.5573,5.5425,5.5314,5.4959,5.4302,5.323,5.2609,5.1912,5.0942,5.0543,5.0358,5.0358,5.0358,5.0506,5.0841,5.0768,5.0861,5.1194,5.1051,5.0974,5.0992,5.213,5.2865,5.3196,5.3196,5.3196,0.0,0.0,0.0,0.0,0.0,0.0,4.0797,4.0797,4.1006,0.0,0.0,0.0,0.0,0.0,0.0,0.0,0.0,0.0,0.0,0.0,0.0,0.0,0.0,0.0,0.0,4.8508,4.9494,4.9684,5.0457,5.0898,5.0898,5.0898,5.0898,5.0898,5.0898,5.0898,5.0898,5.0898,5.0898,5.0898,5.0898,5.0898,5.0898,5.0898,5.0898,5.0898,5.0898,5.0898,5.0898,5.0898,5.0898,5.0898,5.0898,5.0898,5.0898,5.0898,5.0898,5.1153,5.2898,5.3502,5.3784,5.5457,5.5999,5.5976,5.5846,5.5816,5.5782,5.5724,5.5708,5.5708,5.5708,5.5708,5.5708,5.5708,5.5708,5.5708,5.5708,5.5708,5.5708,5.5708,5.5708,5.5708,5.5708,5.5708,5.5708,5.5708,5.5708,5.5613,5.5376,5.532,5.4728,5.3225,5.2371,5.1393,5.013,4.9335,4.8909,4.8909,4.8909,4.9216,4.994,4.9906,5.0213,5.0935,5.0878,5.0886,5.0969,5.1584,5.2254,5.2931,5.2939,5.2939,0.0,0.0,0.0,0.0,0.0,0.0,4.0797,4.0797,4.0832,0.0,0.0,0.0,0.0,0.0,0.0,0.0,0.0,0.0,0.0,0.0,0.0,0.0,0.0,0.0,0.0,4.7409,4.8198,4.9587,5.0457,5.0898,5.0898,5.0898,5.0898,5.0898,5.0898,5.0898,5.0898,5.0898,5.0898,5.0898,5.0898,5.0898,5.0898,5.0898,5.0898,5.0898,5.0898,5.0898,5.0898,5.0898,5.0898,5.0898,5.0898,5.0898,5.0898,5.0898,5.0898,5.1153,5.2898,5.3502,5.3788,5.5458,5.6007,5.5985,5.5905,5.5841,5.5782,5.5724,5.5708,5.5708,5.5708,5.5708,5.5708,5.5708,5.5708,5.5708,5.5708,5.5708,5.5708,5.5708,5.5708,5.5708,5.5708,5.5708,5.5708,5.5708,5.5708,5.5673,5.5624,5.5431,5.467,5.3041,5.2273,5.1257,4.9669,4.9145,4.8909,4.8909,4.8909,4.8964,4.9123,4.9124,4.9189,4.9357,4.9286,4.9519,5.0055,5.0769,5.1206,5.1343,5.1291,5.1269,0.0,0.0,0.0,4.0827,0.0,0.0,0.0,4.0797,4.0797,0.0,0.0,0.0,0.0,0.0,0.0,0.0,0.0,0.0,0.0,0.0,0.0,0.0,0.0,0.0,0.0,4.6848,4.7811,4.9571,5.007,5.0476,5.0879,5.0898,5.0898,5.0898,5.0898,5.0898,5.0898,5.0898,5.0898,5.0898,5.0898,5.0898,5.0898,5.0898,5.0898,5.0898,5.0898,5.0898,5.0898,5.0898,5.0898,5.0898,5.0898,5.0898,5.0898,5.0898,5.0898,5.1095,5.2395,5.3134,5.3714,5.4987,5.5668,5.5985,5.5914,5.5826,5.5745,5.5714,5.5708,5.5708,5.5708,5.5708,5.5708,5.5708,5.5708,5.5708,5.5708,5.5708,5.5708,5.5708,5.5708,5.5708,5.5708,5.5708,5.5708,5.5708,5.5708,5.5708,5.5708,5.5461,5.4651,5.2982,5.2233,5.1188,4.9538,4.9094,4.8909,4.8909,4.8909,4.8909,4.8909,4.8909,4.8909,4.8909,4.8865,4.9016,4.9352,4.9695,5.0219,5.0895,5.0824,5.0802,0.0,0.0,0.0,0.0,0.0,4.0824,0.0,0.0,0.0,0.0,0.0,0.0,0.0,0.0,0.0,0.0,0.0,0.0,0.0,0.0,0.0,0.0,0.0,0.0,0.0,4.6596,4.7753,4.9339,4.961,5.0051,5.0859,5.0898,5.0898,5.0898,5.0898,5.0898,5.0898,5.0898,5.0898,5.0898,5.0898,5.0898,5.0898,5.0898,5.0898,5.0898,5.0898,5.0898,5.0898,5.0898,5.0898,5.0898,5.0898,5.0898,5.0898,5.0898,5.0898,5.1018,5.1896,5.2651,5.3424,5.4465,5.5335,5.5971,5.59,5.5801,5.5708,5.5708,5.5708,5.5708,5.5708,5.5708,5.5708,5.5708,5.5708,5.5708,5.5708,5.5708,5.5708,5.5708,5.5708,5.5708,5.5708,5.5708,5.5708,5.5708,5.5708,5.5708,5.5708,5.5461,5.4747,5.3277,5.2395,5.1309,4.9853,4.9276,4.8978,4.8909,4.8909,4.8909,4.8909,4.8909,4.8909,4.8909,4.8909,4.8909,4.8909,4.884,4.9381,5.0456,5.0394,5.0335,0.0,0.0,0.0,0.0,4.0891,0.0,0.0,0.0,0.0,0.0,0.0,0.0,0.0,0.0,0.0,0.0,0.0,0.0,0.0,0.0,0.0,0.0,0.0,0.0,0.0,0.0,4.7505,4.8469,4.9262,5.0051,5.0859,5.0898,5.0898,5.0898,5.0898,5.0898,5.0898,5.0898,5.0898,5.0898,5.0898,5.0898,5.0898,5.0898,5.0898,5.0898,5.0898,5.0898,5.0898,5.0898,5.0898,5.0898,5.0898,5.0898,5.0898,5.0898,5.0898,5.1018,5.1896,5.2264,5.2612,5.4271,5.5289,5.59,5.5831,5.5756,5.5708,5.5708,5.5708,5.5708,5.5708,5.5708,5.5708,5.5708,5.5708,5.5708,5.5708,5.5708,5.5708,5.5708,5.5708,5.5708,5.5708,5.5708,5.5708,5.5708,5.5708,5.5708,5.5708,5.5461,5.5044,5.438,5.3073,5.189,5.0976,4.9954,4.9225,4.8926,4.8909,4.8909,4.8909,4.8909,4.8909,4.8909,4.8909,4.8909,4.8909,4.884,4.8816,4.8864,4.8799,4.8695,0.0,0.0,0.0,0.0,0.0,0.0,0.0,0.0,4.0797,0.0,0.0,0.0,0.0,0.0,0.0,0.0,0.0,0.0,0.0,0.0,0.0,0.0,0.0,0.0,0.0,0.0,0.0,0.0,0.0,4.932,5.0167,5.0651,5.0898,5.0898,5.0898,5.0898,5.0898,5.0898,5.0898,5.0898,5.0898,5.0898,5.0898,5.0898,5.0898,5.0898,5.0898,5.0898,5.0898,5.0898,5.0898,5.0898,5.0898,5.0898,5.0898,5.0898,5.0898,5.0956,5.1327,5.1776,5.2472,5.4184,5.4933,5.5234,5.5672,5.5751,5.5708,5.5708,5.5708,5.5708,5.5708,5.5708,5.5708,5.5708,5.5708,5.5708,5.5708,5.5708,5.5708,5.5708,5.5708,5.5708,5.5708,5.5708,5.5708,5.5708,5.5708,5.5708,5.5708,5.5461,5.5095,5.4566,5.3013,5.1763,5.1144,4.9878,4.9052,4.8917,4.8909,4.8909,4.8909,4.8909,4.8909,4.8909,4.8909,4.8909,4.8909,4.8874,4.8804,4.8715,4.8569,4.8466,4.4054,0.0,0.0,0.0,0.0,0.0,0.0,0.0,0.0,0.0,0.0,0.0,0.0,0.0,0.0,0.0,0.0,0.0,0.0,0.0,0.0,0.0,0.0,0.0,0.0,0.0,0.0,0.0,4.7908,4.8778,4.9645,5.0457,5.0898,5.0898,5.0898,5.0898,5.0898,5.0898,5.0898,5.0898,5.0898,5.0898,5.0898,5.0898,5.0898,5.0898,5.0898,5.0898,5.0898,5.0898,5.0898,5.0898,5.0898,5.0898,5.0898,5.0898,5.0898,5.0898,5.0898,5.1467,5.243,5.3887,5.4456,5.4752,5.5556,5.5751,5.5708,5.5708,5.5708,5.5708,5.5708,5.5708,5.5708,5.5708,5.5708,5.5708,5.5708,5.5708,5.5708,5.5708,5.5708,5.5708,5.5708,5.5708,5.5708,5.5708,5.5708,5.5708,5.5708,5.5461,5.519,5.4855,5.337,5.2129,5.1473,5.0243,4.9334,4.8936,4.8909,4.8909,4.8909,4.8909,4.8909,4.8909,4.8909,4.8909,4.8909,4.8909,4.8874,4.8831,4.8652,4.8541,0.0,0.0,0.0,4.3811,0.0,0.0,0.0,0.0,4.2976,0.0,0.0,0.0,0.0,0.0,0.0,0.0,0.0,0.0,0.0,0.0,0.0,0.0,0.0,0.0,0.0,0.0,0.0,4.7022,4.7908,4.8778,4.9645,5.0457,5.0898,5.0898,5.0898,5.0898,5.0898,5.0898,5.0898,5.0898,5.0898,5.0898,5.0898,5.0898,5.0898,5.0898,5.0898,5.0898,5.0898,5.0898,5.0898,5.0898,5.0898,5.0898,5.0898,5.0898,5.0898,5.0898,5.0898,5.1467,5.2333,5.3172,5.3974,5.4752,5.5556,5.5751,5.5708,5.5708,5.5708,5.5708,5.5708,5.5708,5.5708,5.5708,5.5708,5.5708,5.5708,5.5708,5.5708,5.5708,5.5708,5.5708,5.5708,5.5708,5.5708,5.5708,5.5708,5.5708,5.5708,5.5461,5.5382,5.5643,5.4614,5.3486,5.2361,5.1504,5.0417,4.8989,4.8909,4.8909,4.8909,4.8909,4.8909,4.8909,4.8909,4.8909,4.8909,4.8909,4.8909,4.89,4.8831,4.8679,0.0,0.0,4.5781,4.5467,0.0,0.0,0.0,0.0,0.0,0.0,0.0,0.0,0.0,0.0,0.0,0.0,0.0,0.0,0.0,0.0,0.0,0.0,0.0,0.0,0.0,0.0,0.0,4.6209,4.7041,4.7927,0.0,4.9645,5.0341,5.0879,5.0898,5.0898,5.0898,5.0898,5.0898,5.0898,5.0898,5.0898,5.0898,5.0898,5.0898,5.0898,5.0898,5.0898,5.0898,5.0898,5.0898,5.0898,5.0898,5.0898,5.0898,5.0898,5.0898,5.0898,5.0898,5.1095,5.1579,5.2998,5.3595,5.4005,5.5437,5.5796,5.5708,5.5708,5.5708,5.5708,5.5708,5.5708,5.5708,5.5708,5.5708,5.5708,5.5708,5.5708,5.5708,5.5708,5.5708,5.5708,5.5708,5.5708,5.5708,5.5708,5.5708,5.5708,5.5708,5.5618,5.5602,5.5698,5.4675,5.3544,5.2399,5.0666,4.9421,4.8926,4.8909,4.8909,4.8909,4.8909,4.8909,4.8909,4.8909,4.8909,4.8909,4.8909,4.8909,4.8909,4.8874,4.8813,4.6387,4.6308,0.0,4.6308,4.5784,0.0,4.5302,0.0,0.0,0.0,0.0,0.0,0.0,0.0,0.0,0.0,0.0,0.0,0.0,0.0,0.0,0.0,0.0,0.0,0.0,0.0,4.5803,4.5803,4.6616,4.7486,0.0,0.0,5.0116,5.0946,5.0965,5.0965,5.0965,5.0929,5.0898,5.0898,5.0898,5.0898,5.0898,5.0898,5.0898,5.0898,5.0898,5.0898,5.0898,5.0898,5.0898,5.0898,5.0898,5.0898,5.0898,5.0898,5.0898,5.0898,5.0898,5.1095,5.1602,5.3033,5.3627,5.4024,5.5471,5.5811,5.5708,5.5708,5.5708,5.5708,5.5708,5.5708,5.5708,5.5708,5.5708,5.5708,5.5708,5.5708,5.5708,5.5708,5.5708,5.5708,5.5708,5.5708,5.5708,5.5708,5.5708,5.5708,5.5708,5.5708,5.5708,5.5708,5.5044,5.3976,5.2432,5.0584,4.9333,4.8936,4.8909,4.8909,4.8909,4.8909,4.9187,4.9782,4.9503,4.9503,4.9782,4.9485,4.9187,4.8909,4.8909,4.8874]}]]